<?xml version="1.0" encoding="UTF-8" standalone="no" ?>
<gpx xmlns="http://www.topografix.com/GPX/1/1" xmlns:xsi="http://www.w3.org/2001/XMLSchema-instance" xsi:schemaLocation="http://www.topografix.com/GPX/1/1 http://www.topografix.com/GPX/1/1/gpx.xsd" version="1.1" creator="VisuGPX - https://www.visugpx.com">
  <metadata>
    <name>Malleval-en-Vercors Cascade de la Gerlette</name>
    <desc><![CDATA[
]]></desc>
  </metadata>
  <trk>
    <name><![CDATA[Malleval-en-Vercors Randonnée pédestre]]></name>
    <trkseg>
      <trkpt lat="45.14906" lon="5.44014">
        <ele>939</ele>
        <time>2020-02-24T12:22:57.000Z</time>
      </trkpt>
      <trkpt lat="45.14904" lon="5.44016">
        <ele>937.59997558594</ele>
        <time>2020-02-24T12:22:58.000Z</time>
      </trkpt>
      <trkpt lat="45.14902" lon="5.44017">
        <ele>936.20001220703</ele>
        <time>2020-02-24T12:23:00.000Z</time>
      </trkpt>
      <trkpt lat="45.14903" lon="5.44025">
        <ele>935</ele>
        <time>2020-02-24T12:23:03.000Z</time>
      </trkpt>
      <trkpt lat="45.14901" lon="5.44027">
        <ele>934.40002441406</ele>
        <time>2020-02-24T12:23:06.000Z</time>
      </trkpt>
      <trkpt lat="45.14901" lon="5.44031">
        <ele>934</ele>
        <time>2020-02-24T12:23:09.000Z</time>
      </trkpt>
      <trkpt lat="45.14901" lon="5.44035">
        <ele>934</ele>
        <time>2020-02-24T12:23:10.000Z</time>
      </trkpt>
      <trkpt lat="45.14902" lon="5.44038">
        <ele>932.79998779297</ele>
        <time>2020-02-24T12:23:15.000Z</time>
      </trkpt>
      <trkpt lat="45.14903" lon="5.44039">
        <ele>932.20001220703</ele>
        <time>2020-02-24T12:23:17.000Z</time>
      </trkpt>
      <trkpt lat="45.14905" lon="5.44041">
        <ele>932</ele>
        <time>2020-02-24T12:23:19.000Z</time>
      </trkpt>
      <trkpt lat="45.14908" lon="5.44043">
        <ele>931.79998779297</ele>
        <time>2020-02-24T12:23:20.000Z</time>
      </trkpt>
      <trkpt lat="45.14912" lon="5.44048">
        <ele>931</ele>
        <time>2020-02-24T12:23:25.000Z</time>
      </trkpt>
      <trkpt lat="45.14918" lon="5.44054">
        <ele>931</ele>
        <time>2020-02-24T12:23:34.000Z</time>
      </trkpt>
      <trkpt lat="45.14922" lon="5.44056">
        <ele>930.79998779297</ele>
        <time>2020-02-24T12:23:37.000Z</time>
      </trkpt>
      <trkpt lat="45.14926" lon="5.44059">
        <ele>931</ele>
        <time>2020-02-24T12:23:41.000Z</time>
      </trkpt>
      <trkpt lat="45.14927" lon="5.44061">
        <ele>930.59997558594</ele>
        <time>2020-02-24T12:23:43.000Z</time>
      </trkpt>
      <trkpt lat="45.14931" lon="5.44067">
        <ele>930</ele>
        <time>2020-02-24T12:23:48.000Z</time>
      </trkpt>
      <trkpt lat="45.14932" lon="5.44071">
        <ele>929.59997558594</ele>
        <time>2020-02-24T12:23:50.000Z</time>
      </trkpt>
      <trkpt lat="45.14934" lon="5.44072">
        <ele>929.40002441406</ele>
        <time>2020-02-24T12:23:52.000Z</time>
      </trkpt>
      <trkpt lat="45.14938" lon="5.44077">
        <ele>928.79998779297</ele>
        <time>2020-02-24T12:23:57.000Z</time>
      </trkpt>
      <trkpt lat="45.1494" lon="5.44079">
        <ele>928.40002441406</ele>
        <time>2020-02-24T12:23:59.000Z</time>
      </trkpt>
      <trkpt lat="45.14946" lon="5.44084">
        <ele>927.40002441406</ele>
        <time>2020-02-24T12:24:05.000Z</time>
      </trkpt>
      <trkpt lat="45.14948" lon="5.44087">
        <ele>926.79998779297</ele>
        <time>2020-02-24T12:24:08.000Z</time>
      </trkpt>
      <trkpt lat="45.14953" lon="5.44089">
        <ele>926.20001220703</ele>
        <time>2020-02-24T12:24:11.000Z</time>
      </trkpt>
      <trkpt lat="45.14957" lon="5.4409">
        <ele>925</ele>
        <time>2020-02-24T12:24:14.000Z</time>
      </trkpt>
      <trkpt lat="45.14963" lon="5.44093">
        <ele>924.20001220703</ele>
        <time>2020-02-24T12:24:19.000Z</time>
      </trkpt>
      <trkpt lat="45.14966" lon="5.44095">
        <ele>923.79998779297</ele>
        <time>2020-02-24T12:24:21.000Z</time>
      </trkpt>
      <trkpt lat="45.14969" lon="5.44101">
        <ele>923.20001220703</ele>
        <time>2020-02-24T12:24:27.000Z</time>
      </trkpt>
      <trkpt lat="45.1497" lon="5.44103">
        <ele>922.79998779297</ele>
        <time>2020-02-24T12:24:29.000Z</time>
      </trkpt>
      <trkpt lat="45.14971" lon="5.44105">
        <ele>922.59997558594</ele>
        <time>2020-02-24T12:24:30.000Z</time>
      </trkpt>
      <trkpt lat="45.14975" lon="5.44108">
        <ele>922</ele>
        <time>2020-02-24T12:24:33.000Z</time>
      </trkpt>
      <trkpt lat="45.14977" lon="5.4411">
        <ele>921.79998779297</ele>
        <time>2020-02-24T12:24:36.000Z</time>
      </trkpt>
      <trkpt lat="45.14983" lon="5.44111">
        <ele>921</ele>
        <time>2020-02-24T12:24:41.000Z</time>
      </trkpt>
      <trkpt lat="45.14987" lon="5.44112">
        <ele>920.59997558594</ele>
        <time>2020-02-24T12:24:45.000Z</time>
      </trkpt>
      <trkpt lat="45.14991" lon="5.44115">
        <ele>919.59997558594</ele>
        <time>2020-02-24T12:24:50.000Z</time>
      </trkpt>
      <trkpt lat="45.14992" lon="5.44116">
        <ele>919.20001220703</ele>
        <time>2020-02-24T12:24:51.000Z</time>
      </trkpt>
      <trkpt lat="45.14993" lon="5.44117">
        <ele>919.20001220703</ele>
        <time>2020-02-24T12:24:52.000Z</time>
      </trkpt>
      <trkpt lat="45.14993" lon="5.44117">
        <ele>919.20001220703</ele>
        <time>2020-02-24T12:24:53.000Z</time>
      </trkpt>
      <trkpt lat="45.14997" lon="5.4412">
        <ele>918.59997558594</ele>
        <time>2020-02-24T12:24:56.000Z</time>
      </trkpt>
      <trkpt lat="45.14999" lon="5.44121">
        <ele>918.40002441406</ele>
        <time>2020-02-24T12:24:57.000Z</time>
      </trkpt>
      <trkpt lat="45.15005" lon="5.44124">
        <ele>917.40002441406</ele>
        <time>2020-02-24T12:25:03.000Z</time>
      </trkpt>
      <trkpt lat="45.15008" lon="5.44124">
        <ele>917</ele>
        <time>2020-02-24T12:25:05.000Z</time>
      </trkpt>
      <trkpt lat="45.15011" lon="5.44126">
        <ele>917</ele>
        <time>2020-02-24T12:25:07.000Z</time>
      </trkpt>
      <trkpt lat="45.15014" lon="5.44129">
        <ele>916.59997558594</ele>
        <time>2020-02-24T12:25:10.000Z</time>
      </trkpt>
      <trkpt lat="45.15016" lon="5.4413">
        <ele>916</ele>
        <time>2020-02-24T12:25:12.000Z</time>
      </trkpt>
      <trkpt lat="45.15017" lon="5.44131">
        <ele>915.79998779297</ele>
        <time>2020-02-24T12:25:13.000Z</time>
      </trkpt>
      <trkpt lat="45.15021" lon="5.44133">
        <ele>914.79998779297</ele>
        <time>2020-02-24T12:25:16.000Z</time>
      </trkpt>
      <trkpt lat="45.15026" lon="5.44136">
        <ele>914</ele>
        <time>2020-02-24T12:25:22.000Z</time>
      </trkpt>
      <trkpt lat="45.15027" lon="5.44136">
        <ele>914</ele>
        <time>2020-02-24T12:25:23.000Z</time>
      </trkpt>
      <trkpt lat="45.15028" lon="5.44136">
        <ele>914</ele>
        <time>2020-02-24T12:25:24.000Z</time>
      </trkpt>
      <trkpt lat="45.1503" lon="5.44138">
        <ele>913.59997558594</ele>
        <time>2020-02-24T12:25:28.000Z</time>
      </trkpt>
      <trkpt lat="45.15033" lon="5.44138">
        <ele>913.40002441406</ele>
        <time>2020-02-24T12:25:33.000Z</time>
      </trkpt>
      <trkpt lat="45.15035" lon="5.44138">
        <ele>913</ele>
        <time>2020-02-24T12:25:37.000Z</time>
      </trkpt>
      <trkpt lat="45.15035" lon="5.44138">
        <ele>912.59997558594</ele>
        <time>2020-02-24T12:25:38.000Z</time>
      </trkpt>
      <trkpt lat="45.15038" lon="5.44141">
        <ele>911.20001220703</ele>
        <time>2020-02-24T12:25:42.000Z</time>
      </trkpt>
      <trkpt lat="45.15043" lon="5.44141">
        <ele>910</ele>
        <time>2020-02-24T12:25:45.000Z</time>
      </trkpt>
      <trkpt lat="45.15045" lon="5.44141">
        <ele>909.79998779297</ele>
        <time>2020-02-24T12:25:47.000Z</time>
      </trkpt>
      <trkpt lat="45.15051" lon="5.44145">
        <ele>909</ele>
        <time>2020-02-24T12:25:51.000Z</time>
      </trkpt>
      <trkpt lat="45.15057" lon="5.44148">
        <ele>908.40002441406</ele>
        <time>2020-02-24T12:25:54.000Z</time>
      </trkpt>
      <trkpt lat="45.15062" lon="5.44151">
        <ele>908</ele>
        <time>2020-02-24T12:25:58.000Z</time>
      </trkpt>
      <trkpt lat="45.15068" lon="5.44153">
        <ele>907.20001220703</ele>
        <time>2020-02-24T12:26:04.000Z</time>
      </trkpt>
      <trkpt lat="45.15069" lon="5.44153">
        <ele>907</ele>
        <time>2020-02-24T12:26:05.000Z</time>
      </trkpt>
      <trkpt lat="45.15072" lon="5.44154">
        <ele>906.40002441406</ele>
        <time>2020-02-24T12:26:09.000Z</time>
      </trkpt>
      <trkpt lat="45.15073" lon="5.44154">
        <ele>906</ele>
        <time>2020-02-24T12:26:10.000Z</time>
      </trkpt>
      <trkpt lat="45.15077" lon="5.44156">
        <ele>905.20001220703</ele>
        <time>2020-02-24T12:26:15.000Z</time>
      </trkpt>
      <trkpt lat="45.15081" lon="5.44158">
        <ele>904.79998779297</ele>
        <time>2020-02-24T12:26:18.000Z</time>
      </trkpt>
      <trkpt lat="45.15084" lon="5.44159">
        <ele>904.20001220703</ele>
        <time>2020-02-24T12:26:20.000Z</time>
      </trkpt>
      <trkpt lat="45.15087" lon="5.44161">
        <ele>903.59997558594</ele>
        <time>2020-02-24T12:26:22.000Z</time>
      </trkpt>
      <trkpt lat="45.15091" lon="5.44163">
        <ele>903.40002441406</ele>
        <time>2020-02-24T12:26:24.000Z</time>
      </trkpt>
      <trkpt lat="45.15094" lon="5.44166">
        <ele>903</ele>
        <time>2020-02-24T12:26:27.000Z</time>
      </trkpt>
      <trkpt lat="45.15097" lon="5.44171">
        <ele>902.40002441406</ele>
        <time>2020-02-24T12:26:31.000Z</time>
      </trkpt>
      <trkpt lat="45.151" lon="5.44174">
        <ele>901.79998779297</ele>
        <time>2020-02-24T12:26:35.000Z</time>
      </trkpt>
      <trkpt lat="45.151" lon="5.44175">
        <ele>901.40002441406</ele>
        <time>2020-02-24T12:26:36.000Z</time>
      </trkpt>
      <trkpt lat="45.15102" lon="5.44176">
        <ele>900.79998779297</ele>
        <time>2020-02-24T12:26:38.000Z</time>
      </trkpt>
      <trkpt lat="45.15104" lon="5.4418">
        <ele>900.20001220703</ele>
        <time>2020-02-24T12:26:42.000Z</time>
      </trkpt>
      <trkpt lat="45.15105" lon="5.44181">
        <ele>900.20001220703</ele>
        <time>2020-02-24T12:26:43.000Z</time>
      </trkpt>
      <trkpt lat="45.1511" lon="5.44185">
        <ele>899.20001220703</ele>
        <time>2020-02-24T12:26:47.000Z</time>
      </trkpt>
      <trkpt lat="45.15116" lon="5.44192">
        <ele>898.20001220703</ele>
        <time>2020-02-24T12:26:55.000Z</time>
      </trkpt>
      <trkpt lat="45.15118" lon="5.44194">
        <ele>897.59997558594</ele>
        <time>2020-02-24T12:26:58.000Z</time>
      </trkpt>
      <trkpt lat="45.1512" lon="5.44196">
        <ele>897.20001220703</ele>
        <time>2020-02-24T12:27:00.000Z</time>
      </trkpt>
      <trkpt lat="45.1512" lon="5.44196">
        <ele>897.20001220703</ele>
        <time>2020-02-24T12:27:01.000Z</time>
      </trkpt>
      <trkpt lat="45.15123" lon="5.44197">
        <ele>896</ele>
        <time>2020-02-24T12:27:04.000Z</time>
      </trkpt>
      <trkpt lat="45.15123" lon="5.44197">
        <ele>895.79998779297</ele>
        <time>2020-02-24T12:27:05.000Z</time>
      </trkpt>
      <trkpt lat="45.15124" lon="5.44198">
        <ele>895.59997558594</ele>
        <time>2020-02-24T12:27:06.000Z</time>
      </trkpt>
      <trkpt lat="45.15126" lon="5.44198">
        <ele>895.40002441406</ele>
        <time>2020-02-24T12:27:07.000Z</time>
      </trkpt>
      <trkpt lat="45.15127" lon="5.44198">
        <ele>895.40002441406</ele>
        <time>2020-02-24T12:27:08.000Z</time>
      </trkpt>
      <trkpt lat="45.15133" lon="5.44201">
        <ele>894.79998779297</ele>
        <time>2020-02-24T12:27:13.000Z</time>
      </trkpt>
      <trkpt lat="45.15135" lon="5.44202">
        <ele>894.40002441406</ele>
        <time>2020-02-24T12:27:15.000Z</time>
      </trkpt>
      <trkpt lat="45.15137" lon="5.44202">
        <ele>894</ele>
        <time>2020-02-24T12:27:16.000Z</time>
      </trkpt>
      <trkpt lat="45.15138" lon="5.44203">
        <ele>893.79998779297</ele>
        <time>2020-02-24T12:27:17.000Z</time>
      </trkpt>
      <trkpt lat="45.15138" lon="5.44204">
        <ele>893.40002441406</ele>
        <time>2020-02-24T12:27:18.000Z</time>
      </trkpt>
      <trkpt lat="45.15142" lon="5.44206">
        <ele>892.79998779297</ele>
        <time>2020-02-24T12:27:23.000Z</time>
      </trkpt>
      <trkpt lat="45.15143" lon="5.44207">
        <ele>892.59997558594</ele>
        <time>2020-02-24T12:27:24.000Z</time>
      </trkpt>
      <trkpt lat="45.15148" lon="5.4421">
        <ele>891.59997558594</ele>
        <time>2020-02-24T12:27:30.000Z</time>
      </trkpt>
      <trkpt lat="45.15149" lon="5.44211">
        <ele>891.59997558594</ele>
        <time>2020-02-24T12:27:31.000Z</time>
      </trkpt>
      <trkpt lat="45.1516" lon="5.44217">
        <ele>890.40002441406</ele>
        <time>2020-02-24T12:27:39.000Z</time>
      </trkpt>
      <trkpt lat="45.15163" lon="5.44218">
        <ele>890.20001220703</ele>
        <time>2020-02-24T12:27:41.000Z</time>
      </trkpt>
      <trkpt lat="45.15169" lon="5.44223">
        <ele>889.40002441406</ele>
        <time>2020-02-24T12:27:48.000Z</time>
      </trkpt>
      <trkpt lat="45.15172" lon="5.44225">
        <ele>888.79998779297</ele>
        <time>2020-02-24T12:27:51.000Z</time>
      </trkpt>
      <trkpt lat="45.15173" lon="5.44225">
        <ele>888.20001220703</ele>
        <time>2020-02-24T12:27:53.000Z</time>
      </trkpt>
      <trkpt lat="45.15176" lon="5.44226">
        <ele>887.79998779297</ele>
        <time>2020-02-24T12:27:55.000Z</time>
      </trkpt>
      <trkpt lat="45.15177" lon="5.44226">
        <ele>887.59997558594</ele>
        <time>2020-02-24T12:27:57.000Z</time>
      </trkpt>
      <trkpt lat="45.15179" lon="5.44228">
        <ele>887</ele>
        <time>2020-02-24T12:27:59.000Z</time>
      </trkpt>
      <trkpt lat="45.15179" lon="5.44229">
        <ele>887</ele>
        <time>2020-02-24T12:28:00.000Z</time>
      </trkpt>
      <trkpt lat="45.1518" lon="5.44231">
        <ele>887</ele>
        <time>2020-02-24T12:28:02.000Z</time>
      </trkpt>
      <trkpt lat="45.15183" lon="5.44237">
        <ele>887</ele>
        <time>2020-02-24T12:28:07.000Z</time>
      </trkpt>
      <trkpt lat="45.15184" lon="5.44239">
        <ele>886.59997558594</ele>
        <time>2020-02-24T12:28:10.000Z</time>
      </trkpt>
      <trkpt lat="45.15186" lon="5.44239">
        <ele>886.20001220703</ele>
        <time>2020-02-24T12:28:12.000Z</time>
      </trkpt>
      <trkpt lat="45.15186" lon="5.44239">
        <ele>885.59997558594</ele>
        <time>2020-02-24T12:28:13.000Z</time>
      </trkpt>
      <trkpt lat="45.15188" lon="5.4424">
        <ele>885.20001220703</ele>
        <time>2020-02-24T12:28:15.000Z</time>
      </trkpt>
      <trkpt lat="45.15191" lon="5.44241">
        <ele>885</ele>
        <time>2020-02-24T12:28:18.000Z</time>
      </trkpt>
      <trkpt lat="45.15193" lon="5.44244">
        <ele>884.59997558594</ele>
        <time>2020-02-24T12:28:22.000Z</time>
      </trkpt>
      <trkpt lat="45.15196" lon="5.44246">
        <ele>884</ele>
        <time>2020-02-24T12:28:24.000Z</time>
      </trkpt>
      <trkpt lat="45.15198" lon="5.44249">
        <ele>883.40002441406</ele>
        <time>2020-02-24T12:28:29.000Z</time>
      </trkpt>
      <trkpt lat="45.15203" lon="5.44255">
        <ele>882.20001220703</ele>
        <time>2020-02-24T12:28:35.000Z</time>
      </trkpt>
      <trkpt lat="45.15203" lon="5.44257">
        <ele>882</ele>
        <time>2020-02-24T12:28:36.000Z</time>
      </trkpt>
      <trkpt lat="45.15205" lon="5.44258">
        <ele>881.79998779297</ele>
        <time>2020-02-24T12:28:37.000Z</time>
      </trkpt>
      <trkpt lat="45.15208" lon="5.44259">
        <ele>881.40002441406</ele>
        <time>2020-02-24T12:28:38.000Z</time>
      </trkpt>
      <trkpt lat="45.15209" lon="5.4426">
        <ele>881</ele>
        <time>2020-02-24T12:28:39.000Z</time>
      </trkpt>
      <trkpt lat="45.15211" lon="5.44261">
        <ele>880.59997558594</ele>
        <time>2020-02-24T12:28:41.000Z</time>
      </trkpt>
      <trkpt lat="45.15212" lon="5.44262">
        <ele>880.40002441406</ele>
        <time>2020-02-24T12:28:42.000Z</time>
      </trkpt>
      <trkpt lat="45.15214" lon="5.44264">
        <ele>880.40002441406</ele>
        <time>2020-02-24T12:28:43.000Z</time>
      </trkpt>
      <trkpt lat="45.15214" lon="5.44265">
        <ele>880.20001220703</ele>
        <time>2020-02-24T12:28:44.000Z</time>
      </trkpt>
      <trkpt lat="45.15217" lon="5.44267">
        <ele>880</ele>
        <time>2020-02-24T12:28:46.000Z</time>
      </trkpt>
      <trkpt lat="45.15217" lon="5.44269">
        <ele>879.79998779297</ele>
        <time>2020-02-24T12:28:47.000Z</time>
      </trkpt>
      <trkpt lat="45.15219" lon="5.44272">
        <ele>878.79998779297</ele>
        <time>2020-02-24T12:28:50.000Z</time>
      </trkpt>
      <trkpt lat="45.1522" lon="5.44276">
        <ele>878.40002441406</ele>
        <time>2020-02-24T12:28:53.000Z</time>
      </trkpt>
      <trkpt lat="45.15222" lon="5.44278">
        <ele>877.79998779297</ele>
        <time>2020-02-24T12:28:56.000Z</time>
      </trkpt>
      <trkpt lat="45.15223" lon="5.44278">
        <ele>877.59997558594</ele>
        <time>2020-02-24T12:28:57.000Z</time>
      </trkpt>
      <trkpt lat="45.1523" lon="5.44285">
        <ele>876.79998779297</ele>
        <time>2020-02-24T12:29:04.000Z</time>
      </trkpt>
      <trkpt lat="45.15235" lon="5.44289">
        <ele>876.20001220703</ele>
        <time>2020-02-24T12:29:08.000Z</time>
      </trkpt>
      <trkpt lat="45.15239" lon="5.44292">
        <ele>875.59997558594</ele>
        <time>2020-02-24T12:29:11.000Z</time>
      </trkpt>
      <trkpt lat="45.15241" lon="5.44299">
        <ele>874.40002441406</ele>
        <time>2020-02-24T12:29:17.000Z</time>
      </trkpt>
      <trkpt lat="45.15243" lon="5.44301">
        <ele>874.20001220703</ele>
        <time>2020-02-24T12:29:19.000Z</time>
      </trkpt>
      <trkpt lat="45.15245" lon="5.44306">
        <ele>873.40002441406</ele>
        <time>2020-02-24T12:29:23.000Z</time>
      </trkpt>
      <trkpt lat="45.15246" lon="5.44307">
        <ele>873.20001220703</ele>
        <time>2020-02-24T12:29:24.000Z</time>
      </trkpt>
      <trkpt lat="45.15246" lon="5.44311">
        <ele>873</ele>
        <time>2020-02-24T12:29:26.000Z</time>
      </trkpt>
      <trkpt lat="45.15246" lon="5.44312">
        <ele>872.79998779297</ele>
        <time>2020-02-24T12:29:27.000Z</time>
      </trkpt>
      <trkpt lat="45.15247" lon="5.44313">
        <ele>872.79998779297</ele>
        <time>2020-02-24T12:29:28.000Z</time>
      </trkpt>
      <trkpt lat="45.15247" lon="5.44313">
        <ele>872.79998779297</ele>
        <time>2020-02-24T12:29:29.000Z</time>
      </trkpt>
      <trkpt lat="45.15247" lon="5.44315">
        <ele>872.20001220703</ele>
        <time>2020-02-24T12:29:31.000Z</time>
      </trkpt>
      <trkpt lat="45.15248" lon="5.44316">
        <ele>871.79998779297</ele>
        <time>2020-02-24T12:29:32.000Z</time>
      </trkpt>
      <trkpt lat="45.15249" lon="5.4432">
        <ele>871.40002441406</ele>
        <time>2020-02-24T12:29:34.000Z</time>
      </trkpt>
      <trkpt lat="45.15251" lon="5.44323">
        <ele>871.20001220703</ele>
        <time>2020-02-24T12:29:36.000Z</time>
      </trkpt>
      <trkpt lat="45.15254" lon="5.44326">
        <ele>871</ele>
        <time>2020-02-24T12:29:38.000Z</time>
      </trkpt>
      <trkpt lat="45.15257" lon="5.44331">
        <ele>870.40002441406</ele>
        <time>2020-02-24T12:29:42.000Z</time>
      </trkpt>
      <trkpt lat="45.15258" lon="5.44336">
        <ele>869.79998779297</ele>
        <time>2020-02-24T12:29:46.000Z</time>
      </trkpt>
      <trkpt lat="45.15259" lon="5.44338">
        <ele>869.59997558594</ele>
        <time>2020-02-24T12:29:48.000Z</time>
      </trkpt>
      <trkpt lat="45.1526" lon="5.4434">
        <ele>869.40002441406</ele>
        <time>2020-02-24T12:29:50.000Z</time>
      </trkpt>
      <trkpt lat="45.15262" lon="5.44343">
        <ele>869</ele>
        <time>2020-02-24T12:29:53.000Z</time>
      </trkpt>
      <trkpt lat="45.15262" lon="5.44344">
        <ele>868.79998779297</ele>
        <time>2020-02-24T12:29:54.000Z</time>
      </trkpt>
      <trkpt lat="45.15262" lon="5.44344">
        <ele>868.59997558594</ele>
        <time>2020-02-24T12:29:55.000Z</time>
      </trkpt>
      <trkpt lat="45.15264" lon="5.44347">
        <ele>868.40002441406</ele>
        <time>2020-02-24T12:29:58.000Z</time>
      </trkpt>
      <trkpt lat="45.15264" lon="5.44348">
        <ele>868.20001220703</ele>
        <time>2020-02-24T12:29:59.000Z</time>
      </trkpt>
      <trkpt lat="45.15266" lon="5.4435">
        <ele>868</ele>
        <time>2020-02-24T12:30:00.000Z</time>
      </trkpt>
      <trkpt lat="45.15267" lon="5.44353">
        <ele>867.79998779297</ele>
        <time>2020-02-24T12:30:02.000Z</time>
      </trkpt>
      <trkpt lat="45.15271" lon="5.44356">
        <ele>867</ele>
        <time>2020-02-24T12:30:07.000Z</time>
      </trkpt>
      <trkpt lat="45.15273" lon="5.44357">
        <ele>866.79998779297</ele>
        <time>2020-02-24T12:30:08.000Z</time>
      </trkpt>
      <trkpt lat="45.15274" lon="5.44358">
        <ele>866.40002441406</ele>
        <time>2020-02-24T12:30:09.000Z</time>
      </trkpt>
      <trkpt lat="45.15275" lon="5.44358">
        <ele>866.20001220703</ele>
        <time>2020-02-24T12:30:10.000Z</time>
      </trkpt>
      <trkpt lat="45.15276" lon="5.4436">
        <ele>866</ele>
        <time>2020-02-24T12:30:12.000Z</time>
      </trkpt>
      <trkpt lat="45.15278" lon="5.44364">
        <ele>865.59997558594</ele>
        <time>2020-02-24T12:30:16.000Z</time>
      </trkpt>
      <trkpt lat="45.15278" lon="5.44366">
        <ele>865.40002441406</ele>
        <time>2020-02-24T12:30:17.000Z</time>
      </trkpt>
      <trkpt lat="45.15279" lon="5.44368">
        <ele>865</ele>
        <time>2020-02-24T12:30:19.000Z</time>
      </trkpt>
      <trkpt lat="45.15279" lon="5.44369">
        <ele>864.79998779297</ele>
        <time>2020-02-24T12:30:20.000Z</time>
      </trkpt>
      <trkpt lat="45.15279" lon="5.44373">
        <ele>864.59997558594</ele>
        <time>2020-02-24T12:30:23.000Z</time>
      </trkpt>
      <trkpt lat="45.15279" lon="5.44376">
        <ele>864</ele>
        <time>2020-02-24T12:30:25.000Z</time>
      </trkpt>
      <trkpt lat="45.15283" lon="5.44383">
        <ele>863.40002441406</ele>
        <time>2020-02-24T12:30:29.000Z</time>
      </trkpt>
      <trkpt lat="45.15285" lon="5.44386">
        <ele>863.20001220703</ele>
        <time>2020-02-24T12:30:33.000Z</time>
      </trkpt>
      <trkpt lat="45.15287" lon="5.44389">
        <ele>863</ele>
        <time>2020-02-24T12:30:35.000Z</time>
      </trkpt>
      <trkpt lat="45.15289" lon="5.44395">
        <ele>862.59997558594</ele>
        <time>2020-02-24T12:30:39.000Z</time>
      </trkpt>
      <trkpt lat="45.15291" lon="5.44397">
        <ele>862.40002441406</ele>
        <time>2020-02-24T12:30:40.000Z</time>
      </trkpt>
      <trkpt lat="45.15293" lon="5.44408">
        <ele>861.20001220703</ele>
        <time>2020-02-24T12:30:46.000Z</time>
      </trkpt>
      <trkpt lat="45.15294" lon="5.44412">
        <ele>861</ele>
        <time>2020-02-24T12:30:49.000Z</time>
      </trkpt>
      <trkpt lat="45.15294" lon="5.44414">
        <ele>861</ele>
        <time>2020-02-24T12:30:50.000Z</time>
      </trkpt>
      <trkpt lat="45.15294" lon="5.44417">
        <ele>860.20001220703</ele>
        <time>2020-02-24T12:30:54.000Z</time>
      </trkpt>
      <trkpt lat="45.15293" lon="5.44421">
        <ele>859.79998779297</ele>
        <time>2020-02-24T12:30:58.000Z</time>
      </trkpt>
      <trkpt lat="45.15293" lon="5.44422">
        <ele>859.59997558594</ele>
        <time>2020-02-24T12:31:00.000Z</time>
      </trkpt>
      <trkpt lat="45.15293" lon="5.44423">
        <ele>859.40002441406</ele>
        <time>2020-02-24T12:31:01.000Z</time>
      </trkpt>
      <trkpt lat="45.15293" lon="5.44424">
        <ele>859.20001220703</ele>
        <time>2020-02-24T12:31:02.000Z</time>
      </trkpt>
      <trkpt lat="45.15292" lon="5.44429">
        <ele>858.20001220703</ele>
        <time>2020-02-24T12:31:08.000Z</time>
      </trkpt>
      <trkpt lat="45.15292" lon="5.44431">
        <ele>858.20001220703</ele>
        <time>2020-02-24T12:31:10.000Z</time>
      </trkpt>
      <trkpt lat="45.15291" lon="5.44432">
        <ele>858</ele>
        <time>2020-02-24T12:31:11.000Z</time>
      </trkpt>
      <trkpt lat="45.15288" lon="5.44441">
        <ele>857.40002441406</ele>
        <time>2020-02-24T12:31:19.000Z</time>
      </trkpt>
      <trkpt lat="45.15287" lon="5.44444">
        <ele>857.20001220703</ele>
        <time>2020-02-24T12:31:22.000Z</time>
      </trkpt>
      <trkpt lat="45.15286" lon="5.44446">
        <ele>857</ele>
        <time>2020-02-24T12:31:25.000Z</time>
      </trkpt>
      <trkpt lat="45.15286" lon="5.44449">
        <ele>857</ele>
        <time>2020-02-24T12:31:27.000Z</time>
      </trkpt>
      <trkpt lat="45.15284" lon="5.44455">
        <ele>856</ele>
        <time>2020-02-24T12:31:31.000Z</time>
      </trkpt>
      <trkpt lat="45.15283" lon="5.44456">
        <ele>855.59997558594</ele>
        <time>2020-02-24T12:31:32.000Z</time>
      </trkpt>
      <trkpt lat="45.15281" lon="5.44459">
        <ele>855.20001220703</ele>
        <time>2020-02-24T12:31:34.000Z</time>
      </trkpt>
      <trkpt lat="45.1528" lon="5.44461">
        <ele>854.79998779297</ele>
        <time>2020-02-24T12:31:35.000Z</time>
      </trkpt>
      <trkpt lat="45.1528" lon="5.44462">
        <ele>854.59997558594</ele>
        <time>2020-02-24T12:31:37.000Z</time>
      </trkpt>
      <trkpt lat="45.15279" lon="5.44464">
        <ele>854</ele>
        <time>2020-02-24T12:31:39.000Z</time>
      </trkpt>
      <trkpt lat="45.15277" lon="5.44464">
        <ele>853.79998779297</ele>
        <time>2020-02-24T12:31:40.000Z</time>
      </trkpt>
      <trkpt lat="45.15275" lon="5.44465">
        <ele>853.59997558594</ele>
        <time>2020-02-24T12:31:44.000Z</time>
      </trkpt>
      <trkpt lat="45.15273" lon="5.44467">
        <ele>853.40002441406</ele>
        <time>2020-02-24T12:31:46.000Z</time>
      </trkpt>
      <trkpt lat="45.15272" lon="5.44469">
        <ele>853.20001220703</ele>
        <time>2020-02-24T12:31:47.000Z</time>
      </trkpt>
      <trkpt lat="45.15269" lon="5.44473">
        <ele>852.59997558594</ele>
        <time>2020-02-24T12:31:50.000Z</time>
      </trkpt>
      <trkpt lat="45.15268" lon="5.44479">
        <ele>852.40002441406</ele>
        <time>2020-02-24T12:31:52.000Z</time>
      </trkpt>
      <trkpt lat="45.15265" lon="5.44484">
        <ele>852.40002441406</ele>
        <time>2020-02-24T12:31:54.000Z</time>
      </trkpt>
      <trkpt lat="45.15264" lon="5.44485">
        <ele>852.20001220703</ele>
        <time>2020-02-24T12:31:56.000Z</time>
      </trkpt>
      <trkpt lat="45.15263" lon="5.44488">
        <ele>852.20001220703</ele>
        <time>2020-02-24T12:31:58.000Z</time>
      </trkpt>
      <trkpt lat="45.15263" lon="5.44489">
        <ele>852</ele>
        <time>2020-02-24T12:31:59.000Z</time>
      </trkpt>
      <trkpt lat="45.15261" lon="5.44499">
        <ele>851.79998779297</ele>
        <time>2020-02-24T12:32:05.000Z</time>
      </trkpt>
      <trkpt lat="45.15258" lon="5.44507">
        <ele>851.59997558594</ele>
        <time>2020-02-24T12:32:10.000Z</time>
      </trkpt>
      <trkpt lat="45.15258" lon="5.4451">
        <ele>851.79998779297</ele>
        <time>2020-02-24T12:32:15.000Z</time>
      </trkpt>
      <trkpt lat="45.15267" lon="5.44515">
        <ele>852.20001220703</ele>
        <time>2020-02-24T12:32:23.000Z</time>
      </trkpt>
      <trkpt lat="45.15269" lon="5.44517">
        <ele>852.20001220703</ele>
        <time>2020-02-24T12:32:26.000Z</time>
      </trkpt>
      <trkpt lat="45.1527" lon="5.44517">
        <ele>852.20001220703</ele>
        <time>2020-02-24T12:32:27.000Z</time>
      </trkpt>
      <trkpt lat="45.1527" lon="5.44522">
        <ele>852.20001220703</ele>
        <time>2020-02-24T12:32:30.000Z</time>
      </trkpt>
      <trkpt lat="45.15271" lon="5.44525">
        <ele>851.79998779297</ele>
        <time>2020-02-24T12:32:33.000Z</time>
      </trkpt>
      <trkpt lat="45.15271" lon="5.44526">
        <ele>851</ele>
        <time>2020-02-24T12:32:35.000Z</time>
      </trkpt>
      <trkpt lat="45.1527" lon="5.44527">
        <ele>850.40002441406</ele>
        <time>2020-02-24T12:32:38.000Z</time>
      </trkpt>
      <trkpt lat="45.15271" lon="5.44522">
        <ele>849.40002441406</ele>
        <time>2020-02-24T12:32:43.000Z</time>
      </trkpt>
      <trkpt lat="45.15273" lon="5.44519">
        <ele>849.20001220703</ele>
        <time>2020-02-24T12:32:46.000Z</time>
      </trkpt>
      <trkpt lat="45.15275" lon="5.44517">
        <ele>848.79998779297</ele>
        <time>2020-02-24T12:32:48.000Z</time>
      </trkpt>
      <trkpt lat="45.15277" lon="5.44516">
        <ele>848.20001220703</ele>
        <time>2020-02-24T12:32:50.000Z</time>
      </trkpt>
      <trkpt lat="45.15277" lon="5.44515">
        <ele>848.20001220703</ele>
        <time>2020-02-24T12:32:51.000Z</time>
      </trkpt>
      <trkpt lat="45.15277" lon="5.44515">
        <ele>848</ele>
        <time>2020-02-24T12:32:52.000Z</time>
      </trkpt>
      <trkpt lat="45.15277" lon="5.44515">
        <ele>848</ele>
        <time>2020-02-24T12:32:53.000Z</time>
      </trkpt>
      <trkpt lat="45.15279" lon="5.44512">
        <ele>847.79998779297</ele>
        <time>2020-02-24T12:32:58.000Z</time>
      </trkpt>
      <trkpt lat="45.15282" lon="5.4451">
        <ele>847</ele>
        <time>2020-02-24T12:33:01.000Z</time>
      </trkpt>
      <trkpt lat="45.15284" lon="5.4451">
        <ele>846.20001220703</ele>
        <time>2020-02-24T12:33:04.000Z</time>
      </trkpt>
      <trkpt lat="45.15285" lon="5.4451">
        <ele>846</ele>
        <time>2020-02-24T12:33:06.000Z</time>
      </trkpt>
      <trkpt lat="45.15289" lon="5.4451">
        <ele>844.79998779297</ele>
        <time>2020-02-24T12:33:12.000Z</time>
      </trkpt>
      <trkpt lat="45.15292" lon="5.4451">
        <ele>844.20001220703</ele>
        <time>2020-02-24T12:33:15.000Z</time>
      </trkpt>
      <trkpt lat="45.15293" lon="5.44509">
        <ele>844.20001220703</ele>
        <time>2020-02-24T12:33:16.000Z</time>
      </trkpt>
      <trkpt lat="45.15297" lon="5.44508">
        <ele>843.79998779297</ele>
        <time>2020-02-24T12:33:19.000Z</time>
      </trkpt>
      <trkpt lat="45.15299" lon="5.44508">
        <ele>843.59997558594</ele>
        <time>2020-02-24T12:33:20.000Z</time>
      </trkpt>
      <trkpt lat="45.153" lon="5.44508">
        <ele>843.59997558594</ele>
        <time>2020-02-24T12:33:21.000Z</time>
      </trkpt>
      <trkpt lat="45.15303" lon="5.44508">
        <ele>843.40002441406</ele>
        <time>2020-02-24T12:33:23.000Z</time>
      </trkpt>
      <trkpt lat="45.15306" lon="5.44505">
        <ele>842.59997558594</ele>
        <time>2020-02-24T12:33:27.000Z</time>
      </trkpt>
      <trkpt lat="45.15312" lon="5.44503">
        <ele>841.79998779297</ele>
        <time>2020-02-24T12:33:31.000Z</time>
      </trkpt>
      <trkpt lat="45.15314" lon="5.44503">
        <ele>841.79998779297</ele>
        <time>2020-02-24T12:33:32.000Z</time>
      </trkpt>
      <trkpt lat="45.15315" lon="5.44503">
        <ele>841.59997558594</ele>
        <time>2020-02-24T12:33:33.000Z</time>
      </trkpt>
      <trkpt lat="45.15326" lon="5.445">
        <ele>840.40002441406</ele>
        <time>2020-02-24T12:33:40.000Z</time>
      </trkpt>
      <trkpt lat="45.15331" lon="5.44501">
        <ele>840</ele>
        <time>2020-02-24T12:33:44.000Z</time>
      </trkpt>
      <trkpt lat="45.15335" lon="5.44502">
        <ele>839.40002441406</ele>
        <time>2020-02-24T12:33:48.000Z</time>
      </trkpt>
      <trkpt lat="45.15336" lon="5.44501">
        <ele>839.20001220703</ele>
        <time>2020-02-24T12:33:50.000Z</time>
      </trkpt>
      <trkpt lat="45.15339" lon="5.44501">
        <ele>839.20001220703</ele>
        <time>2020-02-24T12:33:53.000Z</time>
      </trkpt>
      <trkpt lat="45.1534" lon="5.445">
        <ele>839</ele>
        <time>2020-02-24T12:33:54.000Z</time>
      </trkpt>
      <trkpt lat="45.15341" lon="5.445">
        <ele>838.40002441406</ele>
        <time>2020-02-24T12:33:57.000Z</time>
      </trkpt>
      <trkpt lat="45.15341" lon="5.44499">
        <ele>838.20001220703</ele>
        <time>2020-02-24T12:33:58.000Z</time>
      </trkpt>
      <trkpt lat="45.15344" lon="5.44499">
        <ele>837.79998779297</ele>
        <time>2020-02-24T12:34:01.000Z</time>
      </trkpt>
      <trkpt lat="45.15345" lon="5.44499">
        <ele>837.59997558594</ele>
        <time>2020-02-24T12:34:03.000Z</time>
      </trkpt>
      <trkpt lat="45.15346" lon="5.44499">
        <ele>837.40002441406</ele>
        <time>2020-02-24T12:34:04.000Z</time>
      </trkpt>
      <trkpt lat="45.15347" lon="5.44499">
        <ele>837.20001220703</ele>
        <time>2020-02-24T12:34:05.000Z</time>
      </trkpt>
      <trkpt lat="45.15352" lon="5.44497">
        <ele>836.79998779297</ele>
        <time>2020-02-24T12:34:08.000Z</time>
      </trkpt>
      <trkpt lat="45.15358" lon="5.44496">
        <ele>836.40002441406</ele>
        <time>2020-02-24T12:34:12.000Z</time>
      </trkpt>
      <trkpt lat="45.15361" lon="5.44496">
        <ele>836.20001220703</ele>
        <time>2020-02-24T12:34:14.000Z</time>
      </trkpt>
      <trkpt lat="45.15363" lon="5.44496">
        <ele>836</ele>
        <time>2020-02-24T12:34:15.000Z</time>
      </trkpt>
      <trkpt lat="45.15373" lon="5.44496">
        <ele>835</ele>
        <time>2020-02-24T12:34:23.000Z</time>
      </trkpt>
      <trkpt lat="45.1538" lon="5.44495">
        <ele>834.79998779297</ele>
        <time>2020-02-24T12:34:27.000Z</time>
      </trkpt>
      <trkpt lat="45.15383" lon="5.44495">
        <ele>834</ele>
        <time>2020-02-24T12:34:30.000Z</time>
      </trkpt>
      <trkpt lat="45.15388" lon="5.44494">
        <ele>833</ele>
        <time>2020-02-24T12:34:35.000Z</time>
      </trkpt>
      <trkpt lat="45.1539" lon="5.44494">
        <ele>832.79998779297</ele>
        <time>2020-02-24T12:34:37.000Z</time>
      </trkpt>
      <trkpt lat="45.15392" lon="5.44494">
        <ele>832.79998779297</ele>
        <time>2020-02-24T12:34:38.000Z</time>
      </trkpt>
      <trkpt lat="45.15395" lon="5.44494">
        <ele>832.40002441406</ele>
        <time>2020-02-24T12:34:40.000Z</time>
      </trkpt>
      <trkpt lat="45.15399" lon="5.44494">
        <ele>832</ele>
        <time>2020-02-24T12:34:43.000Z</time>
      </trkpt>
      <trkpt lat="45.15402" lon="5.44495">
        <ele>831.79998779297</ele>
        <time>2020-02-24T12:34:45.000Z</time>
      </trkpt>
      <trkpt lat="45.15407" lon="5.44497">
        <ele>830.79998779297</ele>
        <time>2020-02-24T12:34:50.000Z</time>
      </trkpt>
      <trkpt lat="45.15415" lon="5.44504">
        <ele>829.59997558594</ele>
        <time>2020-02-24T12:34:58.000Z</time>
      </trkpt>
      <trkpt lat="45.15418" lon="5.44505">
        <ele>829.20001220703</ele>
        <time>2020-02-24T12:35:00.000Z</time>
      </trkpt>
      <trkpt lat="45.15423" lon="5.44508">
        <ele>828.59997558594</ele>
        <time>2020-02-24T12:35:05.000Z</time>
      </trkpt>
      <trkpt lat="45.15428" lon="5.44512">
        <ele>827.59997558594</ele>
        <time>2020-02-24T12:35:11.000Z</time>
      </trkpt>
      <trkpt lat="45.15429" lon="5.44514">
        <ele>827.40002441406</ele>
        <time>2020-02-24T12:35:12.000Z</time>
      </trkpt>
      <trkpt lat="45.1543" lon="5.44515">
        <ele>827.20001220703</ele>
        <time>2020-02-24T12:35:13.000Z</time>
      </trkpt>
      <trkpt lat="45.15431" lon="5.4452">
        <ele>826.20001220703</ele>
        <time>2020-02-24T12:35:16.000Z</time>
      </trkpt>
      <trkpt lat="45.15433" lon="5.44524">
        <ele>826</ele>
        <time>2020-02-24T12:35:20.000Z</time>
      </trkpt>
      <trkpt lat="45.15437" lon="5.44534">
        <ele>825.20001220703</ele>
        <time>2020-02-24T12:35:27.000Z</time>
      </trkpt>
      <trkpt lat="45.15438" lon="5.44535">
        <ele>825.20001220703</ele>
        <time>2020-02-24T12:35:28.000Z</time>
      </trkpt>
      <trkpt lat="45.15438" lon="5.44536">
        <ele>825</ele>
        <time>2020-02-24T12:35:30.000Z</time>
      </trkpt>
      <trkpt lat="45.15439" lon="5.44538">
        <ele>824.59997558594</ele>
        <time>2020-02-24T12:35:32.000Z</time>
      </trkpt>
      <trkpt lat="45.1544" lon="5.44543">
        <ele>824.20001220703</ele>
        <time>2020-02-24T12:35:36.000Z</time>
      </trkpt>
      <trkpt lat="45.15441" lon="5.44547">
        <ele>823.59997558594</ele>
        <time>2020-02-24T12:35:39.000Z</time>
      </trkpt>
      <trkpt lat="45.15442" lon="5.4455">
        <ele>823.40002441406</ele>
        <time>2020-02-24T12:35:42.000Z</time>
      </trkpt>
      <trkpt lat="45.15442" lon="5.44556">
        <ele>823</ele>
        <time>2020-02-24T12:35:46.000Z</time>
      </trkpt>
      <trkpt lat="45.15442" lon="5.44559">
        <ele>822.59997558594</ele>
        <time>2020-02-24T12:35:48.000Z</time>
      </trkpt>
      <trkpt lat="45.15441" lon="5.44564">
        <ele>822</ele>
        <time>2020-02-24T12:35:52.000Z</time>
      </trkpt>
      <trkpt lat="45.1544" lon="5.44569">
        <ele>821.79998779297</ele>
        <time>2020-02-24T12:35:55.000Z</time>
      </trkpt>
      <trkpt lat="45.15439" lon="5.44571">
        <ele>821.79998779297</ele>
        <time>2020-02-24T12:35:56.000Z</time>
      </trkpt>
      <trkpt lat="45.15439" lon="5.44573">
        <ele>821.59997558594</ele>
        <time>2020-02-24T12:35:57.000Z</time>
      </trkpt>
      <trkpt lat="45.15438" lon="5.44575">
        <ele>821.40002441406</ele>
        <time>2020-02-24T12:35:58.000Z</time>
      </trkpt>
      <trkpt lat="45.15435" lon="5.44591">
        <ele>821.40002441406</ele>
        <time>2020-02-24T12:36:08.000Z</time>
      </trkpt>
      <trkpt lat="45.15434" lon="5.44595">
        <ele>821.40002441406</ele>
        <time>2020-02-24T12:36:11.000Z</time>
      </trkpt>
      <trkpt lat="45.15433" lon="5.44597">
        <ele>821.20001220703</ele>
        <time>2020-02-24T12:36:13.000Z</time>
      </trkpt>
      <trkpt lat="45.15434" lon="5.44599">
        <ele>821</ele>
        <time>2020-02-24T12:36:14.000Z</time>
      </trkpt>
      <trkpt lat="45.15434" lon="5.446">
        <ele>820.59997558594</ele>
        <time>2020-02-24T12:36:15.000Z</time>
      </trkpt>
      <trkpt lat="45.15435" lon="5.44601">
        <ele>820.20001220703</ele>
        <time>2020-02-24T12:36:16.000Z</time>
      </trkpt>
      <trkpt lat="45.15436" lon="5.44603">
        <ele>819.79998779297</ele>
        <time>2020-02-24T12:36:17.000Z</time>
      </trkpt>
      <trkpt lat="45.15437" lon="5.44604">
        <ele>819.59997558594</ele>
        <time>2020-02-24T12:36:18.000Z</time>
      </trkpt>
      <trkpt lat="45.15445" lon="5.44611">
        <ele>819</ele>
        <time>2020-02-24T12:36:24.000Z</time>
      </trkpt>
      <trkpt lat="45.15446" lon="5.44615">
        <ele>818.79998779297</ele>
        <time>2020-02-24T12:36:26.000Z</time>
      </trkpt>
      <trkpt lat="45.15449" lon="5.4462">
        <ele>817.59997558594</ele>
        <time>2020-02-24T12:36:30.000Z</time>
      </trkpt>
      <trkpt lat="45.15452" lon="5.44624">
        <ele>816.59997558594</ele>
        <time>2020-02-24T12:36:33.000Z</time>
      </trkpt>
      <trkpt lat="45.15455" lon="5.44628">
        <ele>816</ele>
        <time>2020-02-24T12:36:37.000Z</time>
      </trkpt>
      <trkpt lat="45.15463" lon="5.44639">
        <ele>815.40002441406</ele>
        <time>2020-02-24T12:36:48.000Z</time>
      </trkpt>
      <trkpt lat="45.15464" lon="5.44643">
        <ele>814.79998779297</ele>
        <time>2020-02-24T12:36:50.000Z</time>
      </trkpt>
      <trkpt lat="45.15464" lon="5.44645">
        <ele>814.40002441406</ele>
        <time>2020-02-24T12:36:51.000Z</time>
      </trkpt>
      <trkpt lat="45.15466" lon="5.44651">
        <ele>814</ele>
        <time>2020-02-24T12:36:56.000Z</time>
      </trkpt>
      <trkpt lat="45.15469" lon="5.44658">
        <ele>813.40002441406</ele>
        <time>2020-02-24T12:37:01.000Z</time>
      </trkpt>
      <trkpt lat="45.15471" lon="5.44668">
        <ele>812.20001220703</ele>
        <time>2020-02-24T12:37:08.000Z</time>
      </trkpt>
      <trkpt lat="45.15471" lon="5.44669">
        <ele>812.20001220703</ele>
        <time>2020-02-24T12:37:09.000Z</time>
      </trkpt>
      <trkpt lat="45.15471" lon="5.44672">
        <ele>812</ele>
        <time>2020-02-24T12:37:11.000Z</time>
      </trkpt>
      <trkpt lat="45.15471" lon="5.44676">
        <ele>811.79998779297</ele>
        <time>2020-02-24T12:37:14.000Z</time>
      </trkpt>
      <trkpt lat="45.15472" lon="5.44681">
        <ele>811.20001220703</ele>
        <time>2020-02-24T12:37:17.000Z</time>
      </trkpt>
      <trkpt lat="45.15473" lon="5.44689">
        <ele>810.40002441406</ele>
        <time>2020-02-24T12:37:22.000Z</time>
      </trkpt>
      <trkpt lat="45.15473" lon="5.44691">
        <ele>810</ele>
        <time>2020-02-24T12:37:24.000Z</time>
      </trkpt>
      <trkpt lat="45.15472" lon="5.44696">
        <ele>809.40002441406</ele>
        <time>2020-02-24T12:37:28.000Z</time>
      </trkpt>
      <trkpt lat="45.15472" lon="5.447">
        <ele>809.20001220703</ele>
        <time>2020-02-24T12:37:31.000Z</time>
      </trkpt>
      <trkpt lat="45.15472" lon="5.44702">
        <ele>809</ele>
        <time>2020-02-24T12:37:33.000Z</time>
      </trkpt>
      <trkpt lat="45.1547" lon="5.44706">
        <ele>808.20001220703</ele>
        <time>2020-02-24T12:37:38.000Z</time>
      </trkpt>
      <trkpt lat="45.1547" lon="5.44707">
        <ele>807.79998779297</ele>
        <time>2020-02-24T12:37:39.000Z</time>
      </trkpt>
      <trkpt lat="45.15471" lon="5.44709">
        <ele>807.59997558594</ele>
        <time>2020-02-24T12:37:40.000Z</time>
      </trkpt>
      <trkpt lat="45.15472" lon="5.4471">
        <ele>807.59997558594</ele>
        <time>2020-02-24T12:37:42.000Z</time>
      </trkpt>
      <trkpt lat="45.15471" lon="5.44713">
        <ele>807.20001220703</ele>
        <time>2020-02-24T12:37:45.000Z</time>
      </trkpt>
      <trkpt lat="45.1547" lon="5.44715">
        <ele>807.20001220703</ele>
        <time>2020-02-24T12:37:46.000Z</time>
      </trkpt>
      <trkpt lat="45.1547" lon="5.44715">
        <ele>807</ele>
        <time>2020-02-24T12:37:47.000Z</time>
      </trkpt>
      <trkpt lat="45.15469" lon="5.44718">
        <ele>806.79998779297</ele>
        <time>2020-02-24T12:37:49.000Z</time>
      </trkpt>
      <trkpt lat="45.15468" lon="5.4472">
        <ele>806.79998779297</ele>
        <time>2020-02-24T12:37:52.000Z</time>
      </trkpt>
      <trkpt lat="45.15472" lon="5.4472">
        <ele>806.20001220703</ele>
        <time>2020-02-24T12:37:58.000Z</time>
      </trkpt>
      <trkpt lat="45.1547" lon="5.44721">
        <ele>805.59997558594</ele>
        <time>2020-02-24T12:38:02.000Z</time>
      </trkpt>
      <trkpt lat="45.1547" lon="5.44723">
        <ele>805.20001220703</ele>
        <time>2020-02-24T12:38:04.000Z</time>
      </trkpt>
      <trkpt lat="45.1547" lon="5.44723">
        <ele>805.20001220703</ele>
        <time>2020-02-24T12:38:05.000Z</time>
      </trkpt>
      <trkpt lat="45.15477" lon="5.44721">
        <ele>804.59997558594</ele>
        <time>2020-02-24T12:38:09.000Z</time>
      </trkpt>
      <trkpt lat="45.1548" lon="5.44719">
        <ele>804.40002441406</ele>
        <time>2020-02-24T12:38:10.000Z</time>
      </trkpt>
      <trkpt lat="45.15486" lon="5.44717">
        <ele>804</ele>
        <time>2020-02-24T12:38:12.000Z</time>
      </trkpt>
      <trkpt lat="45.15489" lon="5.44716">
        <ele>803.40002441406</ele>
        <time>2020-02-24T12:38:15.000Z</time>
      </trkpt>
      <trkpt lat="45.1549" lon="5.44716">
        <ele>803.20001220703</ele>
        <time>2020-02-24T12:38:16.000Z</time>
      </trkpt>
      <trkpt lat="45.15496" lon="5.44716">
        <ele>802.59997558594</ele>
        <time>2020-02-24T12:38:21.000Z</time>
      </trkpt>
      <trkpt lat="45.15497" lon="5.44715">
        <ele>802.40002441406</ele>
        <time>2020-02-24T12:38:22.000Z</time>
      </trkpt>
      <trkpt lat="45.15498" lon="5.44715">
        <ele>802.20001220703</ele>
        <time>2020-02-24T12:38:23.000Z</time>
      </trkpt>
      <trkpt lat="45.15499" lon="5.44714">
        <ele>801.79998779297</ele>
        <time>2020-02-24T12:38:25.000Z</time>
      </trkpt>
      <trkpt lat="45.155" lon="5.44718">
        <ele>801.40002441406</ele>
        <time>2020-02-24T12:38:30.000Z</time>
      </trkpt>
      <trkpt lat="45.15501" lon="5.44718">
        <ele>801.40002441406</ele>
        <time>2020-02-24T12:38:31.000Z</time>
      </trkpt>
      <trkpt lat="45.15503" lon="5.44718">
        <ele>801.40002441406</ele>
        <time>2020-02-24T12:38:33.000Z</time>
      </trkpt>
      <trkpt lat="45.15508" lon="5.44718">
        <ele>800.40002441406</ele>
        <time>2020-02-24T12:38:37.000Z</time>
      </trkpt>
      <trkpt lat="45.1551" lon="5.4472">
        <ele>799.20001220703</ele>
        <time>2020-02-24T12:38:40.000Z</time>
      </trkpt>
      <trkpt lat="45.15512" lon="5.44721">
        <ele>799</ele>
        <time>2020-02-24T12:38:42.000Z</time>
      </trkpt>
      <trkpt lat="45.15514" lon="5.44722">
        <ele>799</ele>
        <time>2020-02-24T12:38:44.000Z</time>
      </trkpt>
      <trkpt lat="45.15517" lon="5.44723">
        <ele>798.59997558594</ele>
        <time>2020-02-24T12:38:46.000Z</time>
      </trkpt>
      <trkpt lat="45.15519" lon="5.44723">
        <ele>798.20001220703</ele>
        <time>2020-02-24T12:38:48.000Z</time>
      </trkpt>
      <trkpt lat="45.15521" lon="5.44724">
        <ele>797.59997558594</ele>
        <time>2020-02-24T12:38:50.000Z</time>
      </trkpt>
      <trkpt lat="45.15525" lon="5.44724">
        <ele>797.20001220703</ele>
        <time>2020-02-24T12:38:53.000Z</time>
      </trkpt>
      <trkpt lat="45.15526" lon="5.44725">
        <ele>797</ele>
        <time>2020-02-24T12:38:54.000Z</time>
      </trkpt>
      <trkpt lat="45.15528" lon="5.44725">
        <ele>796.79998779297</ele>
        <time>2020-02-24T12:38:55.000Z</time>
      </trkpt>
      <trkpt lat="45.15535" lon="5.44728">
        <ele>796</ele>
        <time>2020-02-24T12:39:01.000Z</time>
      </trkpt>
      <trkpt lat="45.15537" lon="5.44731">
        <ele>796</ele>
        <time>2020-02-24T12:39:03.000Z</time>
      </trkpt>
      <trkpt lat="45.15538" lon="5.44733">
        <ele>795.20001220703</ele>
        <time>2020-02-24T12:39:06.000Z</time>
      </trkpt>
      <trkpt lat="45.1554" lon="5.44733">
        <ele>795</ele>
        <time>2020-02-24T12:39:07.000Z</time>
      </trkpt>
      <trkpt lat="45.15542" lon="5.44733">
        <ele>794.59997558594</ele>
        <time>2020-02-24T12:39:09.000Z</time>
      </trkpt>
      <trkpt lat="45.15546" lon="5.44734">
        <ele>794.40002441406</ele>
        <time>2020-02-24T12:39:11.000Z</time>
      </trkpt>
      <trkpt lat="45.15551" lon="5.44738">
        <ele>794.20001220703</ele>
        <time>2020-02-24T12:39:15.000Z</time>
      </trkpt>
      <trkpt lat="45.15551" lon="5.44738">
        <ele>793.79998779297</ele>
        <time>2020-02-24T12:39:16.000Z</time>
      </trkpt>
      <trkpt lat="45.15552" lon="5.4474">
        <ele>793.59997558594</ele>
        <time>2020-02-24T12:39:17.000Z</time>
      </trkpt>
      <trkpt lat="45.15552" lon="5.44741">
        <ele>793.20001220703</ele>
        <time>2020-02-24T12:39:18.000Z</time>
      </trkpt>
      <trkpt lat="45.15553" lon="5.44745">
        <ele>793</ele>
        <time>2020-02-24T12:39:21.000Z</time>
      </trkpt>
      <trkpt lat="45.15555" lon="5.44746">
        <ele>792.79998779297</ele>
        <time>2020-02-24T12:39:22.000Z</time>
      </trkpt>
      <trkpt lat="45.15556" lon="5.44748">
        <ele>792.79998779297</ele>
        <time>2020-02-24T12:39:24.000Z</time>
      </trkpt>
      <trkpt lat="45.15557" lon="5.44749">
        <ele>792.59997558594</ele>
        <time>2020-02-24T12:39:25.000Z</time>
      </trkpt>
      <trkpt lat="45.15559" lon="5.4475">
        <ele>792.59997558594</ele>
        <time>2020-02-24T12:39:26.000Z</time>
      </trkpt>
      <trkpt lat="45.1556" lon="5.44752">
        <ele>792.20001220703</ele>
        <time>2020-02-24T12:39:28.000Z</time>
      </trkpt>
      <trkpt lat="45.15562" lon="5.44752">
        <ele>792</ele>
        <time>2020-02-24T12:39:29.000Z</time>
      </trkpt>
      <trkpt lat="45.15563" lon="5.44753">
        <ele>791.79998779297</ele>
        <time>2020-02-24T12:39:30.000Z</time>
      </trkpt>
      <trkpt lat="45.15567" lon="5.44758">
        <ele>790.59997558594</ele>
        <time>2020-02-24T12:39:34.000Z</time>
      </trkpt>
      <trkpt lat="45.15568" lon="5.44761">
        <ele>790.20001220703</ele>
        <time>2020-02-24T12:39:36.000Z</time>
      </trkpt>
      <trkpt lat="45.15568" lon="5.44763">
        <ele>789.79998779297</ele>
        <time>2020-02-24T12:39:38.000Z</time>
      </trkpt>
      <trkpt lat="45.15568" lon="5.44764">
        <ele>789.59997558594</ele>
        <time>2020-02-24T12:39:39.000Z</time>
      </trkpt>
      <trkpt lat="45.15573" lon="5.44767">
        <ele>789.20001220703</ele>
        <time>2020-02-24T12:39:42.000Z</time>
      </trkpt>
      <trkpt lat="45.15573" lon="5.4477">
        <ele>789</ele>
        <time>2020-02-24T12:39:44.000Z</time>
      </trkpt>
      <trkpt lat="45.15573" lon="5.44773">
        <ele>788.79998779297</ele>
        <time>2020-02-24T12:39:46.000Z</time>
      </trkpt>
      <trkpt lat="45.15575" lon="5.44773">
        <ele>788.40002441406</ele>
        <time>2020-02-24T12:39:47.000Z</time>
      </trkpt>
      <trkpt lat="45.15575" lon="5.44774">
        <ele>788.20001220703</ele>
        <time>2020-02-24T12:39:48.000Z</time>
      </trkpt>
      <trkpt lat="45.15577" lon="5.44778">
        <ele>787.20001220703</ele>
        <time>2020-02-24T12:39:51.000Z</time>
      </trkpt>
      <trkpt lat="45.15577" lon="5.4478">
        <ele>787</ele>
        <time>2020-02-24T12:39:53.000Z</time>
      </trkpt>
      <trkpt lat="45.15577" lon="5.44782">
        <ele>786.79998779297</ele>
        <time>2020-02-24T12:39:55.000Z</time>
      </trkpt>
      <trkpt lat="45.15577" lon="5.44782">
        <ele>786.79998779297</ele>
        <time>2020-02-24T12:39:56.000Z</time>
      </trkpt>
      <trkpt lat="45.15578" lon="5.44786">
        <ele>786.59997558594</ele>
        <time>2020-02-24T12:40:01.000Z</time>
      </trkpt>
      <trkpt lat="45.15578" lon="5.44789">
        <ele>786</ele>
        <time>2020-02-24T12:40:03.000Z</time>
      </trkpt>
      <trkpt lat="45.15576" lon="5.44793">
        <ele>785.40002441406</ele>
        <time>2020-02-24T12:40:05.000Z</time>
      </trkpt>
      <trkpt lat="45.15576" lon="5.44796">
        <ele>784.79998779297</ele>
        <time>2020-02-24T12:40:07.000Z</time>
      </trkpt>
      <trkpt lat="45.15576" lon="5.44797">
        <ele>784.79998779297</ele>
        <time>2020-02-24T12:40:08.000Z</time>
      </trkpt>
      <trkpt lat="45.15576" lon="5.448">
        <ele>784.59997558594</ele>
        <time>2020-02-24T12:40:11.000Z</time>
      </trkpt>
      <trkpt lat="45.15575" lon="5.44803">
        <ele>785.40002441406</ele>
        <time>2020-02-24T12:40:15.000Z</time>
      </trkpt>
      <trkpt lat="45.15574" lon="5.44805">
        <ele>785.79998779297</ele>
        <time>2020-02-24T12:40:17.000Z</time>
      </trkpt>
      <trkpt lat="45.15574" lon="5.44806">
        <ele>786.40002441406</ele>
        <time>2020-02-24T12:40:18.000Z</time>
      </trkpt>
      <trkpt lat="45.15574" lon="5.44807">
        <ele>787</ele>
        <time>2020-02-24T12:40:20.000Z</time>
      </trkpt>
      <trkpt lat="45.15574" lon="5.44808">
        <ele>787.20001220703</ele>
        <time>2020-02-24T12:40:21.000Z</time>
      </trkpt>
      <trkpt lat="45.15574" lon="5.44809">
        <ele>787.79998779297</ele>
        <time>2020-02-24T12:40:23.000Z</time>
      </trkpt>
      <trkpt lat="45.15573" lon="5.44811">
        <ele>788.20001220703</ele>
        <time>2020-02-24T12:40:25.000Z</time>
      </trkpt>
      <trkpt lat="45.15573" lon="5.44812">
        <ele>788.40002441406</ele>
        <time>2020-02-24T12:40:26.000Z</time>
      </trkpt>
      <trkpt lat="45.15574" lon="5.44811">
        <ele>788.40002441406</ele>
        <time>2020-02-24T12:40:27.000Z</time>
      </trkpt>
      <trkpt lat="45.15574" lon="5.44811">
        <ele>789</ele>
        <time>2020-02-24T12:40:29.000Z</time>
      </trkpt>
      <trkpt lat="45.15573" lon="5.44812">
        <ele>789.40002441406</ele>
        <time>2020-02-24T12:40:30.000Z</time>
      </trkpt>
      <trkpt lat="45.15575" lon="5.44814">
        <ele>789.59997558594</ele>
        <time>2020-02-24T12:40:34.000Z</time>
      </trkpt>
      <trkpt lat="45.15575" lon="5.44816">
        <ele>789.59997558594</ele>
        <time>2020-02-24T12:40:36.000Z</time>
      </trkpt>
      <trkpt lat="45.15575" lon="5.44817">
        <ele>789.40002441406</ele>
        <time>2020-02-24T12:40:38.000Z</time>
      </trkpt>
      <trkpt lat="45.15572" lon="5.44824">
        <ele>789.40002441406</ele>
        <time>2020-02-24T12:40:43.000Z</time>
      </trkpt>
      <trkpt lat="45.15571" lon="5.44825">
        <ele>789.40002441406</ele>
        <time>2020-02-24T12:40:44.000Z</time>
      </trkpt>
      <trkpt lat="45.15568" lon="5.44831">
        <ele>789.59997558594</ele>
        <time>2020-02-24T12:40:48.000Z</time>
      </trkpt>
      <trkpt lat="45.15567" lon="5.44832">
        <ele>789.79998779297</ele>
        <time>2020-02-24T12:40:50.000Z</time>
      </trkpt>
      <trkpt lat="45.15567" lon="5.44833">
        <ele>790</ele>
        <time>2020-02-24T12:40:51.000Z</time>
      </trkpt>
      <trkpt lat="45.15567" lon="5.44835">
        <ele>790</ele>
        <time>2020-02-24T12:40:52.000Z</time>
      </trkpt>
      <trkpt lat="45.1557" lon="5.44836">
        <ele>790.20001220703</ele>
        <time>2020-02-24T12:40:54.000Z</time>
      </trkpt>
      <trkpt lat="45.15576" lon="5.44841">
        <ele>790.20001220703</ele>
        <time>2020-02-24T12:40:56.000Z</time>
      </trkpt>
      <trkpt lat="45.15579" lon="5.44843">
        <ele>790.20001220703</ele>
        <time>2020-02-24T12:40:58.000Z</time>
      </trkpt>
      <trkpt lat="45.15581" lon="5.44846">
        <ele>790.40002441406</ele>
        <time>2020-02-24T12:41:02.000Z</time>
      </trkpt>
      <trkpt lat="45.1558" lon="5.44849">
        <ele>790.79998779297</ele>
        <time>2020-02-24T12:41:04.000Z</time>
      </trkpt>
      <trkpt lat="45.15577" lon="5.44851">
        <ele>790.79998779297</ele>
        <time>2020-02-24T12:41:05.000Z</time>
      </trkpt>
      <trkpt lat="45.15567" lon="5.44865">
        <ele>791</ele>
        <time>2020-02-24T12:41:09.000Z</time>
      </trkpt>
      <trkpt lat="45.15564" lon="5.44869">
        <ele>791.40002441406</ele>
        <time>2020-02-24T12:41:11.000Z</time>
      </trkpt>
      <trkpt lat="45.15563" lon="5.44871">
        <ele>791.79998779297</ele>
        <time>2020-02-24T12:41:13.000Z</time>
      </trkpt>
      <trkpt lat="45.15566" lon="5.44874">
        <ele>792.20001220703</ele>
        <time>2020-02-24T12:41:15.000Z</time>
      </trkpt>
      <trkpt lat="45.15569" lon="5.44874">
        <ele>792.20001220703</ele>
        <time>2020-02-24T12:41:16.000Z</time>
      </trkpt>
      <trkpt lat="45.15571" lon="5.44874">
        <ele>792.40002441406</ele>
        <time>2020-02-24T12:41:17.000Z</time>
      </trkpt>
      <trkpt lat="45.1557" lon="5.44877">
        <ele>792.79998779297</ele>
        <time>2020-02-24T12:41:19.000Z</time>
      </trkpt>
      <trkpt lat="45.15569" lon="5.44879">
        <ele>792.79998779297</ele>
        <time>2020-02-24T12:41:21.000Z</time>
      </trkpt>
      <trkpt lat="45.15566" lon="5.44881">
        <ele>793</ele>
        <time>2020-02-24T12:41:23.000Z</time>
      </trkpt>
      <trkpt lat="45.15567" lon="5.44887">
        <ele>793.20001220703</ele>
        <time>2020-02-24T12:41:25.000Z</time>
      </trkpt>
      <trkpt lat="45.15568" lon="5.44891">
        <ele>793.40002441406</ele>
        <time>2020-02-24T12:41:28.000Z</time>
      </trkpt>
      <trkpt lat="45.15568" lon="5.44892">
        <ele>793.59997558594</ele>
        <time>2020-02-24T12:41:29.000Z</time>
      </trkpt>
      <trkpt lat="45.15571" lon="5.44895">
        <ele>794.20001220703</ele>
        <time>2020-02-24T12:41:32.000Z</time>
      </trkpt>
      <trkpt lat="45.15571" lon="5.44895">
        <ele>794.40002441406</ele>
        <time>2020-02-24T12:41:33.000Z</time>
      </trkpt>
      <trkpt lat="45.15572" lon="5.44895">
        <ele>794.59997558594</ele>
        <time>2020-02-24T12:41:34.000Z</time>
      </trkpt>
      <trkpt lat="45.15571" lon="5.44896">
        <ele>794.79998779297</ele>
        <time>2020-02-24T12:41:35.000Z</time>
      </trkpt>
      <trkpt lat="45.1557" lon="5.44896">
        <ele>795</ele>
        <time>2020-02-24T12:41:39.000Z</time>
      </trkpt>
      <trkpt lat="45.15569" lon="5.44897">
        <ele>795</ele>
        <time>2020-02-24T12:41:40.000Z</time>
      </trkpt>
      <trkpt lat="45.15567" lon="5.449">
        <ele>795.20001220703</ele>
        <time>2020-02-24T12:41:42.000Z</time>
      </trkpt>
      <trkpt lat="45.15566" lon="5.44901">
        <ele>795.59997558594</ele>
        <time>2020-02-24T12:41:44.000Z</time>
      </trkpt>
      <trkpt lat="45.15565" lon="5.44903">
        <ele>795.79998779297</ele>
        <time>2020-02-24T12:41:45.000Z</time>
      </trkpt>
      <trkpt lat="45.15564" lon="5.44904">
        <ele>796</ele>
        <time>2020-02-24T12:41:47.000Z</time>
      </trkpt>
      <trkpt lat="45.15565" lon="5.44907">
        <ele>796</ele>
        <time>2020-02-24T12:41:49.000Z</time>
      </trkpt>
      <trkpt lat="45.15563" lon="5.44913">
        <ele>796</ele>
        <time>2020-02-24T12:41:51.000Z</time>
      </trkpt>
      <trkpt lat="45.15563" lon="5.44918">
        <ele>796.79998779297</ele>
        <time>2020-02-24T12:41:54.000Z</time>
      </trkpt>
      <trkpt lat="45.15564" lon="5.44918">
        <ele>797.20001220703</ele>
        <time>2020-02-24T12:41:55.000Z</time>
      </trkpt>
      <trkpt lat="45.15566" lon="5.44919">
        <ele>797.40002441406</ele>
        <time>2020-02-24T12:41:57.000Z</time>
      </trkpt>
      <trkpt lat="45.15564" lon="5.4492">
        <ele>797.40002441406</ele>
        <time>2020-02-24T12:41:58.000Z</time>
      </trkpt>
      <trkpt lat="45.15564" lon="5.44921">
        <ele>797.79998779297</ele>
        <time>2020-02-24T12:42:00.000Z</time>
      </trkpt>
      <trkpt lat="45.15564" lon="5.44921">
        <ele>798</ele>
        <time>2020-02-24T12:42:01.000Z</time>
      </trkpt>
      <trkpt lat="45.15565" lon="5.4492">
        <ele>798.20001220703</ele>
        <time>2020-02-24T12:42:02.000Z</time>
      </trkpt>
      <trkpt lat="45.15568" lon="5.44919">
        <ele>798.59997558594</ele>
        <time>2020-02-24T12:42:03.000Z</time>
      </trkpt>
      <trkpt lat="45.15567" lon="5.4492">
        <ele>798.79998779297</ele>
        <time>2020-02-24T12:42:04.000Z</time>
      </trkpt>
      <trkpt lat="45.15567" lon="5.44921">
        <ele>799</ele>
        <time>2020-02-24T12:42:05.000Z</time>
      </trkpt>
      <trkpt lat="45.15567" lon="5.44922">
        <ele>799.20001220703</ele>
        <time>2020-02-24T12:42:06.000Z</time>
      </trkpt>
      <trkpt lat="45.15568" lon="5.44926">
        <ele>799.40002441406</ele>
        <time>2020-02-24T12:42:09.000Z</time>
      </trkpt>
      <trkpt lat="45.15567" lon="5.44927">
        <ele>799.59997558594</ele>
        <time>2020-02-24T12:42:10.000Z</time>
      </trkpt>
      <trkpt lat="45.15569" lon="5.44928">
        <ele>799.79998779297</ele>
        <time>2020-02-24T12:42:11.000Z</time>
      </trkpt>
      <trkpt lat="45.15571" lon="5.4493">
        <ele>800</ele>
        <time>2020-02-24T12:42:13.000Z</time>
      </trkpt>
      <trkpt lat="45.15572" lon="5.44931">
        <ele>800</ele>
        <time>2020-02-24T12:42:14.000Z</time>
      </trkpt>
      <trkpt lat="45.15573" lon="5.44932">
        <ele>800.20001220703</ele>
        <time>2020-02-24T12:42:15.000Z</time>
      </trkpt>
      <trkpt lat="45.15577" lon="5.44933">
        <ele>800.40002441406</ele>
        <time>2020-02-24T12:42:18.000Z</time>
      </trkpt>
      <trkpt lat="45.15578" lon="5.44934">
        <ele>800.40002441406</ele>
        <time>2020-02-24T12:42:19.000Z</time>
      </trkpt>
      <trkpt lat="45.15582" lon="5.44934">
        <ele>800.40002441406</ele>
        <time>2020-02-24T12:42:20.000Z</time>
      </trkpt>
      <trkpt lat="45.15584" lon="5.44938">
        <ele>801.20001220703</ele>
        <time>2020-02-24T12:42:23.000Z</time>
      </trkpt>
      <trkpt lat="45.15584" lon="5.44939">
        <ele>801.59997558594</ele>
        <time>2020-02-24T12:42:24.000Z</time>
      </trkpt>
      <trkpt lat="45.15584" lon="5.44942">
        <ele>802.40002441406</ele>
        <time>2020-02-24T12:42:26.000Z</time>
      </trkpt>
      <trkpt lat="45.15582" lon="5.44947">
        <ele>803.59997558594</ele>
        <time>2020-02-24T12:42:29.000Z</time>
      </trkpt>
      <trkpt lat="45.1558" lon="5.44949">
        <ele>804</ele>
        <time>2020-02-24T12:42:31.000Z</time>
      </trkpt>
      <trkpt lat="45.15581" lon="5.4495">
        <ele>804</ele>
        <time>2020-02-24T12:42:32.000Z</time>
      </trkpt>
      <trkpt lat="45.1558" lon="5.44956">
        <ele>804.20001220703</ele>
        <time>2020-02-24T12:42:34.000Z</time>
      </trkpt>
      <trkpt lat="45.15582" lon="5.44961">
        <ele>804.20001220703</ele>
        <time>2020-02-24T12:42:37.000Z</time>
      </trkpt>
      <trkpt lat="45.15582" lon="5.44961">
        <ele>804</ele>
        <time>2020-02-24T12:42:38.000Z</time>
      </trkpt>
      <trkpt lat="45.15577" lon="5.44961">
        <ele>804</ele>
        <time>2020-02-24T12:42:41.000Z</time>
      </trkpt>
      <trkpt lat="45.15575" lon="5.44961">
        <ele>804</ele>
        <time>2020-02-24T12:42:43.000Z</time>
      </trkpt>
      <trkpt lat="45.15575" lon="5.44961">
        <ele>804</ele>
        <time>2020-02-24T12:42:44.000Z</time>
      </trkpt>
      <trkpt lat="45.15574" lon="5.44961">
        <ele>804.40002441406</ele>
        <time>2020-02-24T12:42:46.000Z</time>
      </trkpt>
      <trkpt lat="45.15572" lon="5.44961">
        <ele>804.59997558594</ele>
        <time>2020-02-24T12:42:47.000Z</time>
      </trkpt>
      <trkpt lat="45.15571" lon="5.4496">
        <ele>804.79998779297</ele>
        <time>2020-02-24T12:42:48.000Z</time>
      </trkpt>
      <trkpt lat="45.15569" lon="5.44961">
        <ele>805.59997558594</ele>
        <time>2020-02-24T12:42:51.000Z</time>
      </trkpt>
      <trkpt lat="45.15566" lon="5.44962">
        <ele>806.40002441406</ele>
        <time>2020-02-24T12:42:53.000Z</time>
      </trkpt>
      <trkpt lat="45.15565" lon="5.44963">
        <ele>806.59997558594</ele>
        <time>2020-02-24T12:42:55.000Z</time>
      </trkpt>
      <trkpt lat="45.15565" lon="5.44963">
        <ele>806.79998779297</ele>
        <time>2020-02-24T12:42:56.000Z</time>
      </trkpt>
      <trkpt lat="45.15564" lon="5.44964">
        <ele>806.79998779297</ele>
        <time>2020-02-24T12:42:57.000Z</time>
      </trkpt>
      <trkpt lat="45.15563" lon="5.44965">
        <ele>806.79998779297</ele>
        <time>2020-02-24T12:42:58.000Z</time>
      </trkpt>
      <trkpt lat="45.15561" lon="5.44966">
        <ele>807</ele>
        <time>2020-02-24T12:43:00.000Z</time>
      </trkpt>
      <trkpt lat="45.15561" lon="5.44966">
        <ele>807.40002441406</ele>
        <time>2020-02-24T12:43:01.000Z</time>
      </trkpt>
      <trkpt lat="45.15561" lon="5.44968">
        <ele>807.79998779297</ele>
        <time>2020-02-24T12:43:03.000Z</time>
      </trkpt>
      <trkpt lat="45.15561" lon="5.44969">
        <ele>808</ele>
        <time>2020-02-24T12:43:04.000Z</time>
      </trkpt>
      <trkpt lat="45.15561" lon="5.4497">
        <ele>808.40002441406</ele>
        <time>2020-02-24T12:43:06.000Z</time>
      </trkpt>
      <trkpt lat="45.15562" lon="5.44971">
        <ele>808.79998779297</ele>
        <time>2020-02-24T12:43:08.000Z</time>
      </trkpt>
      <trkpt lat="45.15561" lon="5.44976">
        <ele>809.79998779297</ele>
        <time>2020-02-24T12:43:12.000Z</time>
      </trkpt>
      <trkpt lat="45.1556" lon="5.44978">
        <ele>810</ele>
        <time>2020-02-24T12:43:14.000Z</time>
      </trkpt>
      <trkpt lat="45.1556" lon="5.4498">
        <ele>810.20001220703</ele>
        <time>2020-02-24T12:43:15.000Z</time>
      </trkpt>
      <trkpt lat="45.15558" lon="5.44984">
        <ele>810.40002441406</ele>
        <time>2020-02-24T12:43:17.000Z</time>
      </trkpt>
      <trkpt lat="45.15557" lon="5.44987">
        <ele>810.79998779297</ele>
        <time>2020-02-24T12:43:18.000Z</time>
      </trkpt>
      <trkpt lat="45.15559" lon="5.4499">
        <ele>811.40002441406</ele>
        <time>2020-02-24T12:43:20.000Z</time>
      </trkpt>
      <trkpt lat="45.15562" lon="5.44992">
        <ele>811.79998779297</ele>
        <time>2020-02-24T12:43:22.000Z</time>
      </trkpt>
      <trkpt lat="45.15561" lon="5.44993">
        <ele>812</ele>
        <time>2020-02-24T12:43:23.000Z</time>
      </trkpt>
      <trkpt lat="45.15561" lon="5.44993">
        <ele>812.20001220703</ele>
        <time>2020-02-24T12:43:24.000Z</time>
      </trkpt>
      <trkpt lat="45.15559" lon="5.44995">
        <ele>812.20001220703</ele>
        <time>2020-02-24T12:43:26.000Z</time>
      </trkpt>
      <trkpt lat="45.15557" lon="5.44999">
        <ele>812.59997558594</ele>
        <time>2020-02-24T12:43:29.000Z</time>
      </trkpt>
      <trkpt lat="45.15556" lon="5.45001">
        <ele>813</ele>
        <time>2020-02-24T12:43:31.000Z</time>
      </trkpt>
      <trkpt lat="45.15556" lon="5.45004">
        <ele>813.20001220703</ele>
        <time>2020-02-24T12:43:33.000Z</time>
      </trkpt>
      <trkpt lat="45.15557" lon="5.45006">
        <ele>813.40002441406</ele>
        <time>2020-02-24T12:43:35.000Z</time>
      </trkpt>
      <trkpt lat="45.15558" lon="5.45009">
        <ele>813.79998779297</ele>
        <time>2020-02-24T12:43:37.000Z</time>
      </trkpt>
      <trkpt lat="45.15557" lon="5.45016">
        <ele>814</ele>
        <time>2020-02-24T12:43:41.000Z</time>
      </trkpt>
      <trkpt lat="45.15559" lon="5.45019">
        <ele>814</ele>
        <time>2020-02-24T12:43:43.000Z</time>
      </trkpt>
      <trkpt lat="45.1556" lon="5.4502">
        <ele>814.20001220703</ele>
        <time>2020-02-24T12:43:44.000Z</time>
      </trkpt>
      <trkpt lat="45.15561" lon="5.45021">
        <ele>815</ele>
        <time>2020-02-24T12:43:46.000Z</time>
      </trkpt>
      <trkpt lat="45.15562" lon="5.45022">
        <ele>815.40002441406</ele>
        <time>2020-02-24T12:43:48.000Z</time>
      </trkpt>
      <trkpt lat="45.15567" lon="5.45022">
        <ele>815.59997558594</ele>
        <time>2020-02-24T12:43:50.000Z</time>
      </trkpt>
      <trkpt lat="45.15571" lon="5.45022">
        <ele>816</ele>
        <time>2020-02-24T12:43:52.000Z</time>
      </trkpt>
      <trkpt lat="45.15573" lon="5.45022">
        <ele>816.20001220703</ele>
        <time>2020-02-24T12:43:54.000Z</time>
      </trkpt>
      <trkpt lat="45.15574" lon="5.45022">
        <ele>816.40002441406</ele>
        <time>2020-02-24T12:43:55.000Z</time>
      </trkpt>
      <trkpt lat="45.15574" lon="5.45025">
        <ele>816.79998779297</ele>
        <time>2020-02-24T12:43:57.000Z</time>
      </trkpt>
      <trkpt lat="45.15574" lon="5.45026">
        <ele>817</ele>
        <time>2020-02-24T12:43:58.000Z</time>
      </trkpt>
      <trkpt lat="45.15574" lon="5.45026">
        <ele>817.40002441406</ele>
        <time>2020-02-24T12:43:59.000Z</time>
      </trkpt>
      <trkpt lat="45.15574" lon="5.45028">
        <ele>817.40002441406</ele>
        <time>2020-02-24T12:44:00.000Z</time>
      </trkpt>
      <trkpt lat="45.15575" lon="5.4503">
        <ele>817.59997558594</ele>
        <time>2020-02-24T12:44:02.000Z</time>
      </trkpt>
      <trkpt lat="45.15576" lon="5.45031">
        <ele>818</ele>
        <time>2020-02-24T12:44:04.000Z</time>
      </trkpt>
      <trkpt lat="45.15577" lon="5.45034">
        <ele>818.40002441406</ele>
        <time>2020-02-24T12:44:06.000Z</time>
      </trkpt>
      <trkpt lat="45.15576" lon="5.45036">
        <ele>818.59997558594</ele>
        <time>2020-02-24T12:44:08.000Z</time>
      </trkpt>
      <trkpt lat="45.15575" lon="5.45037">
        <ele>819</ele>
        <time>2020-02-24T12:44:09.000Z</time>
      </trkpt>
      <trkpt lat="45.15574" lon="5.45038">
        <ele>819.20001220703</ele>
        <time>2020-02-24T12:44:10.000Z</time>
      </trkpt>
      <trkpt lat="45.15575" lon="5.45039">
        <ele>819.40002441406</ele>
        <time>2020-02-24T12:44:11.000Z</time>
      </trkpt>
      <trkpt lat="45.15579" lon="5.45045">
        <ele>819.79998779297</ele>
        <time>2020-02-24T12:44:14.000Z</time>
      </trkpt>
      <trkpt lat="45.15581" lon="5.45045">
        <ele>819.79998779297</ele>
        <time>2020-02-24T12:44:15.000Z</time>
      </trkpt>
      <trkpt lat="45.15581" lon="5.45046">
        <ele>820</ele>
        <time>2020-02-24T12:44:16.000Z</time>
      </trkpt>
      <trkpt lat="45.15582" lon="5.45046">
        <ele>820.40002441406</ele>
        <time>2020-02-24T12:44:17.000Z</time>
      </trkpt>
      <trkpt lat="45.15582" lon="5.45049">
        <ele>820.79998779297</ele>
        <time>2020-02-24T12:44:19.000Z</time>
      </trkpt>
      <trkpt lat="45.15582" lon="5.45049">
        <ele>821.20001220703</ele>
        <time>2020-02-24T12:44:20.000Z</time>
      </trkpt>
      <trkpt lat="45.1558" lon="5.45051">
        <ele>822</ele>
        <time>2020-02-24T12:44:23.000Z</time>
      </trkpt>
      <trkpt lat="45.15579" lon="5.45052">
        <ele>822.40002441406</ele>
        <time>2020-02-24T12:44:25.000Z</time>
      </trkpt>
      <trkpt lat="45.15575" lon="5.45058">
        <ele>823.20001220703</ele>
        <time>2020-02-24T12:44:28.000Z</time>
      </trkpt>
      <trkpt lat="45.1557" lon="5.45059">
        <ele>824.40002441406</ele>
        <time>2020-02-24T12:44:31.000Z</time>
      </trkpt>
      <trkpt lat="45.15569" lon="5.45061">
        <ele>824.79998779297</ele>
        <time>2020-02-24T12:44:33.000Z</time>
      </trkpt>
      <trkpt lat="45.15567" lon="5.45063">
        <ele>824.79998779297</ele>
        <time>2020-02-24T12:44:35.000Z</time>
      </trkpt>
      <trkpt lat="45.15566" lon="5.45065">
        <ele>824.79998779297</ele>
        <time>2020-02-24T12:44:37.000Z</time>
      </trkpt>
      <trkpt lat="45.15566" lon="5.45066">
        <ele>824.79998779297</ele>
        <time>2020-02-24T12:44:38.000Z</time>
      </trkpt>
      <trkpt lat="45.15565" lon="5.45069">
        <ele>825</ele>
        <time>2020-02-24T12:44:41.000Z</time>
      </trkpt>
      <trkpt lat="45.15576" lon="5.45069">
        <ele>825.20001220703</ele>
        <time>2020-02-24T12:44:44.000Z</time>
      </trkpt>
      <trkpt lat="45.15577" lon="5.45068">
        <ele>825.40002441406</ele>
        <time>2020-02-24T12:44:47.000Z</time>
      </trkpt>
      <trkpt lat="45.15579" lon="5.45068">
        <ele>825.59997558594</ele>
        <time>2020-02-24T12:44:49.000Z</time>
      </trkpt>
      <trkpt lat="45.15582" lon="5.45068">
        <ele>825.79998779297</ele>
        <time>2020-02-24T12:44:51.000Z</time>
      </trkpt>
      <trkpt lat="45.15584" lon="5.45069">
        <ele>826.40002441406</ele>
        <time>2020-02-24T12:44:53.000Z</time>
      </trkpt>
      <trkpt lat="45.15584" lon="5.45069">
        <ele>826.59997558594</ele>
        <time>2020-02-24T12:44:54.000Z</time>
      </trkpt>
      <trkpt lat="45.15583" lon="5.45069">
        <ele>826.59997558594</ele>
        <time>2020-02-24T12:44:55.000Z</time>
      </trkpt>
      <trkpt lat="45.15581" lon="5.45071">
        <ele>827.20001220703</ele>
        <time>2020-02-24T12:44:58.000Z</time>
      </trkpt>
      <trkpt lat="45.1558" lon="5.45072">
        <ele>827.20001220703</ele>
        <time>2020-02-24T12:44:59.000Z</time>
      </trkpt>
      <trkpt lat="45.15577" lon="5.45074">
        <ele>827.59997558594</ele>
        <time>2020-02-24T12:45:01.000Z</time>
      </trkpt>
      <trkpt lat="45.15576" lon="5.45075">
        <ele>827.79998779297</ele>
        <time>2020-02-24T12:45:02.000Z</time>
      </trkpt>
      <trkpt lat="45.15573" lon="5.45078">
        <ele>828.20001220703</ele>
        <time>2020-02-24T12:45:04.000Z</time>
      </trkpt>
      <trkpt lat="45.15573" lon="5.45079">
        <ele>828.40002441406</ele>
        <time>2020-02-24T12:45:05.000Z</time>
      </trkpt>
      <trkpt lat="45.15571" lon="5.45082">
        <ele>828.59997558594</ele>
        <time>2020-02-24T12:45:06.000Z</time>
      </trkpt>
      <trkpt lat="45.1557" lon="5.45083">
        <ele>828.79998779297</ele>
        <time>2020-02-24T12:45:07.000Z</time>
      </trkpt>
      <trkpt lat="45.15569" lon="5.45084">
        <ele>829</ele>
        <time>2020-02-24T12:45:08.000Z</time>
      </trkpt>
      <trkpt lat="45.15569" lon="5.45087">
        <ele>829.40002441406</ele>
        <time>2020-02-24T12:45:10.000Z</time>
      </trkpt>
      <trkpt lat="45.15568" lon="5.4509">
        <ele>829.59997558594</ele>
        <time>2020-02-24T12:45:12.000Z</time>
      </trkpt>
      <trkpt lat="45.15568" lon="5.45092">
        <ele>829.79998779297</ele>
        <time>2020-02-24T12:45:13.000Z</time>
      </trkpt>
      <trkpt lat="45.15576" lon="5.45098">
        <ele>830.20001220703</ele>
        <time>2020-02-24T12:45:16.000Z</time>
      </trkpt>
      <trkpt lat="45.15579" lon="5.451">
        <ele>830.79998779297</ele>
        <time>2020-02-24T12:45:19.000Z</time>
      </trkpt>
      <trkpt lat="45.1558" lon="5.451">
        <ele>831.20001220703</ele>
        <time>2020-02-24T12:45:20.000Z</time>
      </trkpt>
      <trkpt lat="45.15581" lon="5.45101">
        <ele>831.59997558594</ele>
        <time>2020-02-24T12:45:21.000Z</time>
      </trkpt>
      <trkpt lat="45.15583" lon="5.45104">
        <ele>832.20001220703</ele>
        <time>2020-02-24T12:45:23.000Z</time>
      </trkpt>
      <trkpt lat="45.15581" lon="5.45108">
        <ele>832.79998779297</ele>
        <time>2020-02-24T12:45:26.000Z</time>
      </trkpt>
      <trkpt lat="45.15581" lon="5.45111">
        <ele>833.20001220703</ele>
        <time>2020-02-24T12:45:28.000Z</time>
      </trkpt>
      <trkpt lat="45.15578" lon="5.45118">
        <ele>833.59997558594</ele>
        <time>2020-02-24T12:45:31.000Z</time>
      </trkpt>
      <trkpt lat="45.15578" lon="5.4512">
        <ele>833.40002441406</ele>
        <time>2020-02-24T12:45:32.000Z</time>
      </trkpt>
      <trkpt lat="45.15589" lon="5.45122">
        <ele>833.20001220703</ele>
        <time>2020-02-24T12:45:35.000Z</time>
      </trkpt>
      <trkpt lat="45.15591" lon="5.45123">
        <ele>833.20001220703</ele>
        <time>2020-02-24T12:45:36.000Z</time>
      </trkpt>
      <trkpt lat="45.15592" lon="5.45124">
        <ele>833.20001220703</ele>
        <time>2020-02-24T12:45:37.000Z</time>
      </trkpt>
      <trkpt lat="45.15595" lon="5.45126">
        <ele>834.20001220703</ele>
        <time>2020-02-24T12:45:40.000Z</time>
      </trkpt>
      <trkpt lat="45.15598" lon="5.45131">
        <ele>835</ele>
        <time>2020-02-24T12:45:44.000Z</time>
      </trkpt>
      <trkpt lat="45.15601" lon="5.45135">
        <ele>835.40002441406</ele>
        <time>2020-02-24T12:45:47.000Z</time>
      </trkpt>
      <trkpt lat="45.15599" lon="5.4514">
        <ele>835.79998779297</ele>
        <time>2020-02-24T12:45:51.000Z</time>
      </trkpt>
      <trkpt lat="45.15599" lon="5.45144">
        <ele>836</ele>
        <time>2020-02-24T12:45:54.000Z</time>
      </trkpt>
      <trkpt lat="45.15601" lon="5.45147">
        <ele>836</ele>
        <time>2020-02-24T12:45:57.000Z</time>
      </trkpt>
      <trkpt lat="45.15601" lon="5.45152">
        <ele>836.20001220703</ele>
        <time>2020-02-24T12:46:00.000Z</time>
      </trkpt>
      <trkpt lat="45.15602" lon="5.45154">
        <ele>836.59997558594</ele>
        <time>2020-02-24T12:46:02.000Z</time>
      </trkpt>
      <trkpt lat="45.15601" lon="5.45156">
        <ele>837</ele>
        <time>2020-02-24T12:46:04.000Z</time>
      </trkpt>
      <trkpt lat="45.156" lon="5.45159">
        <ele>837.40002441406</ele>
        <time>2020-02-24T12:46:07.000Z</time>
      </trkpt>
      <trkpt lat="45.156" lon="5.45159">
        <ele>837.59997558594</ele>
        <time>2020-02-24T12:46:08.000Z</time>
      </trkpt>
      <trkpt lat="45.156" lon="5.45159">
        <ele>837.79998779297</ele>
        <time>2020-02-24T12:46:09.000Z</time>
      </trkpt>
      <trkpt lat="45.156" lon="5.4516">
        <ele>838</ele>
        <time>2020-02-24T12:46:10.000Z</time>
      </trkpt>
      <trkpt lat="45.15604" lon="5.45165">
        <ele>838.79998779297</ele>
        <time>2020-02-24T12:46:14.000Z</time>
      </trkpt>
      <trkpt lat="45.15602" lon="5.45166">
        <ele>838.79998779297</ele>
        <time>2020-02-24T12:46:15.000Z</time>
      </trkpt>
      <trkpt lat="45.15605" lon="5.45169">
        <ele>839.20001220703</ele>
        <time>2020-02-24T12:46:17.000Z</time>
      </trkpt>
      <trkpt lat="45.15603" lon="5.45176">
        <ele>839.59997558594</ele>
        <time>2020-02-24T12:46:21.000Z</time>
      </trkpt>
      <trkpt lat="45.15603" lon="5.45178">
        <ele>839.59997558594</ele>
        <time>2020-02-24T12:46:23.000Z</time>
      </trkpt>
      <trkpt lat="45.15602" lon="5.45178">
        <ele>839.79998779297</ele>
        <time>2020-02-24T12:46:24.000Z</time>
      </trkpt>
      <trkpt lat="45.15602" lon="5.4518">
        <ele>839.79998779297</ele>
        <time>2020-02-24T12:46:26.000Z</time>
      </trkpt>
      <trkpt lat="45.15601" lon="5.4518">
        <ele>840</ele>
        <time>2020-02-24T12:46:27.000Z</time>
      </trkpt>
      <trkpt lat="45.15602" lon="5.45179">
        <ele>840.20001220703</ele>
        <time>2020-02-24T12:46:29.000Z</time>
      </trkpt>
      <trkpt lat="45.15606" lon="5.45176">
        <ele>840.79998779297</ele>
        <time>2020-02-24T12:46:32.000Z</time>
      </trkpt>
      <trkpt lat="45.15612" lon="5.45173">
        <ele>841</ele>
        <time>2020-02-24T12:46:34.000Z</time>
      </trkpt>
      <trkpt lat="45.15622" lon="5.45163">
        <ele>840.79998779297</ele>
        <time>2020-02-24T12:46:41.000Z</time>
      </trkpt>
      <trkpt lat="45.15626" lon="5.45159">
        <ele>840.79998779297</ele>
        <time>2020-02-24T12:46:45.000Z</time>
      </trkpt>
      <trkpt lat="45.15626" lon="5.45158">
        <ele>840.59997558594</ele>
        <time>2020-02-24T12:46:46.000Z</time>
      </trkpt>
      <trkpt lat="45.15626" lon="5.45157">
        <ele>840.59997558594</ele>
        <time>2020-02-24T12:46:47.000Z</time>
      </trkpt>
      <trkpt lat="45.15625" lon="5.45157">
        <ele>840.59997558594</ele>
        <time>2020-02-24T12:46:48.000Z</time>
      </trkpt>
      <trkpt lat="45.15617" lon="5.45159">
        <ele>840.79998779297</ele>
        <time>2020-02-24T12:46:50.000Z</time>
      </trkpt>
      <trkpt lat="45.15614" lon="5.45161">
        <ele>840.79998779297</ele>
        <time>2020-02-24T12:46:52.000Z</time>
      </trkpt>
      <trkpt lat="45.15611" lon="5.45163">
        <ele>840.59997558594</ele>
        <time>2020-02-24T12:46:54.000Z</time>
      </trkpt>
      <trkpt lat="45.1561" lon="5.45168">
        <ele>840.59997558594</ele>
        <time>2020-02-24T12:46:56.000Z</time>
      </trkpt>
      <trkpt lat="45.15609" lon="5.45169">
        <ele>840.59997558594</ele>
        <time>2020-02-24T12:46:57.000Z</time>
      </trkpt>
      <trkpt lat="45.15609" lon="5.4517">
        <ele>840.59997558594</ele>
        <time>2020-02-24T12:46:58.000Z</time>
      </trkpt>
      <trkpt lat="45.15609" lon="5.45172">
        <ele>840.59997558594</ele>
        <time>2020-02-24T12:46:59.000Z</time>
      </trkpt>
      <trkpt lat="45.15609" lon="5.45178">
        <ele>840.79998779297</ele>
        <time>2020-02-24T12:47:03.000Z</time>
      </trkpt>
      <trkpt lat="45.1561" lon="5.45179">
        <ele>840.79998779297</ele>
        <time>2020-02-24T12:47:04.000Z</time>
      </trkpt>
      <trkpt lat="45.15609" lon="5.4518">
        <ele>840.79998779297</ele>
        <time>2020-02-24T12:47:05.000Z</time>
      </trkpt>
      <trkpt lat="45.1561" lon="5.45185">
        <ele>840.40002441406</ele>
        <time>2020-02-24T12:47:07.000Z</time>
      </trkpt>
      <trkpt lat="45.15611" lon="5.45189">
        <ele>840</ele>
        <time>2020-02-24T12:47:09.000Z</time>
      </trkpt>
      <trkpt lat="45.15611" lon="5.45189">
        <ele>839.59997558594</ele>
        <time>2020-02-24T12:47:10.000Z</time>
      </trkpt>
      <trkpt lat="45.15612" lon="5.45193">
        <ele>839.40002441406</ele>
        <time>2020-02-24T12:47:12.000Z</time>
      </trkpt>
      <trkpt lat="45.15611" lon="5.45195">
        <ele>839.20001220703</ele>
        <time>2020-02-24T12:47:13.000Z</time>
      </trkpt>
      <trkpt lat="45.15606" lon="5.45202">
        <ele>839.40002441406</ele>
        <time>2020-02-24T12:47:16.000Z</time>
      </trkpt>
      <trkpt lat="45.15602" lon="5.45209">
        <ele>839.40002441406</ele>
        <time>2020-02-24T12:47:19.000Z</time>
      </trkpt>
      <trkpt lat="45.15603" lon="5.45212">
        <ele>839.59997558594</ele>
        <time>2020-02-24T12:47:22.000Z</time>
      </trkpt>
      <trkpt lat="45.15604" lon="5.45213">
        <ele>839.59997558594</ele>
        <time>2020-02-24T12:47:24.000Z</time>
      </trkpt>
      <trkpt lat="45.15601" lon="5.45222">
        <ele>838.79998779297</ele>
        <time>2020-02-24T12:47:29.000Z</time>
      </trkpt>
      <trkpt lat="45.15601" lon="5.45225">
        <ele>838.59997558594</ele>
        <time>2020-02-24T12:47:31.000Z</time>
      </trkpt>
      <trkpt lat="45.15596" lon="5.45231">
        <ele>838.40002441406</ele>
        <time>2020-02-24T12:47:35.000Z</time>
      </trkpt>
      <trkpt lat="45.15597" lon="5.45233">
        <ele>838.40002441406</ele>
        <time>2020-02-24T12:47:38.000Z</time>
      </trkpt>
      <trkpt lat="45.15598" lon="5.45234">
        <ele>838.59997558594</ele>
        <time>2020-02-24T12:47:39.000Z</time>
      </trkpt>
      <trkpt lat="45.15599" lon="5.45235">
        <ele>838.79998779297</ele>
        <time>2020-02-24T12:47:41.000Z</time>
      </trkpt>
      <trkpt lat="45.15598" lon="5.45236">
        <ele>839</ele>
        <time>2020-02-24T12:47:42.000Z</time>
      </trkpt>
      <trkpt lat="45.15599" lon="5.45237">
        <ele>839.20001220703</ele>
        <time>2020-02-24T12:47:43.000Z</time>
      </trkpt>
      <trkpt lat="45.15605" lon="5.45239">
        <ele>839.79998779297</ele>
        <time>2020-02-24T12:47:46.000Z</time>
      </trkpt>
      <trkpt lat="45.15611" lon="5.45238">
        <ele>840.20001220703</ele>
        <time>2020-02-24T12:47:48.000Z</time>
      </trkpt>
      <trkpt lat="45.15612" lon="5.4524">
        <ele>840.59997558594</ele>
        <time>2020-02-24T12:47:51.000Z</time>
      </trkpt>
      <trkpt lat="45.15611" lon="5.45244">
        <ele>840.79998779297</ele>
        <time>2020-02-24T12:47:53.000Z</time>
      </trkpt>
      <trkpt lat="45.15615" lon="5.45243">
        <ele>841</ele>
        <time>2020-02-24T12:47:54.000Z</time>
      </trkpt>
      <trkpt lat="45.15622" lon="5.45242">
        <ele>841</ele>
        <time>2020-02-24T12:47:55.000Z</time>
      </trkpt>
      <trkpt lat="45.15632" lon="5.4524">
        <ele>842.20001220703</ele>
        <time>2020-02-24T12:47:59.000Z</time>
      </trkpt>
      <trkpt lat="45.15634" lon="5.45241">
        <ele>842.40002441406</ele>
        <time>2020-02-24T12:48:02.000Z</time>
      </trkpt>
      <trkpt lat="45.1564" lon="5.45241">
        <ele>842.79998779297</ele>
        <time>2020-02-24T12:48:04.000Z</time>
      </trkpt>
      <trkpt lat="45.15643" lon="5.45241">
        <ele>843.40002441406</ele>
        <time>2020-02-24T12:48:06.000Z</time>
      </trkpt>
      <trkpt lat="45.1564" lon="5.45246">
        <ele>843.59997558594</ele>
        <time>2020-02-24T12:48:08.000Z</time>
      </trkpt>
      <trkpt lat="45.15637" lon="5.45251">
        <ele>843.59997558594</ele>
        <time>2020-02-24T12:48:09.000Z</time>
      </trkpt>
      <trkpt lat="45.15633" lon="5.45255">
        <ele>843.59997558594</ele>
        <time>2020-02-24T12:48:10.000Z</time>
      </trkpt>
      <trkpt lat="45.15625" lon="5.45267">
        <ele>844</ele>
        <time>2020-02-24T12:48:14.000Z</time>
      </trkpt>
      <trkpt lat="45.15627" lon="5.45268">
        <ele>844.59997558594</ele>
        <time>2020-02-24T12:48:16.000Z</time>
      </trkpt>
      <trkpt lat="45.15627" lon="5.4527">
        <ele>845.20001220703</ele>
        <time>2020-02-24T12:48:19.000Z</time>
      </trkpt>
      <trkpt lat="45.15626" lon="5.45273">
        <ele>845.79998779297</ele>
        <time>2020-02-24T12:48:21.000Z</time>
      </trkpt>
      <trkpt lat="45.15625" lon="5.45275">
        <ele>846</ele>
        <time>2020-02-24T12:48:23.000Z</time>
      </trkpt>
      <trkpt lat="45.15623" lon="5.45279">
        <ele>846.20001220703</ele>
        <time>2020-02-24T12:48:24.000Z</time>
      </trkpt>
      <trkpt lat="45.15619" lon="5.45287">
        <ele>846.59997558594</ele>
        <time>2020-02-24T12:48:28.000Z</time>
      </trkpt>
      <trkpt lat="45.15618" lon="5.45289">
        <ele>846.79998779297</ele>
        <time>2020-02-24T12:48:29.000Z</time>
      </trkpt>
      <trkpt lat="45.15619" lon="5.45289">
        <ele>847</ele>
        <time>2020-02-24T12:48:30.000Z</time>
      </trkpt>
      <trkpt lat="45.15619" lon="5.45289">
        <ele>847.20001220703</ele>
        <time>2020-02-24T12:48:31.000Z</time>
      </trkpt>
      <trkpt lat="45.1562" lon="5.45291">
        <ele>847.40002441406</ele>
        <time>2020-02-24T12:48:33.000Z</time>
      </trkpt>
      <trkpt lat="45.15622" lon="5.45292">
        <ele>848</ele>
        <time>2020-02-24T12:48:36.000Z</time>
      </trkpt>
      <trkpt lat="45.15624" lon="5.45295">
        <ele>848.59997558594</ele>
        <time>2020-02-24T12:48:38.000Z</time>
      </trkpt>
      <trkpt lat="45.15625" lon="5.45298">
        <ele>848.79998779297</ele>
        <time>2020-02-24T12:48:39.000Z</time>
      </trkpt>
      <trkpt lat="45.15627" lon="5.45299">
        <ele>849.20001220703</ele>
        <time>2020-02-24T12:48:41.000Z</time>
      </trkpt>
      <trkpt lat="45.15629" lon="5.45301">
        <ele>849.20001220703</ele>
        <time>2020-02-24T12:48:42.000Z</time>
      </trkpt>
      <trkpt lat="45.1563" lon="5.45302">
        <ele>849.40002441406</ele>
        <time>2020-02-24T12:48:44.000Z</time>
      </trkpt>
      <trkpt lat="45.15629" lon="5.45307">
        <ele>849.79998779297</ele>
        <time>2020-02-24T12:48:47.000Z</time>
      </trkpt>
      <trkpt lat="45.15632" lon="5.45311">
        <ele>850.20001220703</ele>
        <time>2020-02-24T12:48:51.000Z</time>
      </trkpt>
      <trkpt lat="45.15632" lon="5.45311">
        <ele>850.40002441406</ele>
        <time>2020-02-24T12:48:52.000Z</time>
      </trkpt>
      <trkpt lat="45.15632" lon="5.45313">
        <ele>850.59997558594</ele>
        <time>2020-02-24T12:48:54.000Z</time>
      </trkpt>
      <trkpt lat="45.15632" lon="5.45313">
        <ele>850.59997558594</ele>
        <time>2020-02-24T12:48:55.000Z</time>
      </trkpt>
      <trkpt lat="45.15631" lon="5.45315">
        <ele>850.59997558594</ele>
        <time>2020-02-24T12:48:56.000Z</time>
      </trkpt>
      <trkpt lat="45.15628" lon="5.45318">
        <ele>850.79998779297</ele>
        <time>2020-02-24T12:48:59.000Z</time>
      </trkpt>
      <trkpt lat="45.15628" lon="5.45319">
        <ele>851</ele>
        <time>2020-02-24T12:49:01.000Z</time>
      </trkpt>
      <trkpt lat="45.15627" lon="5.45319">
        <ele>851.20001220703</ele>
        <time>2020-02-24T12:49:02.000Z</time>
      </trkpt>
      <trkpt lat="45.1563" lon="5.45321">
        <ele>851.40002441406</ele>
        <time>2020-02-24T12:49:03.000Z</time>
      </trkpt>
      <trkpt lat="45.15629" lon="5.45323">
        <ele>852.20001220703</ele>
        <time>2020-02-24T12:49:06.000Z</time>
      </trkpt>
      <trkpt lat="45.15629" lon="5.45323">
        <ele>852.40002441406</ele>
        <time>2020-02-24T12:49:07.000Z</time>
      </trkpt>
      <trkpt lat="45.15626" lon="5.45325">
        <ele>852.40002441406</ele>
        <time>2020-02-24T12:49:08.000Z</time>
      </trkpt>
      <trkpt lat="45.15625" lon="5.45326">
        <ele>853</ele>
        <time>2020-02-24T12:49:11.000Z</time>
      </trkpt>
      <trkpt lat="45.15625" lon="5.45326">
        <ele>853.40002441406</ele>
        <time>2020-02-24T12:49:13.000Z</time>
      </trkpt>
      <trkpt lat="45.15625" lon="5.45327">
        <ele>853.40002441406</ele>
        <time>2020-02-24T12:49:14.000Z</time>
      </trkpt>
      <trkpt lat="45.15625" lon="5.45328">
        <ele>853.40002441406</ele>
        <time>2020-02-24T12:49:15.000Z</time>
      </trkpt>
      <trkpt lat="45.15625" lon="5.45328">
        <ele>853.40002441406</ele>
        <time>2020-02-24T12:49:16.000Z</time>
      </trkpt>
      <trkpt lat="45.15628" lon="5.45327">
        <ele>853</ele>
        <time>2020-02-24T12:49:19.000Z</time>
      </trkpt>
      <trkpt lat="45.15629" lon="5.45327">
        <ele>852.79998779297</ele>
        <time>2020-02-24T12:49:21.000Z</time>
      </trkpt>
      <trkpt lat="45.15628" lon="5.45326">
        <ele>853</ele>
        <time>2020-02-24T12:49:23.000Z</time>
      </trkpt>
      <trkpt lat="45.15628" lon="5.45327">
        <ele>852.79998779297</ele>
        <time>2020-02-24T12:49:25.000Z</time>
      </trkpt>
      <trkpt lat="45.15627" lon="5.45328">
        <ele>852.79998779297</ele>
        <time>2020-02-24T12:49:28.000Z</time>
      </trkpt>
      <trkpt lat="45.15627" lon="5.4533">
        <ele>852.59997558594</ele>
        <time>2020-02-24T12:49:29.000Z</time>
      </trkpt>
      <trkpt lat="45.15627" lon="5.45332">
        <ele>852.59997558594</ele>
        <time>2020-02-24T12:49:31.000Z</time>
      </trkpt>
      <trkpt lat="45.15624" lon="5.45336">
        <ele>852.59997558594</ele>
        <time>2020-02-24T12:49:33.000Z</time>
      </trkpt>
      <trkpt lat="45.15623" lon="5.45338">
        <ele>852.59997558594</ele>
        <time>2020-02-24T12:49:34.000Z</time>
      </trkpt>
      <trkpt lat="45.15636" lon="5.45328">
        <ele>852.79998779297</ele>
        <time>2020-02-24T12:49:39.000Z</time>
      </trkpt>
      <trkpt lat="45.15637" lon="5.45323">
        <ele>852.79998779297</ele>
        <time>2020-02-24T12:49:40.000Z</time>
      </trkpt>
      <trkpt lat="45.15638" lon="5.45323">
        <ele>852.79998779297</ele>
        <time>2020-02-24T12:49:42.000Z</time>
      </trkpt>
      <trkpt lat="45.15638" lon="5.45324">
        <ele>853</ele>
        <time>2020-02-24T12:49:44.000Z</time>
      </trkpt>
      <trkpt lat="45.15637" lon="5.45326">
        <ele>853.40002441406</ele>
        <time>2020-02-24T12:49:46.000Z</time>
      </trkpt>
      <trkpt lat="45.15635" lon="5.45327">
        <ele>853.40002441406</ele>
        <time>2020-02-24T12:49:47.000Z</time>
      </trkpt>
      <trkpt lat="45.15633" lon="5.45329">
        <ele>853.79998779297</ele>
        <time>2020-02-24T12:49:50.000Z</time>
      </trkpt>
      <trkpt lat="45.15633" lon="5.45329">
        <ele>854</ele>
        <time>2020-02-24T12:49:51.000Z</time>
      </trkpt>
      <trkpt lat="45.15635" lon="5.4533">
        <ele>854.59997558594</ele>
        <time>2020-02-24T12:49:53.000Z</time>
      </trkpt>
      <trkpt lat="45.15633" lon="5.4533">
        <ele>855.20001220703</ele>
        <time>2020-02-24T12:49:55.000Z</time>
      </trkpt>
      <trkpt lat="45.15632" lon="5.4533">
        <ele>855.59997558594</ele>
        <time>2020-02-24T12:49:57.000Z</time>
      </trkpt>
      <trkpt lat="45.1563" lon="5.45331">
        <ele>855.79998779297</ele>
        <time>2020-02-24T12:49:58.000Z</time>
      </trkpt>
      <trkpt lat="45.15629" lon="5.45332">
        <ele>856</ele>
        <time>2020-02-24T12:49:59.000Z</time>
      </trkpt>
      <trkpt lat="45.15627" lon="5.45335">
        <ele>856.79998779297</ele>
        <time>2020-02-24T12:50:02.000Z</time>
      </trkpt>
      <trkpt lat="45.15626" lon="5.45336">
        <ele>857</ele>
        <time>2020-02-24T12:50:03.000Z</time>
      </trkpt>
      <trkpt lat="45.15626" lon="5.45336">
        <ele>857.20001220703</ele>
        <time>2020-02-24T12:50:04.000Z</time>
      </trkpt>
      <trkpt lat="45.15626" lon="5.45337">
        <ele>857.59997558594</ele>
        <time>2020-02-24T12:50:06.000Z</time>
      </trkpt>
      <trkpt lat="45.15625" lon="5.45338">
        <ele>858</ele>
        <time>2020-02-24T12:50:08.000Z</time>
      </trkpt>
      <trkpt lat="45.15626" lon="5.45339">
        <ele>858.40002441406</ele>
        <time>2020-02-24T12:50:10.000Z</time>
      </trkpt>
      <trkpt lat="45.15624" lon="5.45352">
        <ele>859</ele>
        <time>2020-02-24T12:50:12.000Z</time>
      </trkpt>
      <trkpt lat="45.15621" lon="5.4536">
        <ele>859.59997558594</ele>
        <time>2020-02-24T12:50:14.000Z</time>
      </trkpt>
      <trkpt lat="45.1562" lon="5.45363">
        <ele>859.79998779297</ele>
        <time>2020-02-24T12:50:15.000Z</time>
      </trkpt>
      <trkpt lat="45.15619" lon="5.45367">
        <ele>860.20001220703</ele>
        <time>2020-02-24T12:50:17.000Z</time>
      </trkpt>
      <trkpt lat="45.15621" lon="5.45369">
        <ele>860.59997558594</ele>
        <time>2020-02-24T12:50:20.000Z</time>
      </trkpt>
      <trkpt lat="45.15621" lon="5.45369">
        <ele>860.79998779297</ele>
        <time>2020-02-24T12:50:22.000Z</time>
      </trkpt>
      <trkpt lat="45.15618" lon="5.45371">
        <ele>861.40002441406</ele>
        <time>2020-02-24T12:50:24.000Z</time>
      </trkpt>
      <trkpt lat="45.15612" lon="5.45371">
        <ele>862.20001220703</ele>
        <time>2020-02-24T12:50:29.000Z</time>
      </trkpt>
      <trkpt lat="45.15611" lon="5.4537">
        <ele>862.40002441406</ele>
        <time>2020-02-24T12:50:30.000Z</time>
      </trkpt>
      <trkpt lat="45.1561" lon="5.45371">
        <ele>863</ele>
        <time>2020-02-24T12:50:31.000Z</time>
      </trkpt>
      <trkpt lat="45.15609" lon="5.45371">
        <ele>863.40002441406</ele>
        <time>2020-02-24T12:50:33.000Z</time>
      </trkpt>
      <trkpt lat="45.15609" lon="5.45372">
        <ele>863.79998779297</ele>
        <time>2020-02-24T12:50:35.000Z</time>
      </trkpt>
      <trkpt lat="45.15607" lon="5.45376">
        <ele>864.40002441406</ele>
        <time>2020-02-24T12:50:38.000Z</time>
      </trkpt>
      <trkpt lat="45.15607" lon="5.45377">
        <ele>864.40002441406</ele>
        <time>2020-02-24T12:50:39.000Z</time>
      </trkpt>
      <trkpt lat="45.15606" lon="5.45375">
        <ele>864.79998779297</ele>
        <time>2020-02-24T12:50:42.000Z</time>
      </trkpt>
      <trkpt lat="45.15606" lon="5.45373">
        <ele>865</ele>
        <time>2020-02-24T12:50:43.000Z</time>
      </trkpt>
      <trkpt lat="45.1561" lon="5.45372">
        <ele>865.20001220703</ele>
        <time>2020-02-24T12:50:47.000Z</time>
      </trkpt>
      <trkpt lat="45.15612" lon="5.45371">
        <ele>865.20001220703</ele>
        <time>2020-02-24T12:50:48.000Z</time>
      </trkpt>
      <trkpt lat="45.15617" lon="5.45368">
        <ele>865.20001220703</ele>
        <time>2020-02-24T12:50:50.000Z</time>
      </trkpt>
      <trkpt lat="45.1562" lon="5.45367">
        <ele>865.40002441406</ele>
        <time>2020-02-24T12:50:51.000Z</time>
      </trkpt>
      <trkpt lat="45.1562" lon="5.45367">
        <ele>865.59997558594</ele>
        <time>2020-02-24T12:50:52.000Z</time>
      </trkpt>
      <trkpt lat="45.1562" lon="5.45367">
        <ele>865.59997558594</ele>
        <time>2020-02-24T12:50:53.000Z</time>
      </trkpt>
      <trkpt lat="45.1562" lon="5.45365">
        <ele>865.79998779297</ele>
        <time>2020-02-24T12:50:55.000Z</time>
      </trkpt>
      <trkpt lat="45.15623" lon="5.45362">
        <ele>866</ele>
        <time>2020-02-24T12:50:56.000Z</time>
      </trkpt>
      <trkpt lat="45.15624" lon="5.45362">
        <ele>866.20001220703</ele>
        <time>2020-02-24T12:50:57.000Z</time>
      </trkpt>
      <trkpt lat="45.15625" lon="5.45363">
        <ele>866.59997558594</ele>
        <time>2020-02-24T12:50:59.000Z</time>
      </trkpt>
      <trkpt lat="45.15626" lon="5.45364">
        <ele>866.79998779297</ele>
        <time>2020-02-24T12:51:00.000Z</time>
      </trkpt>
      <trkpt lat="45.15623" lon="5.45366">
        <ele>867.20001220703</ele>
        <time>2020-02-24T12:51:02.000Z</time>
      </trkpt>
      <trkpt lat="45.15623" lon="5.45367">
        <ele>867.40002441406</ele>
        <time>2020-02-24T12:51:04.000Z</time>
      </trkpt>
      <trkpt lat="45.15622" lon="5.45367">
        <ele>867.40002441406</ele>
        <time>2020-02-24T12:51:05.000Z</time>
      </trkpt>
      <trkpt lat="45.15622" lon="5.45367">
        <ele>867.59997558594</ele>
        <time>2020-02-24T12:51:06.000Z</time>
      </trkpt>
      <trkpt lat="45.15622" lon="5.45362">
        <ele>868.20001220703</ele>
        <time>2020-02-24T12:51:09.000Z</time>
      </trkpt>
      <trkpt lat="45.15621" lon="5.45364">
        <ele>868.59997558594</ele>
        <time>2020-02-24T12:51:10.000Z</time>
      </trkpt>
      <trkpt lat="45.1562" lon="5.45366">
        <ele>868.79998779297</ele>
        <time>2020-02-24T12:51:11.000Z</time>
      </trkpt>
      <trkpt lat="45.15617" lon="5.45367">
        <ele>869.20001220703</ele>
        <time>2020-02-24T12:51:14.000Z</time>
      </trkpt>
      <trkpt lat="45.15613" lon="5.45371">
        <ele>869.59997558594</ele>
        <time>2020-02-24T12:51:18.000Z</time>
      </trkpt>
      <trkpt lat="45.15613" lon="5.45371">
        <ele>869.79998779297</ele>
        <time>2020-02-24T12:51:19.000Z</time>
      </trkpt>
      <trkpt lat="45.15613" lon="5.45372">
        <ele>870.20001220703</ele>
        <time>2020-02-24T12:51:21.000Z</time>
      </trkpt>
      <trkpt lat="45.15611" lon="5.45375">
        <ele>870.79998779297</ele>
        <time>2020-02-24T12:51:23.000Z</time>
      </trkpt>
      <trkpt lat="45.1561" lon="5.45377">
        <ele>870.79998779297</ele>
        <time>2020-02-24T12:51:24.000Z</time>
      </trkpt>
      <trkpt lat="45.1561" lon="5.45378">
        <ele>871</ele>
        <time>2020-02-24T12:51:25.000Z</time>
      </trkpt>
      <trkpt lat="45.15609" lon="5.45384">
        <ele>872</ele>
        <time>2020-02-24T12:51:29.000Z</time>
      </trkpt>
      <trkpt lat="45.15607" lon="5.45391">
        <ele>872.59997558594</ele>
        <time>2020-02-24T12:51:32.000Z</time>
      </trkpt>
      <trkpt lat="45.15606" lon="5.45394">
        <ele>873</ele>
        <time>2020-02-24T12:51:35.000Z</time>
      </trkpt>
      <trkpt lat="45.15604" lon="5.45395">
        <ele>873.40002441406</ele>
        <time>2020-02-24T12:51:36.000Z</time>
      </trkpt>
      <trkpt lat="45.15604" lon="5.45395">
        <ele>873.59997558594</ele>
        <time>2020-02-24T12:51:37.000Z</time>
      </trkpt>
      <trkpt lat="45.15602" lon="5.45396">
        <ele>874</ele>
        <time>2020-02-24T12:51:39.000Z</time>
      </trkpt>
      <trkpt lat="45.156" lon="5.45396">
        <ele>874.59997558594</ele>
        <time>2020-02-24T12:51:42.000Z</time>
      </trkpt>
      <trkpt lat="45.15599" lon="5.45396">
        <ele>874.79998779297</ele>
        <time>2020-02-24T12:51:43.000Z</time>
      </trkpt>
      <trkpt lat="45.15597" lon="5.45394">
        <ele>875.59997558594</ele>
        <time>2020-02-24T12:51:46.000Z</time>
      </trkpt>
      <trkpt lat="45.15595" lon="5.45395">
        <ele>875.59997558594</ele>
        <time>2020-02-24T12:51:47.000Z</time>
      </trkpt>
      <trkpt lat="45.15596" lon="5.45395">
        <ele>875.79998779297</ele>
        <time>2020-02-24T12:51:49.000Z</time>
      </trkpt>
      <trkpt lat="45.15599" lon="5.45396">
        <ele>876.20001220703</ele>
        <time>2020-02-24T12:51:52.000Z</time>
      </trkpt>
      <trkpt lat="45.15602" lon="5.45398">
        <ele>876.40002441406</ele>
        <time>2020-02-24T12:51:54.000Z</time>
      </trkpt>
      <trkpt lat="45.15603" lon="5.45401">
        <ele>876.59997558594</ele>
        <time>2020-02-24T12:51:56.000Z</time>
      </trkpt>
      <trkpt lat="45.15604" lon="5.45402">
        <ele>877.20001220703</ele>
        <time>2020-02-24T12:51:59.000Z</time>
      </trkpt>
      <trkpt lat="45.15605" lon="5.45404">
        <ele>877.20001220703</ele>
        <time>2020-02-24T12:52:02.000Z</time>
      </trkpt>
      <trkpt lat="45.15605" lon="5.45406">
        <ele>877.20001220703</ele>
        <time>2020-02-24T12:52:03.000Z</time>
      </trkpt>
      <trkpt lat="45.15603" lon="5.45409">
        <ele>877.40002441406</ele>
        <time>2020-02-24T12:52:07.000Z</time>
      </trkpt>
      <trkpt lat="45.15603" lon="5.45411">
        <ele>877.79998779297</ele>
        <time>2020-02-24T12:52:09.000Z</time>
      </trkpt>
      <trkpt lat="45.15607" lon="5.45411">
        <ele>878.20001220703</ele>
        <time>2020-02-24T12:52:11.000Z</time>
      </trkpt>
      <trkpt lat="45.15607" lon="5.45414">
        <ele>878.79998779297</ele>
        <time>2020-02-24T12:52:16.000Z</time>
      </trkpt>
      <trkpt lat="45.15606" lon="5.45414">
        <ele>879</ele>
        <time>2020-02-24T12:52:17.000Z</time>
      </trkpt>
      <trkpt lat="45.15605" lon="5.45416">
        <ele>879.20001220703</ele>
        <time>2020-02-24T12:52:19.000Z</time>
      </trkpt>
      <trkpt lat="45.15605" lon="5.45418">
        <ele>879.59997558594</ele>
        <time>2020-02-24T12:52:21.000Z</time>
      </trkpt>
      <trkpt lat="45.15604" lon="5.45421">
        <ele>879.79998779297</ele>
        <time>2020-02-24T12:52:23.000Z</time>
      </trkpt>
      <trkpt lat="45.15604" lon="5.4542">
        <ele>880</ele>
        <time>2020-02-24T12:52:24.000Z</time>
      </trkpt>
      <trkpt lat="45.15602" lon="5.4542">
        <ele>880.59997558594</ele>
        <time>2020-02-24T12:52:28.000Z</time>
      </trkpt>
      <trkpt lat="45.15602" lon="5.4542">
        <ele>880.59997558594</ele>
        <time>2020-02-24T12:52:29.000Z</time>
      </trkpt>
      <trkpt lat="45.15601" lon="5.4542">
        <ele>880.79998779297</ele>
        <time>2020-02-24T12:52:30.000Z</time>
      </trkpt>
      <trkpt lat="45.156" lon="5.4542">
        <ele>880.59997558594</ele>
        <time>2020-02-24T12:52:31.000Z</time>
      </trkpt>
      <trkpt lat="45.15596" lon="5.45428">
        <ele>881.20001220703</ele>
        <time>2020-02-24T12:52:36.000Z</time>
      </trkpt>
      <trkpt lat="45.15595" lon="5.45429">
        <ele>881.40002441406</ele>
        <time>2020-02-24T12:52:37.000Z</time>
      </trkpt>
      <trkpt lat="45.15597" lon="5.45428">
        <ele>881.59997558594</ele>
        <time>2020-02-24T12:52:39.000Z</time>
      </trkpt>
      <trkpt lat="45.15597" lon="5.4543">
        <ele>882.20001220703</ele>
        <time>2020-02-24T12:52:42.000Z</time>
      </trkpt>
      <trkpt lat="45.15597" lon="5.4543">
        <ele>882.40002441406</ele>
        <time>2020-02-24T12:52:43.000Z</time>
      </trkpt>
      <trkpt lat="45.15597" lon="5.45431">
        <ele>882.59997558594</ele>
        <time>2020-02-24T12:52:44.000Z</time>
      </trkpt>
      <trkpt lat="45.15596" lon="5.45432">
        <ele>882.79998779297</ele>
        <time>2020-02-24T12:52:45.000Z</time>
      </trkpt>
      <trkpt lat="45.15595" lon="5.45435">
        <ele>883.20001220703</ele>
        <time>2020-02-24T12:52:49.000Z</time>
      </trkpt>
      <trkpt lat="45.15596" lon="5.45436">
        <ele>883.59997558594</ele>
        <time>2020-02-24T12:52:50.000Z</time>
      </trkpt>
      <trkpt lat="45.15598" lon="5.45438">
        <ele>884.40002441406</ele>
        <time>2020-02-24T12:52:52.000Z</time>
      </trkpt>
      <trkpt lat="45.15604" lon="5.45439">
        <ele>884.79998779297</ele>
        <time>2020-02-24T12:52:54.000Z</time>
      </trkpt>
      <trkpt lat="45.15603" lon="5.4544">
        <ele>885.40002441406</ele>
        <time>2020-02-24T12:52:56.000Z</time>
      </trkpt>
      <trkpt lat="45.15601" lon="5.45441">
        <ele>885.40002441406</ele>
        <time>2020-02-24T12:52:57.000Z</time>
      </trkpt>
      <trkpt lat="45.15598" lon="5.45444">
        <ele>885.20001220703</ele>
        <time>2020-02-24T12:52:59.000Z</time>
      </trkpt>
      <trkpt lat="45.15598" lon="5.45445">
        <ele>885.40002441406</ele>
        <time>2020-02-24T12:53:01.000Z</time>
      </trkpt>
      <trkpt lat="45.15598" lon="5.45445">
        <ele>885.40002441406</ele>
        <time>2020-02-24T12:53:02.000Z</time>
      </trkpt>
      <trkpt lat="45.15601" lon="5.45443">
        <ele>886.20001220703</ele>
        <time>2020-02-24T12:53:05.000Z</time>
      </trkpt>
      <trkpt lat="45.15601" lon="5.45443">
        <ele>886.40002441406</ele>
        <time>2020-02-24T12:53:06.000Z</time>
      </trkpt>
      <trkpt lat="45.15601" lon="5.45444">
        <ele>886.40002441406</ele>
        <time>2020-02-24T12:53:07.000Z</time>
      </trkpt>
      <trkpt lat="45.15603" lon="5.45442">
        <ele>886.40002441406</ele>
        <time>2020-02-24T12:53:11.000Z</time>
      </trkpt>
      <trkpt lat="45.15604" lon="5.45441">
        <ele>886.40002441406</ele>
        <time>2020-02-24T12:53:12.000Z</time>
      </trkpt>
      <trkpt lat="45.15604" lon="5.4544">
        <ele>886.40002441406</ele>
        <time>2020-02-24T12:53:13.000Z</time>
      </trkpt>
      <trkpt lat="45.15604" lon="5.4544">
        <ele>886.40002441406</ele>
        <time>2020-02-24T12:53:15.000Z</time>
      </trkpt>
      <trkpt lat="45.15604" lon="5.4544">
        <ele>886.59997558594</ele>
        <time>2020-02-24T12:53:17.000Z</time>
      </trkpt>
      <trkpt lat="45.15607" lon="5.4544">
        <ele>886.79998779297</ele>
        <time>2020-02-24T12:53:21.000Z</time>
      </trkpt>
      <trkpt lat="45.15607" lon="5.45442">
        <ele>887</ele>
        <time>2020-02-24T12:53:22.000Z</time>
      </trkpt>
      <trkpt lat="45.15608" lon="5.45443">
        <ele>887.40002441406</ele>
        <time>2020-02-24T12:53:24.000Z</time>
      </trkpt>
      <trkpt lat="45.15609" lon="5.45443">
        <ele>887.59997558594</ele>
        <time>2020-02-24T12:53:25.000Z</time>
      </trkpt>
      <trkpt lat="45.15609" lon="5.45443">
        <ele>887.59997558594</ele>
        <time>2020-02-24T12:53:26.000Z</time>
      </trkpt>
      <trkpt lat="45.15606" lon="5.45442">
        <ele>887.79998779297</ele>
        <time>2020-02-24T12:53:32.000Z</time>
      </trkpt>
      <trkpt lat="45.15603" lon="5.45445">
        <ele>888</ele>
        <time>2020-02-24T12:53:34.000Z</time>
      </trkpt>
      <trkpt lat="45.156" lon="5.45449">
        <ele>888</ele>
        <time>2020-02-24T12:53:38.000Z</time>
      </trkpt>
      <trkpt lat="45.156" lon="5.4545">
        <ele>888</ele>
        <time>2020-02-24T12:53:39.000Z</time>
      </trkpt>
      <trkpt lat="45.15599" lon="5.45459">
        <ele>888.40002441406</ele>
        <time>2020-02-24T12:53:43.000Z</time>
      </trkpt>
      <trkpt lat="45.15597" lon="5.45462">
        <ele>888.59997558594</ele>
        <time>2020-02-24T12:53:44.000Z</time>
      </trkpt>
      <trkpt lat="45.15591" lon="5.45475">
        <ele>888.79998779297</ele>
        <time>2020-02-24T12:53:50.000Z</time>
      </trkpt>
      <trkpt lat="45.1559" lon="5.45477">
        <ele>888.79998779297</ele>
        <time>2020-02-24T12:53:51.000Z</time>
      </trkpt>
      <trkpt lat="45.15588" lon="5.45483">
        <ele>889</ele>
        <time>2020-02-24T12:53:54.000Z</time>
      </trkpt>
      <trkpt lat="45.15589" lon="5.45486">
        <ele>889.20001220703</ele>
        <time>2020-02-24T12:53:56.000Z</time>
      </trkpt>
      <trkpt lat="45.15589" lon="5.4549">
        <ele>889.59997558594</ele>
        <time>2020-02-24T12:53:58.000Z</time>
      </trkpt>
      <trkpt lat="45.15589" lon="5.4549">
        <ele>889.79998779297</ele>
        <time>2020-02-24T12:53:59.000Z</time>
      </trkpt>
      <trkpt lat="45.15592" lon="5.45487">
        <ele>890</ele>
        <time>2020-02-24T12:54:06.000Z</time>
      </trkpt>
      <trkpt lat="45.15593" lon="5.45489">
        <ele>890</ele>
        <time>2020-02-24T12:54:09.000Z</time>
      </trkpt>
      <trkpt lat="45.15591" lon="5.45491">
        <ele>890</ele>
        <time>2020-02-24T12:54:11.000Z</time>
      </trkpt>
      <trkpt lat="45.15592" lon="5.45491">
        <ele>890</ele>
        <time>2020-02-24T12:54:12.000Z</time>
      </trkpt>
      <trkpt lat="45.15588" lon="5.45478">
        <ele>890</ele>
        <time>2020-02-24T12:54:17.000Z</time>
      </trkpt>
      <trkpt lat="45.15588" lon="5.45476">
        <ele>890</ele>
        <time>2020-02-24T12:54:18.000Z</time>
      </trkpt>
      <trkpt lat="45.15589" lon="5.45473">
        <ele>890</ele>
        <time>2020-02-24T12:54:19.000Z</time>
      </trkpt>
      <trkpt lat="45.15595" lon="5.45465">
        <ele>890.59997558594</ele>
        <time>2020-02-24T12:54:23.000Z</time>
      </trkpt>
      <trkpt lat="45.15597" lon="5.45463">
        <ele>891</ele>
        <time>2020-02-24T12:54:25.000Z</time>
      </trkpt>
      <trkpt lat="45.15598" lon="5.45463">
        <ele>891</ele>
        <time>2020-02-24T12:54:28.000Z</time>
      </trkpt>
      <trkpt lat="45.15601" lon="5.45465">
        <ele>890.79998779297</ele>
        <time>2020-02-24T12:54:30.000Z</time>
      </trkpt>
      <trkpt lat="45.15602" lon="5.45468">
        <ele>891</ele>
        <time>2020-02-24T12:54:33.000Z</time>
      </trkpt>
      <trkpt lat="45.15609" lon="5.45475">
        <ele>891.40002441406</ele>
        <time>2020-02-24T12:54:37.000Z</time>
      </trkpt>
      <trkpt lat="45.15616" lon="5.45476">
        <ele>891.59997558594</ele>
        <time>2020-02-24T12:54:39.000Z</time>
      </trkpt>
      <trkpt lat="45.15621" lon="5.4548">
        <ele>892</ele>
        <time>2020-02-24T12:54:41.000Z</time>
      </trkpt>
      <trkpt lat="45.15625" lon="5.45483">
        <ele>892.40002441406</ele>
        <time>2020-02-24T12:54:44.000Z</time>
      </trkpt>
      <trkpt lat="45.15633" lon="5.45482">
        <ele>892.79998779297</ele>
        <time>2020-02-24T12:54:46.000Z</time>
      </trkpt>
      <trkpt lat="45.15645" lon="5.45487">
        <ele>893</ele>
        <time>2020-02-24T12:54:50.000Z</time>
      </trkpt>
      <trkpt lat="45.15646" lon="5.45492">
        <ele>893.20001220703</ele>
        <time>2020-02-24T12:54:52.000Z</time>
      </trkpt>
      <trkpt lat="45.15644" lon="5.45496">
        <ele>893.20001220703</ele>
        <time>2020-02-24T12:54:55.000Z</time>
      </trkpt>
      <trkpt lat="45.15644" lon="5.45496">
        <ele>893.20001220703</ele>
        <time>2020-02-24T12:54:56.000Z</time>
      </trkpt>
      <trkpt lat="45.15639" lon="5.45499">
        <ele>893</ele>
        <time>2020-02-24T12:54:58.000Z</time>
      </trkpt>
      <trkpt lat="45.15637" lon="5.45501">
        <ele>892.59997558594</ele>
        <time>2020-02-24T12:55:00.000Z</time>
      </trkpt>
      <trkpt lat="45.15635" lon="5.45504">
        <ele>893</ele>
        <time>2020-02-24T12:55:03.000Z</time>
      </trkpt>
      <trkpt lat="45.15631" lon="5.45503">
        <ele>893.40002441406</ele>
        <time>2020-02-24T12:55:05.000Z</time>
      </trkpt>
      <trkpt lat="45.15613" lon="5.45497">
        <ele>892.59997558594</ele>
        <time>2020-02-24T12:55:11.000Z</time>
      </trkpt>
      <trkpt lat="45.15609" lon="5.45497">
        <ele>892.79998779297</ele>
        <time>2020-02-24T12:55:14.000Z</time>
      </trkpt>
      <trkpt lat="45.15607" lon="5.45499">
        <ele>893.20001220703</ele>
        <time>2020-02-24T12:55:15.000Z</time>
      </trkpt>
      <trkpt lat="45.15602" lon="5.45499">
        <ele>894</ele>
        <time>2020-02-24T12:55:18.000Z</time>
      </trkpt>
      <trkpt lat="45.15602" lon="5.455">
        <ele>894.20001220703</ele>
        <time>2020-02-24T12:55:19.000Z</time>
      </trkpt>
      <trkpt lat="45.15601" lon="5.455">
        <ele>894.40002441406</ele>
        <time>2020-02-24T12:55:20.000Z</time>
      </trkpt>
      <trkpt lat="45.156" lon="5.45502">
        <ele>894.79998779297</ele>
        <time>2020-02-24T12:55:22.000Z</time>
      </trkpt>
      <trkpt lat="45.156" lon="5.45504">
        <ele>895</ele>
        <time>2020-02-24T12:55:23.000Z</time>
      </trkpt>
      <trkpt lat="45.15598" lon="5.45508">
        <ele>895.40002441406</ele>
        <time>2020-02-24T12:55:26.000Z</time>
      </trkpt>
      <trkpt lat="45.15595" lon="5.45512">
        <ele>896</ele>
        <time>2020-02-24T12:55:29.000Z</time>
      </trkpt>
      <trkpt lat="45.15594" lon="5.45513">
        <ele>896.20001220703</ele>
        <time>2020-02-24T12:55:30.000Z</time>
      </trkpt>
      <trkpt lat="45.1559" lon="5.45515">
        <ele>896.79998779297</ele>
        <time>2020-02-24T12:55:32.000Z</time>
      </trkpt>
      <trkpt lat="45.15588" lon="5.45517">
        <ele>897</ele>
        <time>2020-02-24T12:55:33.000Z</time>
      </trkpt>
      <trkpt lat="45.15585" lon="5.45518">
        <ele>897.20001220703</ele>
        <time>2020-02-24T12:55:34.000Z</time>
      </trkpt>
      <trkpt lat="45.15582" lon="5.45519">
        <ele>897.79998779297</ele>
        <time>2020-02-24T12:55:36.000Z</time>
      </trkpt>
      <trkpt lat="45.15582" lon="5.45524">
        <ele>898.59997558594</ele>
        <time>2020-02-24T12:55:38.000Z</time>
      </trkpt>
      <trkpt lat="45.15581" lon="5.45527">
        <ele>899</ele>
        <time>2020-02-24T12:55:40.000Z</time>
      </trkpt>
      <trkpt lat="45.15581" lon="5.45528">
        <ele>899</ele>
        <time>2020-02-24T12:55:41.000Z</time>
      </trkpt>
      <trkpt lat="45.15578" lon="5.4553">
        <ele>899.20001220703</ele>
        <time>2020-02-24T12:55:44.000Z</time>
      </trkpt>
      <trkpt lat="45.15579" lon="5.45529">
        <ele>899.59997558594</ele>
        <time>2020-02-24T12:55:47.000Z</time>
      </trkpt>
      <trkpt lat="45.15578" lon="5.45529">
        <ele>899.79998779297</ele>
        <time>2020-02-24T12:55:48.000Z</time>
      </trkpt>
      <trkpt lat="45.15577" lon="5.45528">
        <ele>900.20001220703</ele>
        <time>2020-02-24T12:55:50.000Z</time>
      </trkpt>
      <trkpt lat="45.15571" lon="5.45526">
        <ele>900.20001220703</ele>
        <time>2020-02-24T12:55:53.000Z</time>
      </trkpt>
      <trkpt lat="45.15569" lon="5.45526">
        <ele>900.20001220703</ele>
        <time>2020-02-24T12:55:54.000Z</time>
      </trkpt>
      <trkpt lat="45.15571" lon="5.45527">
        <ele>900.59997558594</ele>
        <time>2020-02-24T12:55:58.000Z</time>
      </trkpt>
      <trkpt lat="45.15586" lon="5.45528">
        <ele>901.20001220703</ele>
        <time>2020-02-24T12:56:00.000Z</time>
      </trkpt>
      <trkpt lat="45.15603" lon="5.45529">
        <ele>902.20001220703</ele>
        <time>2020-02-24T12:56:06.000Z</time>
      </trkpt>
      <trkpt lat="45.15608" lon="5.45528">
        <ele>903</ele>
        <time>2020-02-24T12:56:10.000Z</time>
      </trkpt>
      <trkpt lat="45.15608" lon="5.4553">
        <ele>903.40002441406</ele>
        <time>2020-02-24T12:56:12.000Z</time>
      </trkpt>
      <trkpt lat="45.15588" lon="5.4554">
        <ele>903.59997558594</ele>
        <time>2020-02-24T12:56:16.000Z</time>
      </trkpt>
      <trkpt lat="45.15585" lon="5.45542">
        <ele>903.79998779297</ele>
        <time>2020-02-24T12:56:17.000Z</time>
      </trkpt>
      <trkpt lat="45.15579" lon="5.45541">
        <ele>904.20001220703</ele>
        <time>2020-02-24T12:56:20.000Z</time>
      </trkpt>
      <trkpt lat="45.15575" lon="5.45541">
        <ele>904.20001220703</ele>
        <time>2020-02-24T12:56:22.000Z</time>
      </trkpt>
      <trkpt lat="45.15572" lon="5.45543">
        <ele>904.40002441406</ele>
        <time>2020-02-24T12:56:23.000Z</time>
      </trkpt>
      <trkpt lat="45.15573" lon="5.45542">
        <ele>904.79998779297</ele>
        <time>2020-02-24T12:56:25.000Z</time>
      </trkpt>
      <trkpt lat="45.15571" lon="5.45544">
        <ele>905</ele>
        <time>2020-02-24T12:56:27.000Z</time>
      </trkpt>
      <trkpt lat="45.1557" lon="5.45545">
        <ele>905.20001220703</ele>
        <time>2020-02-24T12:56:28.000Z</time>
      </trkpt>
      <trkpt lat="45.15569" lon="5.45547">
        <ele>905.40002441406</ele>
        <time>2020-02-24T12:56:30.000Z</time>
      </trkpt>
      <trkpt lat="45.15567" lon="5.45551">
        <ele>906</ele>
        <time>2020-02-24T12:56:32.000Z</time>
      </trkpt>
      <trkpt lat="45.15559" lon="5.45555">
        <ele>906.40002441406</ele>
        <time>2020-02-24T12:56:36.000Z</time>
      </trkpt>
      <trkpt lat="45.15556" lon="5.45554">
        <ele>906.59997558594</ele>
        <time>2020-02-24T12:56:38.000Z</time>
      </trkpt>
      <trkpt lat="45.15557" lon="5.45552">
        <ele>906.59997558594</ele>
        <time>2020-02-24T12:56:40.000Z</time>
      </trkpt>
      <trkpt lat="45.1556" lon="5.45551">
        <ele>907</ele>
        <time>2020-02-24T12:56:43.000Z</time>
      </trkpt>
      <trkpt lat="45.15561" lon="5.4555">
        <ele>907</ele>
        <time>2020-02-24T12:56:45.000Z</time>
      </trkpt>
      <trkpt lat="45.15569" lon="5.45551">
        <ele>907.40002441406</ele>
        <time>2020-02-24T12:56:50.000Z</time>
      </trkpt>
      <trkpt lat="45.1557" lon="5.45551">
        <ele>907.59997558594</ele>
        <time>2020-02-24T12:56:51.000Z</time>
      </trkpt>
      <trkpt lat="45.15573" lon="5.4555">
        <ele>908.20001220703</ele>
        <time>2020-02-24T12:56:54.000Z</time>
      </trkpt>
      <trkpt lat="45.15577" lon="5.45549">
        <ele>908.79998779297</ele>
        <time>2020-02-24T12:56:56.000Z</time>
      </trkpt>
      <trkpt lat="45.15578" lon="5.45549">
        <ele>909</ele>
        <time>2020-02-24T12:56:58.000Z</time>
      </trkpt>
      <trkpt lat="45.15581" lon="5.45548">
        <ele>909.79998779297</ele>
        <time>2020-02-24T12:57:01.000Z</time>
      </trkpt>
      <trkpt lat="45.1558" lon="5.4555">
        <ele>910</ele>
        <time>2020-02-24T12:57:02.000Z</time>
      </trkpt>
      <trkpt lat="45.15579" lon="5.45551">
        <ele>910.40002441406</ele>
        <time>2020-02-24T12:57:04.000Z</time>
      </trkpt>
      <trkpt lat="45.15577" lon="5.45552">
        <ele>910.59997558594</ele>
        <time>2020-02-24T12:57:06.000Z</time>
      </trkpt>
      <trkpt lat="45.15576" lon="5.45552">
        <ele>910.79998779297</ele>
        <time>2020-02-24T12:57:07.000Z</time>
      </trkpt>
      <trkpt lat="45.15575" lon="5.45551">
        <ele>910.79998779297</ele>
        <time>2020-02-24T12:57:09.000Z</time>
      </trkpt>
      <trkpt lat="45.15578" lon="5.45552">
        <ele>911.79998779297</ele>
        <time>2020-02-24T12:57:14.000Z</time>
      </trkpt>
      <trkpt lat="45.15577" lon="5.45554">
        <ele>912</ele>
        <time>2020-02-24T12:57:15.000Z</time>
      </trkpt>
      <trkpt lat="45.15574" lon="5.45558">
        <ele>912.40002441406</ele>
        <time>2020-02-24T12:57:18.000Z</time>
      </trkpt>
      <trkpt lat="45.15573" lon="5.45561">
        <ele>912.59997558594</ele>
        <time>2020-02-24T12:57:20.000Z</time>
      </trkpt>
      <trkpt lat="45.15572" lon="5.45567">
        <ele>912.79998779297</ele>
        <time>2020-02-24T12:57:25.000Z</time>
      </trkpt>
      <trkpt lat="45.15567" lon="5.45572">
        <ele>912.40002441406</ele>
        <time>2020-02-24T12:57:27.000Z</time>
      </trkpt>
      <trkpt lat="45.15567" lon="5.45573">
        <ele>912.20001220703</ele>
        <time>2020-02-24T12:57:28.000Z</time>
      </trkpt>
      <trkpt lat="45.15569" lon="5.45573">
        <ele>912.20001220703</ele>
        <time>2020-02-24T12:57:29.000Z</time>
      </trkpt>
      <trkpt lat="45.15569" lon="5.45578">
        <ele>912</ele>
        <time>2020-02-24T12:57:33.000Z</time>
      </trkpt>
      <trkpt lat="45.15569" lon="5.45578">
        <ele>912</ele>
        <time>2020-02-24T12:57:34.000Z</time>
      </trkpt>
      <trkpt lat="45.15563" lon="5.45584">
        <ele>912.20001220703</ele>
        <time>2020-02-24T12:57:37.000Z</time>
      </trkpt>
      <trkpt lat="45.15561" lon="5.45588">
        <ele>912.40002441406</ele>
        <time>2020-02-24T12:57:40.000Z</time>
      </trkpt>
      <trkpt lat="45.15562" lon="5.45593">
        <ele>912.40002441406</ele>
        <time>2020-02-24T12:57:47.000Z</time>
      </trkpt>
      <trkpt lat="45.15562" lon="5.45594">
        <ele>912.59997558594</ele>
        <time>2020-02-24T12:57:51.000Z</time>
      </trkpt>
      <trkpt lat="45.15564" lon="5.45592">
        <ele>913</ele>
        <time>2020-02-24T12:57:54.000Z</time>
      </trkpt>
      <trkpt lat="45.15564" lon="5.45592">
        <ele>913</ele>
        <time>2020-02-24T12:57:55.000Z</time>
      </trkpt>
      <trkpt lat="45.1557" lon="5.45579">
        <ele>914</ele>
        <time>2020-02-24T12:57:59.000Z</time>
      </trkpt>
      <trkpt lat="45.15571" lon="5.45576">
        <ele>914.20001220703</ele>
        <time>2020-02-24T12:58:00.000Z</time>
      </trkpt>
      <trkpt lat="45.15576" lon="5.45571">
        <ele>914.40002441406</ele>
        <time>2020-02-24T12:58:01.000Z</time>
      </trkpt>
      <trkpt lat="45.15574" lon="5.45569">
        <ele>915.59997558594</ele>
        <time>2020-02-24T12:58:05.000Z</time>
      </trkpt>
      <trkpt lat="45.15571" lon="5.45571">
        <ele>916.20001220703</ele>
        <time>2020-02-24T12:58:07.000Z</time>
      </trkpt>
      <trkpt lat="45.15568" lon="5.45574">
        <ele>916.79998779297</ele>
        <time>2020-02-24T12:58:09.000Z</time>
      </trkpt>
      <trkpt lat="45.15562" lon="5.45579">
        <ele>917.20001220703</ele>
        <time>2020-02-24T12:58:12.000Z</time>
      </trkpt>
      <trkpt lat="45.15561" lon="5.45581">
        <ele>917.20001220703</ele>
        <time>2020-02-24T12:58:13.000Z</time>
      </trkpt>
      <trkpt lat="45.15566" lon="5.45583">
        <ele>917.59997558594</ele>
        <time>2020-02-24T12:58:16.000Z</time>
      </trkpt>
      <trkpt lat="45.15565" lon="5.45584">
        <ele>917.59997558594</ele>
        <time>2020-02-24T12:58:17.000Z</time>
      </trkpt>
      <trkpt lat="45.15564" lon="5.45586">
        <ele>917.59997558594</ele>
        <time>2020-02-24T12:58:18.000Z</time>
      </trkpt>
      <trkpt lat="45.15564" lon="5.45591">
        <ele>917.59997558594</ele>
        <time>2020-02-24T12:58:21.000Z</time>
      </trkpt>
      <trkpt lat="45.15574" lon="5.45583">
        <ele>917.59997558594</ele>
        <time>2020-02-24T12:58:23.000Z</time>
      </trkpt>
      <trkpt lat="45.15577" lon="5.45581">
        <ele>917.20001220703</ele>
        <time>2020-02-24T12:58:26.000Z</time>
      </trkpt>
      <trkpt lat="45.15578" lon="5.4558">
        <ele>917</ele>
        <time>2020-02-24T12:58:28.000Z</time>
      </trkpt>
      <trkpt lat="45.15578" lon="5.4558">
        <ele>917</ele>
        <time>2020-02-24T12:58:29.000Z</time>
      </trkpt>
      <trkpt lat="45.15579" lon="5.45581">
        <ele>917.59997558594</ele>
        <time>2020-02-24T12:58:34.000Z</time>
      </trkpt>
      <trkpt lat="45.15581" lon="5.45582">
        <ele>917.79998779297</ele>
        <time>2020-02-24T12:58:36.000Z</time>
      </trkpt>
      <trkpt lat="45.1558" lon="5.45585">
        <ele>918.79998779297</ele>
        <time>2020-02-24T12:58:41.000Z</time>
      </trkpt>
      <trkpt lat="45.15576" lon="5.45588">
        <ele>919</ele>
        <time>2020-02-24T12:58:42.000Z</time>
      </trkpt>
      <trkpt lat="45.15567" lon="5.45593">
        <ele>919.40002441406</ele>
        <time>2020-02-24T12:58:45.000Z</time>
      </trkpt>
      <trkpt lat="45.15568" lon="5.45595">
        <ele>919.79998779297</ele>
        <time>2020-02-24T12:58:47.000Z</time>
      </trkpt>
      <trkpt lat="45.15573" lon="5.45593">
        <ele>920</ele>
        <time>2020-02-24T12:58:48.000Z</time>
      </trkpt>
      <trkpt lat="45.15573" lon="5.45594">
        <ele>920.40002441406</ele>
        <time>2020-02-24T12:58:49.000Z</time>
      </trkpt>
      <trkpt lat="45.15572" lon="5.45599">
        <ele>921.20001220703</ele>
        <time>2020-02-24T12:58:52.000Z</time>
      </trkpt>
      <trkpt lat="45.15572" lon="5.456">
        <ele>921.79998779297</ele>
        <time>2020-02-24T12:58:54.000Z</time>
      </trkpt>
      <trkpt lat="45.15572" lon="5.45602">
        <ele>922</ele>
        <time>2020-02-24T12:58:55.000Z</time>
      </trkpt>
      <trkpt lat="45.15571" lon="5.45605">
        <ele>922.20001220703</ele>
        <time>2020-02-24T12:58:57.000Z</time>
      </trkpt>
      <trkpt lat="45.15571" lon="5.45609">
        <ele>922.59997558594</ele>
        <time>2020-02-24T12:58:59.000Z</time>
      </trkpt>
      <trkpt lat="45.1557" lon="5.45611">
        <ele>922.79998779297</ele>
        <time>2020-02-24T12:59:00.000Z</time>
      </trkpt>
      <trkpt lat="45.15566" lon="5.45625">
        <ele>923.40002441406</ele>
        <time>2020-02-24T12:59:03.000Z</time>
      </trkpt>
      <trkpt lat="45.15561" lon="5.45633">
        <ele>923.40002441406</ele>
        <time>2020-02-24T12:59:04.000Z</time>
      </trkpt>
      <trkpt lat="45.15547" lon="5.45651">
        <ele>924</ele>
        <time>2020-02-24T12:59:08.000Z</time>
      </trkpt>
      <trkpt lat="45.15546" lon="5.45652">
        <ele>924.40002441406</ele>
        <time>2020-02-24T12:59:10.000Z</time>
      </trkpt>
      <trkpt lat="45.15539" lon="5.45662">
        <ele>925</ele>
        <time>2020-02-24T12:59:16.000Z</time>
      </trkpt>
      <trkpt lat="45.1554" lon="5.4566">
        <ele>925.59997558594</ele>
        <time>2020-02-24T12:59:18.000Z</time>
      </trkpt>
      <trkpt lat="45.15543" lon="5.45655">
        <ele>925.59997558594</ele>
        <time>2020-02-24T12:59:22.000Z</time>
      </trkpt>
      <trkpt lat="45.15541" lon="5.45655">
        <ele>925.40002441406</ele>
        <time>2020-02-24T12:59:23.000Z</time>
      </trkpt>
      <trkpt lat="45.15538" lon="5.45657">
        <ele>924.79998779297</ele>
        <time>2020-02-24T12:59:25.000Z</time>
      </trkpt>
      <trkpt lat="45.15535" lon="5.45662">
        <ele>924.79998779297</ele>
        <time>2020-02-24T12:59:30.000Z</time>
      </trkpt>
      <trkpt lat="45.15539" lon="5.45665">
        <ele>925.20001220703</ele>
        <time>2020-02-24T12:59:39.000Z</time>
      </trkpt>
      <trkpt lat="45.15536" lon="5.45664">
        <ele>925.40002441406</ele>
        <time>2020-02-24T12:59:47.000Z</time>
      </trkpt>
      <trkpt lat="45.15539" lon="5.45667">
        <ele>925.20001220703</ele>
        <time>2020-02-24T12:59:50.000Z</time>
      </trkpt>
      <trkpt lat="45.15544" lon="5.45669">
        <ele>925.20001220703</ele>
        <time>2020-02-24T12:59:52.000Z</time>
      </trkpt>
      <trkpt lat="45.15553" lon="5.45654">
        <ele>925.40002441406</ele>
        <time>2020-02-24T12:59:55.000Z</time>
      </trkpt>
      <trkpt lat="45.15559" lon="5.45649">
        <ele>925.59997558594</ele>
        <time>2020-02-24T12:59:56.000Z</time>
      </trkpt>
      <trkpt lat="45.1558" lon="5.45643">
        <ele>925.59997558594</ele>
        <time>2020-02-24T13:00:01.000Z</time>
      </trkpt>
      <trkpt lat="45.15591" lon="5.45653">
        <ele>925.40002441406</ele>
        <time>2020-02-24T13:00:03.000Z</time>
      </trkpt>
      <trkpt lat="45.15577" lon="5.45676">
        <ele>925</ele>
        <time>2020-02-24T13:00:08.000Z</time>
      </trkpt>
      <trkpt lat="45.15577" lon="5.45665">
        <ele>925</ele>
        <time>2020-02-24T13:00:09.000Z</time>
      </trkpt>
      <trkpt lat="45.15578" lon="5.4565">
        <ele>925</ele>
        <time>2020-02-24T13:00:10.000Z</time>
      </trkpt>
      <trkpt lat="45.1558" lon="5.45638">
        <ele>925</ele>
        <time>2020-02-24T13:00:11.000Z</time>
      </trkpt>
      <trkpt lat="45.15587" lon="5.45618">
        <ele>925</ele>
        <time>2020-02-24T13:00:15.000Z</time>
      </trkpt>
      <trkpt lat="45.15587" lon="5.45618">
        <ele>925</ele>
        <time>2020-02-24T13:00:16.000Z</time>
      </trkpt>
      <trkpt lat="45.15587" lon="5.45617">
        <ele>925</ele>
        <time>2020-02-24T13:00:17.000Z</time>
      </trkpt>
      <trkpt lat="45.15588" lon="5.45615">
        <ele>925</ele>
        <time>2020-02-24T13:00:19.000Z</time>
      </trkpt>
      <trkpt lat="45.15589" lon="5.45602">
        <ele>925</ele>
        <time>2020-02-24T13:03:30.000Z</time>
      </trkpt>
      <trkpt lat="45.15593" lon="5.45595">
        <ele>924.79998779297</ele>
        <time>2020-02-24T13:03:33.000Z</time>
      </trkpt>
      <trkpt lat="45.15595" lon="5.45595">
        <ele>924.59997558594</ele>
        <time>2020-02-24T13:03:34.000Z</time>
      </trkpt>
      <trkpt lat="45.15598" lon="5.45596">
        <ele>924.40002441406</ele>
        <time>2020-02-24T13:03:35.000Z</time>
      </trkpt>
      <trkpt lat="45.156" lon="5.45597">
        <ele>924.20001220703</ele>
        <time>2020-02-24T13:03:36.000Z</time>
      </trkpt>
      <trkpt lat="45.15604" lon="5.45596">
        <ele>923.79998779297</ele>
        <time>2020-02-24T13:03:41.000Z</time>
      </trkpt>
      <trkpt lat="45.15603" lon="5.45598">
        <ele>924.20001220703</ele>
        <time>2020-02-24T13:03:44.000Z</time>
      </trkpt>
      <trkpt lat="45.156" lon="5.45599">
        <ele>924.79998779297</ele>
        <time>2020-02-24T13:03:56.000Z</time>
      </trkpt>
      <trkpt lat="45.15598" lon="5.45602">
        <ele>924.40002441406</ele>
        <time>2020-02-24T13:04:03.000Z</time>
      </trkpt>
      <trkpt lat="45.15596" lon="5.45609">
        <ele>924.20001220703</ele>
        <time>2020-02-24T13:04:06.000Z</time>
      </trkpt>
      <trkpt lat="45.15591" lon="5.45616">
        <ele>924.40002441406</ele>
        <time>2020-02-24T13:04:12.000Z</time>
      </trkpt>
      <trkpt lat="45.15588" lon="5.45616">
        <ele>924.40002441406</ele>
        <time>2020-02-24T13:04:14.000Z</time>
      </trkpt>
      <trkpt lat="45.15586" lon="5.45615">
        <ele>924.59997558594</ele>
        <time>2020-02-24T13:04:16.000Z</time>
      </trkpt>
      <trkpt lat="45.15583" lon="5.45613">
        <ele>924.40002441406</ele>
        <time>2020-02-24T13:04:18.000Z</time>
      </trkpt>
      <trkpt lat="45.15571" lon="5.45607">
        <ele>924.40002441406</ele>
        <time>2020-02-24T13:04:29.000Z</time>
      </trkpt>
      <trkpt lat="45.15571" lon="5.45608">
        <ele>924.40002441406</ele>
        <time>2020-02-24T13:04:32.000Z</time>
      </trkpt>
      <trkpt lat="45.15569" lon="5.45612">
        <ele>924.59997558594</ele>
        <time>2020-02-24T13:04:40.000Z</time>
      </trkpt>
      <trkpt lat="45.15572" lon="5.45619">
        <ele>924.20001220703</ele>
        <time>2020-02-24T13:04:49.000Z</time>
      </trkpt>
      <trkpt lat="45.15575" lon="5.45622">
        <ele>924.40002441406</ele>
        <time>2020-02-24T13:05:02.000Z</time>
      </trkpt>
      <trkpt lat="45.1558" lon="5.45605">
        <ele>924.59997558594</ele>
        <time>2020-02-24T13:05:06.000Z</time>
      </trkpt>
      <trkpt lat="45.15583" lon="5.45603">
        <ele>924.79998779297</ele>
        <time>2020-02-24T13:05:09.000Z</time>
      </trkpt>
      <trkpt lat="45.15584" lon="5.45602">
        <ele>925</ele>
        <time>2020-02-24T13:05:10.000Z</time>
      </trkpt>
      <trkpt lat="45.15588" lon="5.45606">
        <ele>925.59997558594</ele>
        <time>2020-02-24T13:05:12.000Z</time>
      </trkpt>
      <trkpt lat="45.15594" lon="5.4561">
        <ele>925.59997558594</ele>
        <time>2020-02-24T13:05:14.000Z</time>
      </trkpt>
      <trkpt lat="45.15595" lon="5.45614">
        <ele>925.59997558594</ele>
        <time>2020-02-24T13:05:15.000Z</time>
      </trkpt>
      <trkpt lat="45.156" lon="5.45622">
        <ele>925.20001220703</ele>
        <time>2020-02-24T13:05:18.000Z</time>
      </trkpt>
      <trkpt lat="45.15599" lon="5.45627">
        <ele>925.20001220703</ele>
        <time>2020-02-24T13:05:20.000Z</time>
      </trkpt>
      <trkpt lat="45.156" lon="5.45629">
        <ele>925.20001220703</ele>
        <time>2020-02-24T13:05:21.000Z</time>
      </trkpt>
      <trkpt lat="45.15598" lon="5.45631">
        <ele>925.20001220703</ele>
        <time>2020-02-24T13:05:22.000Z</time>
      </trkpt>
      <trkpt lat="45.15596" lon="5.45632">
        <ele>925.40002441406</ele>
        <time>2020-02-24T13:05:23.000Z</time>
      </trkpt>
      <trkpt lat="45.15588" lon="5.45637">
        <ele>925.59997558594</ele>
        <time>2020-02-24T13:05:27.000Z</time>
      </trkpt>
      <trkpt lat="45.15585" lon="5.4564">
        <ele>925.59997558594</ele>
        <time>2020-02-24T13:05:30.000Z</time>
      </trkpt>
      <trkpt lat="45.15585" lon="5.45644">
        <ele>925.40002441406</ele>
        <time>2020-02-24T13:05:32.000Z</time>
      </trkpt>
      <trkpt lat="45.15582" lon="5.45643">
        <ele>925.40002441406</ele>
        <time>2020-02-24T13:05:35.000Z</time>
      </trkpt>
      <trkpt lat="45.15577" lon="5.45643">
        <ele>924.79998779297</ele>
        <time>2020-02-24T13:05:43.000Z</time>
      </trkpt>
      <trkpt lat="45.15578" lon="5.45645">
        <ele>924.59997558594</ele>
        <time>2020-02-24T13:05:45.000Z</time>
      </trkpt>
      <trkpt lat="45.15578" lon="5.45645">
        <ele>924.59997558594</ele>
        <time>2020-02-24T13:05:46.000Z</time>
      </trkpt>
      <trkpt lat="45.15577" lon="5.45645">
        <ele>924.59997558594</ele>
        <time>2020-02-24T13:05:47.000Z</time>
      </trkpt>
      <trkpt lat="45.15577" lon="5.45645">
        <ele>924.59997558594</ele>
        <time>2020-02-24T13:05:48.000Z</time>
      </trkpt>
      <trkpt lat="45.15577" lon="5.45644">
        <ele>924.79998779297</ele>
        <time>2020-02-24T13:05:53.000Z</time>
      </trkpt>
      <trkpt lat="45.15581" lon="5.45644">
        <ele>924.79998779297</ele>
        <time>2020-02-24T13:05:58.000Z</time>
      </trkpt>
      <trkpt lat="45.15579" lon="5.45644">
        <ele>924.40002441406</ele>
        <time>2020-02-24T13:06:04.000Z</time>
      </trkpt>
      <trkpt lat="45.15574" lon="5.45644">
        <ele>924.59997558594</ele>
        <time>2020-02-24T13:06:14.000Z</time>
      </trkpt>
      <trkpt lat="45.15561" lon="5.45626">
        <ele>924.79998779297</ele>
        <time>2020-02-24T13:06:20.000Z</time>
      </trkpt>
      <trkpt lat="45.15558" lon="5.45623">
        <ele>924.40002441406</ele>
        <time>2020-02-24T13:06:23.000Z</time>
      </trkpt>
      <trkpt lat="45.15561" lon="5.45635">
        <ele>924.20001220703</ele>
        <time>2020-02-24T13:06:31.000Z</time>
      </trkpt>
      <trkpt lat="45.15562" lon="5.45638">
        <ele>924.20001220703</ele>
        <time>2020-02-24T13:06:32.000Z</time>
      </trkpt>
      <trkpt lat="45.15562" lon="5.45639">
        <ele>924.20001220703</ele>
        <time>2020-02-24T13:06:35.000Z</time>
      </trkpt>
      <trkpt lat="45.15558" lon="5.45638">
        <ele>924.40002441406</ele>
        <time>2020-02-24T13:06:44.000Z</time>
      </trkpt>
      <trkpt lat="45.1556" lon="5.45638">
        <ele>924.40002441406</ele>
        <time>2020-02-24T13:06:46.000Z</time>
      </trkpt>
      <trkpt lat="45.15554" lon="5.4563">
        <ele>924.20001220703</ele>
        <time>2020-02-24T13:06:52.000Z</time>
      </trkpt>
      <trkpt lat="45.15552" lon="5.45628">
        <ele>924.20001220703</ele>
        <time>2020-02-24T13:06:56.000Z</time>
      </trkpt>
      <trkpt lat="45.15551" lon="5.4563">
        <ele>924.59997558594</ele>
        <time>2020-02-24T13:07:03.000Z</time>
      </trkpt>
      <trkpt lat="45.1555" lon="5.45631">
        <ele>925.20001220703</ele>
        <time>2020-02-24T13:07:10.000Z</time>
      </trkpt>
      <trkpt lat="45.15556" lon="5.45631">
        <ele>925.20001220703</ele>
        <time>2020-02-24T13:07:15.000Z</time>
      </trkpt>
      <trkpt lat="45.1556" lon="5.4563">
        <ele>925.20001220703</ele>
        <time>2020-02-24T13:07:18.000Z</time>
      </trkpt>
      <trkpt lat="45.15566" lon="5.4563">
        <ele>925</ele>
        <time>2020-02-24T13:07:20.000Z</time>
      </trkpt>
      <trkpt lat="45.15572" lon="5.45627">
        <ele>924.59997558594</ele>
        <time>2020-02-24T13:07:22.000Z</time>
      </trkpt>
      <trkpt lat="45.15582" lon="5.45624">
        <ele>924.20001220703</ele>
        <time>2020-02-24T13:07:25.000Z</time>
      </trkpt>
      <trkpt lat="45.15585" lon="5.4562">
        <ele>923.79998779297</ele>
        <time>2020-02-24T13:07:27.000Z</time>
      </trkpt>
      <trkpt lat="45.15594" lon="5.45616">
        <ele>923.59997558594</ele>
        <time>2020-02-24T13:07:30.000Z</time>
      </trkpt>
      <trkpt lat="45.15595" lon="5.45614">
        <ele>923.59997558594</ele>
        <time>2020-02-24T13:07:31.000Z</time>
      </trkpt>
      <trkpt lat="45.156" lon="5.45606">
        <ele>923.79998779297</ele>
        <time>2020-02-24T13:07:34.000Z</time>
      </trkpt>
      <trkpt lat="45.15604" lon="5.45601">
        <ele>923.79998779297</ele>
        <time>2020-02-24T13:07:35.000Z</time>
      </trkpt>
      <trkpt lat="45.15604" lon="5.45598">
        <ele>923.59997558594</ele>
        <time>2020-02-24T13:07:37.000Z</time>
      </trkpt>
      <trkpt lat="45.15605" lon="5.45596">
        <ele>923.40002441406</ele>
        <time>2020-02-24T13:07:38.000Z</time>
      </trkpt>
      <trkpt lat="45.15607" lon="5.45589">
        <ele>922.59997558594</ele>
        <time>2020-02-24T13:07:42.000Z</time>
      </trkpt>
      <trkpt lat="45.15607" lon="5.45589">
        <ele>922.59997558594</ele>
        <time>2020-02-24T13:07:43.000Z</time>
      </trkpt>
      <trkpt lat="45.15605" lon="5.45588">
        <ele>922.59997558594</ele>
        <time>2020-02-24T13:07:45.000Z</time>
      </trkpt>
      <trkpt lat="45.15604" lon="5.45587">
        <ele>922.59997558594</ele>
        <time>2020-02-24T13:07:46.000Z</time>
      </trkpt>
      <trkpt lat="45.156" lon="5.45579">
        <ele>922.59997558594</ele>
        <time>2020-02-24T13:07:48.000Z</time>
      </trkpt>
      <trkpt lat="45.15601" lon="5.45578">
        <ele>922.59997558594</ele>
        <time>2020-02-24T13:07:49.000Z</time>
      </trkpt>
      <trkpt lat="45.15598" lon="5.45582">
        <ele>922.20001220703</ele>
        <time>2020-02-24T13:07:51.000Z</time>
      </trkpt>
      <trkpt lat="45.15596" lon="5.45584">
        <ele>921</ele>
        <time>2020-02-24T13:07:53.000Z</time>
      </trkpt>
      <trkpt lat="45.15596" lon="5.45578">
        <ele>920</ele>
        <time>2020-02-24T13:07:56.000Z</time>
      </trkpt>
      <trkpt lat="45.15598" lon="5.45572">
        <ele>919.79998779297</ele>
        <time>2020-02-24T13:07:58.000Z</time>
      </trkpt>
      <trkpt lat="45.15604" lon="5.45565">
        <ele>919</ele>
        <time>2020-02-24T13:08:03.000Z</time>
      </trkpt>
      <trkpt lat="45.15605" lon="5.45566">
        <ele>918.79998779297</ele>
        <time>2020-02-24T13:08:04.000Z</time>
      </trkpt>
      <trkpt lat="45.15607" lon="5.45566">
        <ele>918.59997558594</ele>
        <time>2020-02-24T13:08:06.000Z</time>
      </trkpt>
      <trkpt lat="45.15605" lon="5.45572">
        <ele>918.20001220703</ele>
        <time>2020-02-24T13:08:10.000Z</time>
      </trkpt>
      <trkpt lat="45.156" lon="5.45578">
        <ele>918</ele>
        <time>2020-02-24T13:08:12.000Z</time>
      </trkpt>
      <trkpt lat="45.15598" lon="5.45579">
        <ele>917.79998779297</ele>
        <time>2020-02-24T13:08:13.000Z</time>
      </trkpt>
      <trkpt lat="45.15596" lon="5.45581">
        <ele>917.59997558594</ele>
        <time>2020-02-24T13:08:14.000Z</time>
      </trkpt>
      <trkpt lat="45.15596" lon="5.45583">
        <ele>917.40002441406</ele>
        <time>2020-02-24T13:08:15.000Z</time>
      </trkpt>
      <trkpt lat="45.15593" lon="5.45589">
        <ele>917.20001220703</ele>
        <time>2020-02-24T13:08:18.000Z</time>
      </trkpt>
      <trkpt lat="45.15591" lon="5.45589">
        <ele>917.40002441406</ele>
        <time>2020-02-24T13:08:20.000Z</time>
      </trkpt>
      <trkpt lat="45.1559" lon="5.4559">
        <ele>917.40002441406</ele>
        <time>2020-02-24T13:08:21.000Z</time>
      </trkpt>
      <trkpt lat="45.15583" lon="5.45591">
        <ele>917.20001220703</ele>
        <time>2020-02-24T13:08:25.000Z</time>
      </trkpt>
      <trkpt lat="45.15586" lon="5.45585">
        <ele>917</ele>
        <time>2020-02-24T13:08:26.000Z</time>
      </trkpt>
      <trkpt lat="45.15586" lon="5.45578">
        <ele>917.20001220703</ele>
        <time>2020-02-24T13:08:29.000Z</time>
      </trkpt>
      <trkpt lat="45.15587" lon="5.45568">
        <ele>917.40002441406</ele>
        <time>2020-02-24T13:08:32.000Z</time>
      </trkpt>
      <trkpt lat="45.15587" lon="5.45569">
        <ele>917.59997558594</ele>
        <time>2020-02-24T13:08:33.000Z</time>
      </trkpt>
      <trkpt lat="45.15587" lon="5.45568">
        <ele>917.59997558594</ele>
        <time>2020-02-24T13:08:38.000Z</time>
      </trkpt>
      <trkpt lat="45.1559" lon="5.45565">
        <ele>916.59997558594</ele>
        <time>2020-02-24T13:08:45.000Z</time>
      </trkpt>
      <trkpt lat="45.1559" lon="5.45565">
        <ele>916.40002441406</ele>
        <time>2020-02-24T13:08:46.000Z</time>
      </trkpt>
      <trkpt lat="45.15589" lon="5.45568">
        <ele>915.40002441406</ele>
        <time>2020-02-24T13:08:50.000Z</time>
      </trkpt>
      <trkpt lat="45.15589" lon="5.4557">
        <ele>915.40002441406</ele>
        <time>2020-02-24T13:08:51.000Z</time>
      </trkpt>
      <trkpt lat="45.15588" lon="5.4557">
        <ele>915.20001220703</ele>
        <time>2020-02-24T13:08:52.000Z</time>
      </trkpt>
      <trkpt lat="45.15584" lon="5.45579">
        <ele>914.20001220703</ele>
        <time>2020-02-24T13:08:58.000Z</time>
      </trkpt>
      <trkpt lat="45.15583" lon="5.45581">
        <ele>914</ele>
        <time>2020-02-24T13:08:59.000Z</time>
      </trkpt>
      <trkpt lat="45.15584" lon="5.45583">
        <ele>913.79998779297</ele>
        <time>2020-02-24T13:09:01.000Z</time>
      </trkpt>
      <trkpt lat="45.15583" lon="5.45584">
        <ele>913.59997558594</ele>
        <time>2020-02-24T13:09:04.000Z</time>
      </trkpt>
      <trkpt lat="45.15582" lon="5.45582">
        <ele>913</ele>
        <time>2020-02-24T13:09:07.000Z</time>
      </trkpt>
      <trkpt lat="45.15582" lon="5.45577">
        <ele>912.79998779297</ele>
        <time>2020-02-24T13:09:10.000Z</time>
      </trkpt>
      <trkpt lat="45.15581" lon="5.45575">
        <ele>912.79998779297</ele>
        <time>2020-02-24T13:09:16.000Z</time>
      </trkpt>
      <trkpt lat="45.15583" lon="5.45576">
        <ele>912.59997558594</ele>
        <time>2020-02-24T13:09:20.000Z</time>
      </trkpt>
      <trkpt lat="45.15585" lon="5.4558">
        <ele>912.40002441406</ele>
        <time>2020-02-24T13:09:22.000Z</time>
      </trkpt>
      <trkpt lat="45.15586" lon="5.45576">
        <ele>912.79998779297</ele>
        <time>2020-02-24T13:09:28.000Z</time>
      </trkpt>
      <trkpt lat="45.15588" lon="5.45573">
        <ele>913.40002441406</ele>
        <time>2020-02-24T13:09:30.000Z</time>
      </trkpt>
      <trkpt lat="45.15593" lon="5.45566">
        <ele>913.79998779297</ele>
        <time>2020-02-24T13:09:33.000Z</time>
      </trkpt>
      <trkpt lat="45.15593" lon="5.45565">
        <ele>913.79998779297</ele>
        <time>2020-02-24T13:09:34.000Z</time>
      </trkpt>
      <trkpt lat="45.15595" lon="5.45563">
        <ele>913.79998779297</ele>
        <time>2020-02-24T13:09:36.000Z</time>
      </trkpt>
      <trkpt lat="45.15597" lon="5.45563">
        <ele>913.59997558594</ele>
        <time>2020-02-24T13:09:38.000Z</time>
      </trkpt>
      <trkpt lat="45.15597" lon="5.45562">
        <ele>913.40002441406</ele>
        <time>2020-02-24T13:09:39.000Z</time>
      </trkpt>
      <trkpt lat="45.15597" lon="5.45562">
        <ele>912.20001220703</ele>
        <time>2020-02-24T13:09:44.000Z</time>
      </trkpt>
      <trkpt lat="45.15593" lon="5.45557">
        <ele>912.20001220703</ele>
        <time>2020-02-24T13:09:50.000Z</time>
      </trkpt>
      <trkpt lat="45.1559" lon="5.45553">
        <ele>912</ele>
        <time>2020-02-24T13:09:52.000Z</time>
      </trkpt>
      <trkpt lat="45.15586" lon="5.45553">
        <ele>910.59997558594</ele>
        <time>2020-02-24T13:09:55.000Z</time>
      </trkpt>
      <trkpt lat="45.15586" lon="5.45553">
        <ele>910.20001220703</ele>
        <time>2020-02-24T13:09:57.000Z</time>
      </trkpt>
      <trkpt lat="45.15583" lon="5.45558">
        <ele>910</ele>
        <time>2020-02-24T13:10:01.000Z</time>
      </trkpt>
      <trkpt lat="45.15582" lon="5.45555">
        <ele>909.59997558594</ele>
        <time>2020-02-24T13:10:03.000Z</time>
      </trkpt>
      <trkpt lat="45.15582" lon="5.45553">
        <ele>909.40002441406</ele>
        <time>2020-02-24T13:10:05.000Z</time>
      </trkpt>
      <trkpt lat="45.15582" lon="5.45553">
        <ele>909</ele>
        <time>2020-02-24T13:10:07.000Z</time>
      </trkpt>
      <trkpt lat="45.15582" lon="5.45555">
        <ele>908.59997558594</ele>
        <time>2020-02-24T13:10:09.000Z</time>
      </trkpt>
      <trkpt lat="45.15582" lon="5.45555">
        <ele>908.40002441406</ele>
        <time>2020-02-24T13:10:10.000Z</time>
      </trkpt>
      <trkpt lat="45.1558" lon="5.45559">
        <ele>907.79998779297</ele>
        <time>2020-02-24T13:10:13.000Z</time>
      </trkpt>
      <trkpt lat="45.15579" lon="5.45558">
        <ele>907.40002441406</ele>
        <time>2020-02-24T13:10:15.000Z</time>
      </trkpt>
      <trkpt lat="45.15578" lon="5.45561">
        <ele>906.40002441406</ele>
        <time>2020-02-24T13:10:18.000Z</time>
      </trkpt>
      <trkpt lat="45.15577" lon="5.45562">
        <ele>906.40002441406</ele>
        <time>2020-02-24T13:10:19.000Z</time>
      </trkpt>
      <trkpt lat="45.15577" lon="5.45564">
        <ele>906.20001220703</ele>
        <time>2020-02-24T13:10:20.000Z</time>
      </trkpt>
      <trkpt lat="45.15576" lon="5.45564">
        <ele>906.20001220703</ele>
        <time>2020-02-24T13:10:22.000Z</time>
      </trkpt>
      <trkpt lat="45.15576" lon="5.45564">
        <ele>905.79998779297</ele>
        <time>2020-02-24T13:10:24.000Z</time>
      </trkpt>
      <trkpt lat="45.15575" lon="5.45564">
        <ele>905.20001220703</ele>
        <time>2020-02-24T13:10:26.000Z</time>
      </trkpt>
      <trkpt lat="45.15572" lon="5.45567">
        <ele>904.79998779297</ele>
        <time>2020-02-24T13:10:29.000Z</time>
      </trkpt>
      <trkpt lat="45.1557" lon="5.45571">
        <ele>904.40002441406</ele>
        <time>2020-02-24T13:10:31.000Z</time>
      </trkpt>
      <trkpt lat="45.15569" lon="5.45571">
        <ele>904.20001220703</ele>
        <time>2020-02-24T13:10:32.000Z</time>
      </trkpt>
      <trkpt lat="45.15568" lon="5.45568">
        <ele>903.79998779297</ele>
        <time>2020-02-24T13:10:34.000Z</time>
      </trkpt>
      <trkpt lat="45.15567" lon="5.45564">
        <ele>903.40002441406</ele>
        <time>2020-02-24T13:10:36.000Z</time>
      </trkpt>
      <trkpt lat="45.15567" lon="5.45563">
        <ele>903.20001220703</ele>
        <time>2020-02-24T13:10:37.000Z</time>
      </trkpt>
      <trkpt lat="45.15567" lon="5.45563">
        <ele>902.79998779297</ele>
        <time>2020-02-24T13:10:39.000Z</time>
      </trkpt>
      <trkpt lat="45.15568" lon="5.45559">
        <ele>902.59997558594</ele>
        <time>2020-02-24T13:10:40.000Z</time>
      </trkpt>
      <trkpt lat="45.15569" lon="5.45556">
        <ele>901.79998779297</ele>
        <time>2020-02-24T13:10:42.000Z</time>
      </trkpt>
      <trkpt lat="45.1557" lon="5.45553">
        <ele>901</ele>
        <time>2020-02-24T13:10:44.000Z</time>
      </trkpt>
      <trkpt lat="45.1557" lon="5.45552">
        <ele>900.59997558594</ele>
        <time>2020-02-24T13:10:46.000Z</time>
      </trkpt>
      <trkpt lat="45.1557" lon="5.45551">
        <ele>900.40002441406</ele>
        <time>2020-02-24T13:10:47.000Z</time>
      </trkpt>
      <trkpt lat="45.15576" lon="5.45547">
        <ele>899.79998779297</ele>
        <time>2020-02-24T13:10:49.000Z</time>
      </trkpt>
      <trkpt lat="45.1558" lon="5.4554">
        <ele>899.59997558594</ele>
        <time>2020-02-24T13:10:52.000Z</time>
      </trkpt>
      <trkpt lat="45.15582" lon="5.45537">
        <ele>899.40002441406</ele>
        <time>2020-02-24T13:10:54.000Z</time>
      </trkpt>
      <trkpt lat="45.15585" lon="5.45536">
        <ele>898.79998779297</ele>
        <time>2020-02-24T13:10:57.000Z</time>
      </trkpt>
      <trkpt lat="45.15586" lon="5.45533">
        <ele>898.40002441406</ele>
        <time>2020-02-24T13:10:59.000Z</time>
      </trkpt>
      <trkpt lat="45.15587" lon="5.45531">
        <ele>898</ele>
        <time>2020-02-24T13:11:01.000Z</time>
      </trkpt>
      <trkpt lat="45.15588" lon="5.45529">
        <ele>897.79998779297</ele>
        <time>2020-02-24T13:11:02.000Z</time>
      </trkpt>
      <trkpt lat="45.1559" lon="5.45528">
        <ele>897.59997558594</ele>
        <time>2020-02-24T13:11:04.000Z</time>
      </trkpt>
      <trkpt lat="45.15591" lon="5.45527">
        <ele>897.40002441406</ele>
        <time>2020-02-24T13:11:05.000Z</time>
      </trkpt>
      <trkpt lat="45.15591" lon="5.45526">
        <ele>897</ele>
        <time>2020-02-24T13:11:06.000Z</time>
      </trkpt>
      <trkpt lat="45.1559" lon="5.45526">
        <ele>896.59997558594</ele>
        <time>2020-02-24T13:11:07.000Z</time>
      </trkpt>
      <trkpt lat="45.15591" lon="5.45526">
        <ele>896.20001220703</ele>
        <time>2020-02-24T13:11:08.000Z</time>
      </trkpt>
      <trkpt lat="45.15591" lon="5.45525">
        <ele>896.20001220703</ele>
        <time>2020-02-24T13:11:09.000Z</time>
      </trkpt>
      <trkpt lat="45.15591" lon="5.45522">
        <ele>895.40002441406</ele>
        <time>2020-02-24T13:11:13.000Z</time>
      </trkpt>
      <trkpt lat="45.15591" lon="5.4552">
        <ele>895.20001220703</ele>
        <time>2020-02-24T13:11:14.000Z</time>
      </trkpt>
      <trkpt lat="45.15591" lon="5.45516">
        <ele>894.79998779297</ele>
        <time>2020-02-24T13:11:15.000Z</time>
      </trkpt>
      <trkpt lat="45.15593" lon="5.45509">
        <ele>894.20001220703</ele>
        <time>2020-02-24T13:11:18.000Z</time>
      </trkpt>
      <trkpt lat="45.15593" lon="5.45508">
        <ele>894</ele>
        <time>2020-02-24T13:11:19.000Z</time>
      </trkpt>
      <trkpt lat="45.15593" lon="5.45507">
        <ele>894</ele>
        <time>2020-02-24T13:11:20.000Z</time>
      </trkpt>
      <trkpt lat="45.15593" lon="5.45507">
        <ele>893.59997558594</ele>
        <time>2020-02-24T13:11:22.000Z</time>
      </trkpt>
      <trkpt lat="45.15594" lon="5.45508">
        <ele>893</ele>
        <time>2020-02-24T13:11:25.000Z</time>
      </trkpt>
      <trkpt lat="45.15593" lon="5.45509">
        <ele>892.59997558594</ele>
        <time>2020-02-24T13:11:27.000Z</time>
      </trkpt>
      <trkpt lat="45.15594" lon="5.45507">
        <ele>892.20001220703</ele>
        <time>2020-02-24T13:11:29.000Z</time>
      </trkpt>
      <trkpt lat="45.15594" lon="5.45509">
        <ele>891.79998779297</ele>
        <time>2020-02-24T13:11:30.000Z</time>
      </trkpt>
      <trkpt lat="45.15595" lon="5.4551">
        <ele>891.59997558594</ele>
        <time>2020-02-24T13:11:32.000Z</time>
      </trkpt>
      <trkpt lat="45.15592" lon="5.45516">
        <ele>891.40002441406</ele>
        <time>2020-02-24T13:11:35.000Z</time>
      </trkpt>
      <trkpt lat="45.1559" lon="5.45522">
        <ele>891</ele>
        <time>2020-02-24T13:11:40.000Z</time>
      </trkpt>
      <trkpt lat="45.15591" lon="5.45521">
        <ele>891</ele>
        <time>2020-02-24T13:11:41.000Z</time>
      </trkpt>
      <trkpt lat="45.15593" lon="5.45521">
        <ele>891</ele>
        <time>2020-02-24T13:11:42.000Z</time>
      </trkpt>
      <trkpt lat="45.15595" lon="5.45515">
        <ele>891</ele>
        <time>2020-02-24T13:11:46.000Z</time>
      </trkpt>
      <trkpt lat="45.15595" lon="5.45514">
        <ele>891</ele>
        <time>2020-02-24T13:11:47.000Z</time>
      </trkpt>
      <trkpt lat="45.15598" lon="5.45513">
        <ele>890.79998779297</ele>
        <time>2020-02-24T13:11:50.000Z</time>
      </trkpt>
      <trkpt lat="45.15598" lon="5.45512">
        <ele>890.59997558594</ele>
        <time>2020-02-24T13:11:52.000Z</time>
      </trkpt>
      <trkpt lat="45.15598" lon="5.4551">
        <ele>890.40002441406</ele>
        <time>2020-02-24T13:11:53.000Z</time>
      </trkpt>
      <trkpt lat="45.15598" lon="5.455">
        <ele>890.40002441406</ele>
        <time>2020-02-24T13:11:55.000Z</time>
      </trkpt>
      <trkpt lat="45.15598" lon="5.45498">
        <ele>890.40002441406</ele>
        <time>2020-02-24T13:11:56.000Z</time>
      </trkpt>
      <trkpt lat="45.15601" lon="5.45487">
        <ele>889.79998779297</ele>
        <time>2020-02-24T13:12:03.000Z</time>
      </trkpt>
      <trkpt lat="45.15601" lon="5.45481">
        <ele>889.59997558594</ele>
        <time>2020-02-24T13:12:05.000Z</time>
      </trkpt>
      <trkpt lat="45.15597" lon="5.45478">
        <ele>889.40002441406</ele>
        <time>2020-02-24T13:12:08.000Z</time>
      </trkpt>
      <trkpt lat="45.15592" lon="5.45479">
        <ele>889.20001220703</ele>
        <time>2020-02-24T13:12:10.000Z</time>
      </trkpt>
      <trkpt lat="45.15591" lon="5.45471">
        <ele>889</ele>
        <time>2020-02-24T13:12:16.000Z</time>
      </trkpt>
      <trkpt lat="45.1559" lon="5.4547">
        <ele>889</ele>
        <time>2020-02-24T13:12:17.000Z</time>
      </trkpt>
      <trkpt lat="45.15591" lon="5.45469">
        <ele>888.59997558594</ele>
        <time>2020-02-24T13:12:18.000Z</time>
      </trkpt>
      <trkpt lat="45.15593" lon="5.45468">
        <ele>888.20001220703</ele>
        <time>2020-02-24T13:12:19.000Z</time>
      </trkpt>
      <trkpt lat="45.15599" lon="5.45462">
        <ele>887.40002441406</ele>
        <time>2020-02-24T13:12:22.000Z</time>
      </trkpt>
      <trkpt lat="45.15605" lon="5.45454">
        <ele>886.20001220703</ele>
        <time>2020-02-24T13:12:27.000Z</time>
      </trkpt>
      <trkpt lat="45.15604" lon="5.45451">
        <ele>885.40002441406</ele>
        <time>2020-02-24T13:12:30.000Z</time>
      </trkpt>
      <trkpt lat="45.15604" lon="5.45451">
        <ele>884.79998779297</ele>
        <time>2020-02-24T13:12:31.000Z</time>
      </trkpt>
      <trkpt lat="45.15602" lon="5.45448">
        <ele>883.79998779297</ele>
        <time>2020-02-24T13:12:35.000Z</time>
      </trkpt>
      <trkpt lat="45.15601" lon="5.45448">
        <ele>883.40002441406</ele>
        <time>2020-02-24T13:12:36.000Z</time>
      </trkpt>
      <trkpt lat="45.156" lon="5.45449">
        <ele>883.20001220703</ele>
        <time>2020-02-24T13:12:37.000Z</time>
      </trkpt>
      <trkpt lat="45.15594" lon="5.45452">
        <ele>882.59997558594</ele>
        <time>2020-02-24T13:12:40.000Z</time>
      </trkpt>
      <trkpt lat="45.15589" lon="5.45456">
        <ele>882.20001220703</ele>
        <time>2020-02-24T13:12:42.000Z</time>
      </trkpt>
      <trkpt lat="45.15588" lon="5.45454">
        <ele>881.59997558594</ele>
        <time>2020-02-24T13:12:47.000Z</time>
      </trkpt>
      <trkpt lat="45.15587" lon="5.45454">
        <ele>881.20001220703</ele>
        <time>2020-02-24T13:12:48.000Z</time>
      </trkpt>
      <trkpt lat="45.1559" lon="5.45451">
        <ele>881</ele>
        <time>2020-02-24T13:12:49.000Z</time>
      </trkpt>
      <trkpt lat="45.15588" lon="5.45445">
        <ele>880.20001220703</ele>
        <time>2020-02-24T13:12:52.000Z</time>
      </trkpt>
      <trkpt lat="45.15582" lon="5.45447">
        <ele>879.79998779297</ele>
        <time>2020-02-24T13:12:53.000Z</time>
      </trkpt>
      <trkpt lat="45.15579" lon="5.45449">
        <ele>879</ele>
        <time>2020-02-24T13:12:56.000Z</time>
      </trkpt>
      <trkpt lat="45.15572" lon="5.45446">
        <ele>878.59997558594</ele>
        <time>2020-02-24T13:13:00.000Z</time>
      </trkpt>
      <trkpt lat="45.15571" lon="5.45444">
        <ele>878.40002441406</ele>
        <time>2020-02-24T13:13:02.000Z</time>
      </trkpt>
      <trkpt lat="45.15568" lon="5.45446">
        <ele>878</ele>
        <time>2020-02-24T13:13:05.000Z</time>
      </trkpt>
      <trkpt lat="45.15567" lon="5.45445">
        <ele>877</ele>
        <time>2020-02-24T13:13:08.000Z</time>
      </trkpt>
      <trkpt lat="45.15566" lon="5.45442">
        <ele>876</ele>
        <time>2020-02-24T13:13:12.000Z</time>
      </trkpt>
      <trkpt lat="45.15575" lon="5.45436">
        <ele>875</ele>
        <time>2020-02-24T13:13:15.000Z</time>
      </trkpt>
      <trkpt lat="45.15595" lon="5.45426">
        <ele>873.79998779297</ele>
        <time>2020-02-24T13:13:19.000Z</time>
      </trkpt>
      <trkpt lat="45.15606" lon="5.4542">
        <ele>872.40002441406</ele>
        <time>2020-02-24T13:13:22.000Z</time>
      </trkpt>
      <trkpt lat="45.15612" lon="5.45415">
        <ele>871.40002441406</ele>
        <time>2020-02-24T13:13:24.000Z</time>
      </trkpt>
      <trkpt lat="45.15619" lon="5.4541">
        <ele>870.20001220703</ele>
        <time>2020-02-24T13:13:26.000Z</time>
      </trkpt>
      <trkpt lat="45.15631" lon="5.45396">
        <ele>869.20001220703</ele>
        <time>2020-02-24T13:13:29.000Z</time>
      </trkpt>
      <trkpt lat="45.15633" lon="5.45391">
        <ele>869</ele>
        <time>2020-02-24T13:13:30.000Z</time>
      </trkpt>
      <trkpt lat="45.15638" lon="5.45378">
        <ele>868.59997558594</ele>
        <time>2020-02-24T13:13:33.000Z</time>
      </trkpt>
      <trkpt lat="45.15646" lon="5.45366">
        <ele>868</ele>
        <time>2020-02-24T13:13:36.000Z</time>
      </trkpt>
      <trkpt lat="45.15645" lon="5.45361">
        <ele>867.59997558594</ele>
        <time>2020-02-24T13:13:37.000Z</time>
      </trkpt>
      <trkpt lat="45.15646" lon="5.45349">
        <ele>867.20001220703</ele>
        <time>2020-02-24T13:13:41.000Z</time>
      </trkpt>
      <trkpt lat="45.15649" lon="5.45346">
        <ele>866.79998779297</ele>
        <time>2020-02-24T13:13:43.000Z</time>
      </trkpt>
      <trkpt lat="45.15657" lon="5.45338">
        <ele>865.79998779297</ele>
        <time>2020-02-24T13:13:48.000Z</time>
      </trkpt>
      <trkpt lat="45.1567" lon="5.45336">
        <ele>864.59997558594</ele>
        <time>2020-02-24T13:13:52.000Z</time>
      </trkpt>
      <trkpt lat="45.15674" lon="5.45337">
        <ele>864</ele>
        <time>2020-02-24T13:13:54.000Z</time>
      </trkpt>
      <trkpt lat="45.15674" lon="5.45336">
        <ele>863.59997558594</ele>
        <time>2020-02-24T13:13:55.000Z</time>
      </trkpt>
      <trkpt lat="45.15672" lon="5.45336">
        <ele>862.59997558594</ele>
        <time>2020-02-24T13:13:58.000Z</time>
      </trkpt>
      <trkpt lat="45.15672" lon="5.45336">
        <ele>862.20001220703</ele>
        <time>2020-02-24T13:13:59.000Z</time>
      </trkpt>
      <trkpt lat="45.15673" lon="5.45334">
        <ele>861.59997558594</ele>
        <time>2020-02-24T13:14:01.000Z</time>
      </trkpt>
      <trkpt lat="45.15668" lon="5.45334">
        <ele>861.40002441406</ele>
        <time>2020-02-24T13:14:02.000Z</time>
      </trkpt>
      <trkpt lat="45.15662" lon="5.45334">
        <ele>860.40002441406</ele>
        <time>2020-02-24T13:14:05.000Z</time>
      </trkpt>
      <trkpt lat="45.15661" lon="5.45335">
        <ele>860</ele>
        <time>2020-02-24T13:14:06.000Z</time>
      </trkpt>
      <trkpt lat="45.1566" lon="5.45331">
        <ele>859.40002441406</ele>
        <time>2020-02-24T13:14:10.000Z</time>
      </trkpt>
      <trkpt lat="45.1566" lon="5.45329">
        <ele>859.20001220703</ele>
        <time>2020-02-24T13:14:11.000Z</time>
      </trkpt>
      <trkpt lat="45.1566" lon="5.45327">
        <ele>859</ele>
        <time>2020-02-24T13:14:12.000Z</time>
      </trkpt>
      <trkpt lat="45.15661" lon="5.45327">
        <ele>858.59997558594</ele>
        <time>2020-02-24T13:14:13.000Z</time>
      </trkpt>
      <trkpt lat="45.15661" lon="5.45326">
        <ele>858.20001220703</ele>
        <time>2020-02-24T13:14:14.000Z</time>
      </trkpt>
      <trkpt lat="45.15661" lon="5.45325">
        <ele>857.40002441406</ele>
        <time>2020-02-24T13:14:16.000Z</time>
      </trkpt>
      <trkpt lat="45.1566" lon="5.45324">
        <ele>857</ele>
        <time>2020-02-24T13:14:17.000Z</time>
      </trkpt>
      <trkpt lat="45.15662" lon="5.4532">
        <ele>855.79998779297</ele>
        <time>2020-02-24T13:14:19.000Z</time>
      </trkpt>
      <trkpt lat="45.15662" lon="5.45314">
        <ele>855.20001220703</ele>
        <time>2020-02-24T13:14:21.000Z</time>
      </trkpt>
      <trkpt lat="45.15659" lon="5.45312">
        <ele>855</ele>
        <time>2020-02-24T13:14:23.000Z</time>
      </trkpt>
      <trkpt lat="45.15659" lon="5.45307">
        <ele>855</ele>
        <time>2020-02-24T13:14:24.000Z</time>
      </trkpt>
      <trkpt lat="45.15656" lon="5.45306">
        <ele>855.40002441406</ele>
        <time>2020-02-24T13:14:27.000Z</time>
      </trkpt>
      <trkpt lat="45.15655" lon="5.45305">
        <ele>855.40002441406</ele>
        <time>2020-02-24T13:14:28.000Z</time>
      </trkpt>
      <trkpt lat="45.1565" lon="5.45304">
        <ele>855.40002441406</ele>
        <time>2020-02-24T13:14:29.000Z</time>
      </trkpt>
      <trkpt lat="45.15648" lon="5.453">
        <ele>855.40002441406</ele>
        <time>2020-02-24T13:14:31.000Z</time>
      </trkpt>
      <trkpt lat="45.1565" lon="5.45298">
        <ele>855.40002441406</ele>
        <time>2020-02-24T13:14:32.000Z</time>
      </trkpt>
      <trkpt lat="45.15652" lon="5.45295">
        <ele>855.59997558594</ele>
        <time>2020-02-24T13:14:34.000Z</time>
      </trkpt>
      <trkpt lat="45.15656" lon="5.45292">
        <ele>856</ele>
        <time>2020-02-24T13:14:35.000Z</time>
      </trkpt>
      <trkpt lat="45.15647" lon="5.45296">
        <ele>857</ele>
        <time>2020-02-24T13:14:39.000Z</time>
      </trkpt>
      <trkpt lat="45.1565" lon="5.45294">
        <ele>855.79998779297</ele>
        <time>2020-02-24T13:14:43.000Z</time>
      </trkpt>
      <trkpt lat="45.15651" lon="5.45292">
        <ele>855.40002441406</ele>
        <time>2020-02-24T13:14:45.000Z</time>
      </trkpt>
      <trkpt lat="45.15652" lon="5.45289">
        <ele>854.79998779297</ele>
        <time>2020-02-24T13:14:47.000Z</time>
      </trkpt>
      <trkpt lat="45.15652" lon="5.45285">
        <ele>854.20001220703</ele>
        <time>2020-02-24T13:14:51.000Z</time>
      </trkpt>
      <trkpt lat="45.15651" lon="5.45285">
        <ele>854</ele>
        <time>2020-02-24T13:14:52.000Z</time>
      </trkpt>
      <trkpt lat="45.15649" lon="5.45286">
        <ele>853.79998779297</ele>
        <time>2020-02-24T13:14:53.000Z</time>
      </trkpt>
      <trkpt lat="45.15642" lon="5.45287">
        <ele>853.59997558594</ele>
        <time>2020-02-24T13:14:54.000Z</time>
      </trkpt>
      <trkpt lat="45.1564" lon="5.45287">
        <ele>853.20001220703</ele>
        <time>2020-02-24T13:14:56.000Z</time>
      </trkpt>
      <trkpt lat="45.15639" lon="5.45287">
        <ele>853</ele>
        <time>2020-02-24T13:14:57.000Z</time>
      </trkpt>
      <trkpt lat="45.15638" lon="5.45284">
        <ele>853</ele>
        <time>2020-02-24T13:14:59.000Z</time>
      </trkpt>
      <trkpt lat="45.15644" lon="5.45278">
        <ele>853</ele>
        <time>2020-02-24T13:15:02.000Z</time>
      </trkpt>
      <trkpt lat="45.15645" lon="5.45274">
        <ele>853</ele>
        <time>2020-02-24T13:15:03.000Z</time>
      </trkpt>
      <trkpt lat="45.15645" lon="5.45271">
        <ele>853</ele>
        <time>2020-02-24T13:15:04.000Z</time>
      </trkpt>
      <trkpt lat="45.15648" lon="5.45265">
        <ele>853</ele>
        <time>2020-02-24T13:15:06.000Z</time>
      </trkpt>
      <trkpt lat="45.1565" lon="5.45262">
        <ele>852.79998779297</ele>
        <time>2020-02-24T13:15:07.000Z</time>
      </trkpt>
      <trkpt lat="45.15654" lon="5.45257">
        <ele>852.20001220703</ele>
        <time>2020-02-24T13:15:12.000Z</time>
      </trkpt>
      <trkpt lat="45.15655" lon="5.45256">
        <ele>851.40002441406</ele>
        <time>2020-02-24T13:15:13.000Z</time>
      </trkpt>
      <trkpt lat="45.15655" lon="5.45255">
        <ele>850.79998779297</ele>
        <time>2020-02-24T13:15:14.000Z</time>
      </trkpt>
      <trkpt lat="45.15653" lon="5.45254">
        <ele>850.20001220703</ele>
        <time>2020-02-24T13:15:16.000Z</time>
      </trkpt>
      <trkpt lat="45.15653" lon="5.45251">
        <ele>849.59997558594</ele>
        <time>2020-02-24T13:15:18.000Z</time>
      </trkpt>
      <trkpt lat="45.15655" lon="5.4525">
        <ele>849.40002441406</ele>
        <time>2020-02-24T13:15:20.000Z</time>
      </trkpt>
      <trkpt lat="45.15656" lon="5.45249">
        <ele>849.20001220703</ele>
        <time>2020-02-24T13:15:21.000Z</time>
      </trkpt>
      <trkpt lat="45.15656" lon="5.45247">
        <ele>849.20001220703</ele>
        <time>2020-02-24T13:15:22.000Z</time>
      </trkpt>
      <trkpt lat="45.15658" lon="5.45244">
        <ele>848.59997558594</ele>
        <time>2020-02-24T13:15:24.000Z</time>
      </trkpt>
      <trkpt lat="45.1566" lon="5.4524">
        <ele>847.40002441406</ele>
        <time>2020-02-24T13:15:27.000Z</time>
      </trkpt>
      <trkpt lat="45.15673" lon="5.45223">
        <ele>846.20001220703</ele>
        <time>2020-02-24T13:15:32.000Z</time>
      </trkpt>
      <trkpt lat="45.15674" lon="5.45221">
        <ele>846</ele>
        <time>2020-02-24T13:15:33.000Z</time>
      </trkpt>
      <trkpt lat="45.15663" lon="5.45223">
        <ele>845</ele>
        <time>2020-02-24T13:15:36.000Z</time>
      </trkpt>
      <trkpt lat="45.15653" lon="5.45225">
        <ele>844.59997558594</ele>
        <time>2020-02-24T13:15:38.000Z</time>
      </trkpt>
      <trkpt lat="45.15647" lon="5.45224">
        <ele>844</ele>
        <time>2020-02-24T13:15:41.000Z</time>
      </trkpt>
      <trkpt lat="45.15635" lon="5.45227">
        <ele>843.40002441406</ele>
        <time>2020-02-24T13:15:44.000Z</time>
      </trkpt>
      <trkpt lat="45.15631" lon="5.45225">
        <ele>842.79998779297</ele>
        <time>2020-02-24T13:15:47.000Z</time>
      </trkpt>
      <trkpt lat="45.15632" lon="5.45219">
        <ele>842</ele>
        <time>2020-02-24T13:15:50.000Z</time>
      </trkpt>
      <trkpt lat="45.15635" lon="5.45214">
        <ele>841.79998779297</ele>
        <time>2020-02-24T13:15:52.000Z</time>
      </trkpt>
      <trkpt lat="45.15635" lon="5.45211">
        <ele>841.59997558594</ele>
        <time>2020-02-24T13:15:53.000Z</time>
      </trkpt>
      <trkpt lat="45.15636" lon="5.45205">
        <ele>841.40002441406</ele>
        <time>2020-02-24T13:15:56.000Z</time>
      </trkpt>
      <trkpt lat="45.15637" lon="5.45202">
        <ele>841.40002441406</ele>
        <time>2020-02-24T13:15:57.000Z</time>
      </trkpt>
      <trkpt lat="45.15638" lon="5.45197">
        <ele>841.40002441406</ele>
        <time>2020-02-24T13:16:00.000Z</time>
      </trkpt>
      <trkpt lat="45.15634" lon="5.45197">
        <ele>841.79998779297</ele>
        <time>2020-02-24T13:16:02.000Z</time>
      </trkpt>
      <trkpt lat="45.15633" lon="5.45197">
        <ele>841.79998779297</ele>
        <time>2020-02-24T13:16:03.000Z</time>
      </trkpt>
      <trkpt lat="45.15639" lon="5.45187">
        <ele>841.79998779297</ele>
        <time>2020-02-24T13:16:06.000Z</time>
      </trkpt>
      <trkpt lat="45.15645" lon="5.45177">
        <ele>842</ele>
        <time>2020-02-24T13:16:09.000Z</time>
      </trkpt>
      <trkpt lat="45.1564" lon="5.45172">
        <ele>842.59997558594</ele>
        <time>2020-02-24T13:16:15.000Z</time>
      </trkpt>
      <trkpt lat="45.15638" lon="5.45171">
        <ele>842.59997558594</ele>
        <time>2020-02-24T13:16:17.000Z</time>
      </trkpt>
      <trkpt lat="45.1563" lon="5.4517">
        <ele>843</ele>
        <time>2020-02-24T13:16:21.000Z</time>
      </trkpt>
      <trkpt lat="45.1563" lon="5.45169">
        <ele>843</ele>
        <time>2020-02-24T13:16:22.000Z</time>
      </trkpt>
      <trkpt lat="45.15623" lon="5.45163">
        <ele>843.20001220703</ele>
        <time>2020-02-24T13:16:26.000Z</time>
      </trkpt>
      <trkpt lat="45.15613" lon="5.45162">
        <ele>843.40002441406</ele>
        <time>2020-02-24T13:16:31.000Z</time>
      </trkpt>
      <trkpt lat="45.15601" lon="5.45164">
        <ele>843</ele>
        <time>2020-02-24T13:16:33.000Z</time>
      </trkpt>
      <trkpt lat="45.15592" lon="5.45164">
        <ele>842.59997558594</ele>
        <time>2020-02-24T13:16:36.000Z</time>
      </trkpt>
      <trkpt lat="45.15586" lon="5.45164">
        <ele>842.40002441406</ele>
        <time>2020-02-24T13:16:39.000Z</time>
      </trkpt>
      <trkpt lat="45.15583" lon="5.45162">
        <ele>842</ele>
        <time>2020-02-24T13:16:42.000Z</time>
      </trkpt>
      <trkpt lat="45.15583" lon="5.45161">
        <ele>841.79998779297</ele>
        <time>2020-02-24T13:16:43.000Z</time>
      </trkpt>
      <trkpt lat="45.15583" lon="5.4516">
        <ele>841.40002441406</ele>
        <time>2020-02-24T13:16:44.000Z</time>
      </trkpt>
      <trkpt lat="45.15583" lon="5.45157">
        <ele>840.79998779297</ele>
        <time>2020-02-24T13:16:47.000Z</time>
      </trkpt>
      <trkpt lat="45.15575" lon="5.45157">
        <ele>840.40002441406</ele>
        <time>2020-02-24T13:16:50.000Z</time>
      </trkpt>
      <trkpt lat="45.1557" lon="5.45156">
        <ele>839.59997558594</ele>
        <time>2020-02-24T13:16:53.000Z</time>
      </trkpt>
      <trkpt lat="45.1557" lon="5.45155">
        <ele>839.40002441406</ele>
        <time>2020-02-24T13:16:54.000Z</time>
      </trkpt>
      <trkpt lat="45.15567" lon="5.45152">
        <ele>838.40002441406</ele>
        <time>2020-02-24T13:16:57.000Z</time>
      </trkpt>
      <trkpt lat="45.15567" lon="5.45151">
        <ele>838.20001220703</ele>
        <time>2020-02-24T13:16:58.000Z</time>
      </trkpt>
      <trkpt lat="45.15567" lon="5.4515">
        <ele>838</ele>
        <time>2020-02-24T13:16:59.000Z</time>
      </trkpt>
      <trkpt lat="45.15567" lon="5.45147">
        <ele>838</ele>
        <time>2020-02-24T13:17:00.000Z</time>
      </trkpt>
      <trkpt lat="45.15567" lon="5.45145">
        <ele>838</ele>
        <time>2020-02-24T13:17:01.000Z</time>
      </trkpt>
      <trkpt lat="45.15568" lon="5.45141">
        <ele>837.79998779297</ele>
        <time>2020-02-24T13:17:02.000Z</time>
      </trkpt>
      <trkpt lat="45.15567" lon="5.45136">
        <ele>837.59997558594</ele>
        <time>2020-02-24T13:17:04.000Z</time>
      </trkpt>
      <trkpt lat="45.15568" lon="5.45133">
        <ele>837.20001220703</ele>
        <time>2020-02-24T13:17:06.000Z</time>
      </trkpt>
      <trkpt lat="45.1557" lon="5.45131">
        <ele>837</ele>
        <time>2020-02-24T13:17:07.000Z</time>
      </trkpt>
      <trkpt lat="45.15571" lon="5.45126">
        <ele>836.79998779297</ele>
        <time>2020-02-24T13:17:09.000Z</time>
      </trkpt>
      <trkpt lat="45.15573" lon="5.45124">
        <ele>836.59997558594</ele>
        <time>2020-02-24T13:17:10.000Z</time>
      </trkpt>
      <trkpt lat="45.15577" lon="5.45118">
        <ele>836.20001220703</ele>
        <time>2020-02-24T13:17:13.000Z</time>
      </trkpt>
      <trkpt lat="45.15583" lon="5.45106">
        <ele>835.20001220703</ele>
        <time>2020-02-24T13:17:19.000Z</time>
      </trkpt>
      <trkpt lat="45.15581" lon="5.45105">
        <ele>835</ele>
        <time>2020-02-24T13:17:20.000Z</time>
      </trkpt>
      <trkpt lat="45.15581" lon="5.45103">
        <ele>834.79998779297</ele>
        <time>2020-02-24T13:17:21.000Z</time>
      </trkpt>
      <trkpt lat="45.15579" lon="5.45099">
        <ele>834.20001220703</ele>
        <time>2020-02-24T13:17:23.000Z</time>
      </trkpt>
      <trkpt lat="45.15577" lon="5.45099">
        <ele>834</ele>
        <time>2020-02-24T13:17:24.000Z</time>
      </trkpt>
      <trkpt lat="45.15579" lon="5.45094">
        <ele>833.79998779297</ele>
        <time>2020-02-24T13:17:25.000Z</time>
      </trkpt>
      <trkpt lat="45.1558" lon="5.4509">
        <ele>833.59997558594</ele>
        <time>2020-02-24T13:17:27.000Z</time>
      </trkpt>
      <trkpt lat="45.15583" lon="5.45086">
        <ele>833.20001220703</ele>
        <time>2020-02-24T13:17:29.000Z</time>
      </trkpt>
      <trkpt lat="45.15584" lon="5.45085">
        <ele>833</ele>
        <time>2020-02-24T13:17:30.000Z</time>
      </trkpt>
      <trkpt lat="45.15592" lon="5.45079">
        <ele>831.79998779297</ele>
        <time>2020-02-24T13:17:34.000Z</time>
      </trkpt>
      <trkpt lat="45.15593" lon="5.45079">
        <ele>831.40002441406</ele>
        <time>2020-02-24T13:17:35.000Z</time>
      </trkpt>
      <trkpt lat="45.15595" lon="5.45077">
        <ele>831.20001220703</ele>
        <time>2020-02-24T13:17:36.000Z</time>
      </trkpt>
      <trkpt lat="45.15599" lon="5.45075">
        <ele>830.59997558594</ele>
        <time>2020-02-24T13:17:38.000Z</time>
      </trkpt>
      <trkpt lat="45.15609" lon="5.45066">
        <ele>830</ele>
        <time>2020-02-24T13:17:43.000Z</time>
      </trkpt>
      <trkpt lat="45.15609" lon="5.45064">
        <ele>829.79998779297</ele>
        <time>2020-02-24T13:17:44.000Z</time>
      </trkpt>
      <trkpt lat="45.15612" lon="5.4506">
        <ele>829.59997558594</ele>
        <time>2020-02-24T13:17:46.000Z</time>
      </trkpt>
      <trkpt lat="45.15615" lon="5.45055">
        <ele>829</ele>
        <time>2020-02-24T13:17:48.000Z</time>
      </trkpt>
      <trkpt lat="45.15616" lon="5.45052">
        <ele>828.79998779297</ele>
        <time>2020-02-24T13:17:49.000Z</time>
      </trkpt>
      <trkpt lat="45.15618" lon="5.45048">
        <ele>828.20001220703</ele>
        <time>2020-02-24T13:17:51.000Z</time>
      </trkpt>
      <trkpt lat="45.15618" lon="5.45043">
        <ele>827.79998779297</ele>
        <time>2020-02-24T13:17:54.000Z</time>
      </trkpt>
      <trkpt lat="45.1562" lon="5.45037">
        <ele>827</ele>
        <time>2020-02-24T13:17:57.000Z</time>
      </trkpt>
      <trkpt lat="45.15621" lon="5.45035">
        <ele>826.40002441406</ele>
        <time>2020-02-24T13:17:59.000Z</time>
      </trkpt>
      <trkpt lat="45.15622" lon="5.45032">
        <ele>825.79998779297</ele>
        <time>2020-02-24T13:18:01.000Z</time>
      </trkpt>
      <trkpt lat="45.15621" lon="5.45026">
        <ele>824.79998779297</ele>
        <time>2020-02-24T13:18:05.000Z</time>
      </trkpt>
      <trkpt lat="45.15621" lon="5.45023">
        <ele>823.79998779297</ele>
        <time>2020-02-24T13:18:08.000Z</time>
      </trkpt>
      <trkpt lat="45.15624" lon="5.45018">
        <ele>822.59997558594</ele>
        <time>2020-02-24T13:18:11.000Z</time>
      </trkpt>
      <trkpt lat="45.15626" lon="5.45014">
        <ele>822</ele>
        <time>2020-02-24T13:18:13.000Z</time>
      </trkpt>
      <trkpt lat="45.15623" lon="5.45013">
        <ele>821.79998779297</ele>
        <time>2020-02-24T13:18:14.000Z</time>
      </trkpt>
      <trkpt lat="45.15622" lon="5.45012">
        <ele>821.40002441406</ele>
        <time>2020-02-24T13:18:15.000Z</time>
      </trkpt>
      <trkpt lat="45.15623" lon="5.4501">
        <ele>821.20001220703</ele>
        <time>2020-02-24T13:18:16.000Z</time>
      </trkpt>
      <trkpt lat="45.15624" lon="5.45009">
        <ele>821</ele>
        <time>2020-02-24T13:18:17.000Z</time>
      </trkpt>
      <trkpt lat="45.15623" lon="5.45005">
        <ele>820.59997558594</ele>
        <time>2020-02-24T13:18:19.000Z</time>
      </trkpt>
      <trkpt lat="45.15621" lon="5.45005">
        <ele>820.40002441406</ele>
        <time>2020-02-24T13:18:20.000Z</time>
      </trkpt>
      <trkpt lat="45.15623" lon="5.44993">
        <ele>819.59997558594</ele>
        <time>2020-02-24T13:18:25.000Z</time>
      </trkpt>
      <trkpt lat="45.15623" lon="5.44992">
        <ele>819.40002441406</ele>
        <time>2020-02-24T13:18:26.000Z</time>
      </trkpt>
      <trkpt lat="45.15619" lon="5.4499">
        <ele>819.20001220703</ele>
        <time>2020-02-24T13:18:28.000Z</time>
      </trkpt>
      <trkpt lat="45.15615" lon="5.44986">
        <ele>818.40002441406</ele>
        <time>2020-02-24T13:18:31.000Z</time>
      </trkpt>
      <trkpt lat="45.15615" lon="5.44985">
        <ele>818.20001220703</ele>
        <time>2020-02-24T13:18:32.000Z</time>
      </trkpt>
      <trkpt lat="45.15614" lon="5.44984">
        <ele>818</ele>
        <time>2020-02-24T13:18:33.000Z</time>
      </trkpt>
      <trkpt lat="45.15613" lon="5.44984">
        <ele>818</ele>
        <time>2020-02-24T13:18:34.000Z</time>
      </trkpt>
      <trkpt lat="45.156" lon="5.44988">
        <ele>817.40002441406</ele>
        <time>2020-02-24T13:18:36.000Z</time>
      </trkpt>
      <trkpt lat="45.15597" lon="5.44988">
        <ele>817.20001220703</ele>
        <time>2020-02-24T13:18:37.000Z</time>
      </trkpt>
      <trkpt lat="45.15598" lon="5.44987">
        <ele>817</ele>
        <time>2020-02-24T13:18:38.000Z</time>
      </trkpt>
      <trkpt lat="45.15595" lon="5.44988">
        <ele>816.79998779297</ele>
        <time>2020-02-24T13:18:39.000Z</time>
      </trkpt>
      <trkpt lat="45.15592" lon="5.44988">
        <ele>816.79998779297</ele>
        <time>2020-02-24T13:18:40.000Z</time>
      </trkpt>
      <trkpt lat="45.15589" lon="5.44988">
        <ele>816.79998779297</ele>
        <time>2020-02-24T13:18:42.000Z</time>
      </trkpt>
      <trkpt lat="45.15587" lon="5.44986">
        <ele>815.79998779297</ele>
        <time>2020-02-24T13:18:45.000Z</time>
      </trkpt>
      <trkpt lat="45.15587" lon="5.44982">
        <ele>814.59997558594</ele>
        <time>2020-02-24T13:18:49.000Z</time>
      </trkpt>
      <trkpt lat="45.15589" lon="5.4498">
        <ele>814.59997558594</ele>
        <time>2020-02-24T13:18:50.000Z</time>
      </trkpt>
      <trkpt lat="45.15593" lon="5.44976">
        <ele>814.40002441406</ele>
        <time>2020-02-24T13:18:53.000Z</time>
      </trkpt>
      <trkpt lat="45.15596" lon="5.44969">
        <ele>813.59997558594</ele>
        <time>2020-02-24T13:18:56.000Z</time>
      </trkpt>
      <trkpt lat="45.15597" lon="5.44967">
        <ele>813.20001220703</ele>
        <time>2020-02-24T13:18:57.000Z</time>
      </trkpt>
      <trkpt lat="45.15595" lon="5.44966">
        <ele>812.20001220703</ele>
        <time>2020-02-24T13:19:01.000Z</time>
      </trkpt>
      <trkpt lat="45.15592" lon="5.44965">
        <ele>811.59997558594</ele>
        <time>2020-02-24T13:19:03.000Z</time>
      </trkpt>
      <trkpt lat="45.15593" lon="5.44964">
        <ele>811.20001220703</ele>
        <time>2020-02-24T13:19:04.000Z</time>
      </trkpt>
      <trkpt lat="45.15595" lon="5.44962">
        <ele>810.79998779297</ele>
        <time>2020-02-24T13:19:05.000Z</time>
      </trkpt>
      <trkpt lat="45.15599" lon="5.44957">
        <ele>810.20001220703</ele>
        <time>2020-02-24T13:19:07.000Z</time>
      </trkpt>
      <trkpt lat="45.156" lon="5.44956">
        <ele>810</ele>
        <time>2020-02-24T13:19:08.000Z</time>
      </trkpt>
      <trkpt lat="45.15598" lon="5.44954">
        <ele>809.59997558594</ele>
        <time>2020-02-24T13:19:10.000Z</time>
      </trkpt>
      <trkpt lat="45.15603" lon="5.44947">
        <ele>808.79998779297</ele>
        <time>2020-02-24T13:19:14.000Z</time>
      </trkpt>
      <trkpt lat="45.15597" lon="5.44948">
        <ele>808.40002441406</ele>
        <time>2020-02-24T13:19:15.000Z</time>
      </trkpt>
      <trkpt lat="45.15601" lon="5.44944">
        <ele>808</ele>
        <time>2020-02-24T13:19:17.000Z</time>
      </trkpt>
      <trkpt lat="45.15606" lon="5.44938">
        <ele>807.59997558594</ele>
        <time>2020-02-24T13:19:20.000Z</time>
      </trkpt>
      <trkpt lat="45.15606" lon="5.44933">
        <ele>806.79998779297</ele>
        <time>2020-02-24T13:19:24.000Z</time>
      </trkpt>
      <trkpt lat="45.15602" lon="5.44932">
        <ele>806.59997558594</ele>
        <time>2020-02-24T13:19:26.000Z</time>
      </trkpt>
      <trkpt lat="45.15601" lon="5.44926">
        <ele>806.20001220703</ele>
        <time>2020-02-24T13:19:30.000Z</time>
      </trkpt>
      <trkpt lat="45.15592" lon="5.44926">
        <ele>805.59997558594</ele>
        <time>2020-02-24T13:19:34.000Z</time>
      </trkpt>
      <trkpt lat="45.15591" lon="5.44925">
        <ele>805.20001220703</ele>
        <time>2020-02-24T13:19:35.000Z</time>
      </trkpt>
      <trkpt lat="45.15585" lon="5.44926">
        <ele>805</ele>
        <time>2020-02-24T13:19:36.000Z</time>
      </trkpt>
      <trkpt lat="45.15584" lon="5.44925">
        <ele>804.59997558594</ele>
        <time>2020-02-24T13:19:37.000Z</time>
      </trkpt>
      <trkpt lat="45.15583" lon="5.44923">
        <ele>804.40002441406</ele>
        <time>2020-02-24T13:19:39.000Z</time>
      </trkpt>
      <trkpt lat="45.1558" lon="5.44924">
        <ele>804.20001220703</ele>
        <time>2020-02-24T13:19:40.000Z</time>
      </trkpt>
      <trkpt lat="45.15576" lon="5.44926">
        <ele>804</ele>
        <time>2020-02-24T13:19:42.000Z</time>
      </trkpt>
      <trkpt lat="45.15575" lon="5.44925">
        <ele>803.79998779297</ele>
        <time>2020-02-24T13:19:43.000Z</time>
      </trkpt>
      <trkpt lat="45.15573" lon="5.44923">
        <ele>803.79998779297</ele>
        <time>2020-02-24T13:19:44.000Z</time>
      </trkpt>
      <trkpt lat="45.15573" lon="5.44914">
        <ele>803.40002441406</ele>
        <time>2020-02-24T13:19:47.000Z</time>
      </trkpt>
      <trkpt lat="45.15573" lon="5.44911">
        <ele>803.20001220703</ele>
        <time>2020-02-24T13:19:48.000Z</time>
      </trkpt>
      <trkpt lat="45.15573" lon="5.44909">
        <ele>802.79998779297</ele>
        <time>2020-02-24T13:19:49.000Z</time>
      </trkpt>
      <trkpt lat="45.15573" lon="5.44907">
        <ele>802.59997558594</ele>
        <time>2020-02-24T13:19:50.000Z</time>
      </trkpt>
      <trkpt lat="45.15575" lon="5.44902">
        <ele>802</ele>
        <time>2020-02-24T13:19:52.000Z</time>
      </trkpt>
      <trkpt lat="45.15574" lon="5.44901">
        <ele>801.79998779297</ele>
        <time>2020-02-24T13:19:53.000Z</time>
      </trkpt>
      <trkpt lat="45.15574" lon="5.44898">
        <ele>801.40002441406</ele>
        <time>2020-02-24T13:19:55.000Z</time>
      </trkpt>
      <trkpt lat="45.15574" lon="5.44895">
        <ele>801</ele>
        <time>2020-02-24T13:19:57.000Z</time>
      </trkpt>
      <trkpt lat="45.15575" lon="5.44893">
        <ele>801</ele>
        <time>2020-02-24T13:19:58.000Z</time>
      </trkpt>
      <trkpt lat="45.15577" lon="5.44888">
        <ele>799.79998779297</ele>
        <time>2020-02-24T13:20:02.000Z</time>
      </trkpt>
      <trkpt lat="45.15577" lon="5.44887">
        <ele>799.59997558594</ele>
        <time>2020-02-24T13:20:03.000Z</time>
      </trkpt>
      <trkpt lat="45.15579" lon="5.44882">
        <ele>799.59997558594</ele>
        <time>2020-02-24T13:20:06.000Z</time>
      </trkpt>
      <trkpt lat="45.15579" lon="5.44882">
        <ele>799.59997558594</ele>
        <time>2020-02-24T13:20:08.000Z</time>
      </trkpt>
      <trkpt lat="45.15579" lon="5.4488">
        <ele>799.59997558594</ele>
        <time>2020-02-24T13:20:09.000Z</time>
      </trkpt>
      <trkpt lat="45.1558" lon="5.44878">
        <ele>799.59997558594</ele>
        <time>2020-02-24T13:20:11.000Z</time>
      </trkpt>
      <trkpt lat="45.15574" lon="5.44881">
        <ele>799.59997558594</ele>
        <time>2020-02-24T13:20:13.000Z</time>
      </trkpt>
      <trkpt lat="45.15574" lon="5.4488">
        <ele>799.40002441406</ele>
        <time>2020-02-24T13:20:14.000Z</time>
      </trkpt>
      <trkpt lat="45.15571" lon="5.44881">
        <ele>798.79998779297</ele>
        <time>2020-02-24T13:20:17.000Z</time>
      </trkpt>
      <trkpt lat="45.15568" lon="5.44879">
        <ele>798.40002441406</ele>
        <time>2020-02-24T13:20:20.000Z</time>
      </trkpt>
      <trkpt lat="45.15565" lon="5.44872">
        <ele>798</ele>
        <time>2020-02-24T13:20:24.000Z</time>
      </trkpt>
      <trkpt lat="45.15564" lon="5.44872">
        <ele>798.20001220703</ele>
        <time>2020-02-24T13:20:25.000Z</time>
      </trkpt>
      <trkpt lat="45.15564" lon="5.4487">
        <ele>798.20001220703</ele>
        <time>2020-02-24T13:20:27.000Z</time>
      </trkpt>
      <trkpt lat="45.15565" lon="5.44868">
        <ele>798</ele>
        <time>2020-02-24T13:20:29.000Z</time>
      </trkpt>
      <trkpt lat="45.15567" lon="5.44866">
        <ele>797.79998779297</ele>
        <time>2020-02-24T13:20:30.000Z</time>
      </trkpt>
      <trkpt lat="45.15569" lon="5.44866">
        <ele>797.59997558594</ele>
        <time>2020-02-24T13:20:31.000Z</time>
      </trkpt>
      <trkpt lat="45.15571" lon="5.44863">
        <ele>796.79998779297</ele>
        <time>2020-02-24T13:20:33.000Z</time>
      </trkpt>
      <trkpt lat="45.15572" lon="5.44861">
        <ele>796.79998779297</ele>
        <time>2020-02-24T13:20:34.000Z</time>
      </trkpt>
      <trkpt lat="45.15572" lon="5.4486">
        <ele>796.59997558594</ele>
        <time>2020-02-24T13:20:35.000Z</time>
      </trkpt>
      <trkpt lat="45.15574" lon="5.44858">
        <ele>796.40002441406</ele>
        <time>2020-02-24T13:20:36.000Z</time>
      </trkpt>
      <trkpt lat="45.15576" lon="5.44852">
        <ele>795.79998779297</ele>
        <time>2020-02-24T13:20:38.000Z</time>
      </trkpt>
      <trkpt lat="45.15577" lon="5.4485">
        <ele>795.59997558594</ele>
        <time>2020-02-24T13:20:39.000Z</time>
      </trkpt>
      <trkpt lat="45.15578" lon="5.44852">
        <ele>795.40002441406</ele>
        <time>2020-02-24T13:20:40.000Z</time>
      </trkpt>
      <trkpt lat="45.1558" lon="5.44851">
        <ele>795.20001220703</ele>
        <time>2020-02-24T13:20:41.000Z</time>
      </trkpt>
      <trkpt lat="45.15581" lon="5.44851">
        <ele>795</ele>
        <time>2020-02-24T13:20:43.000Z</time>
      </trkpt>
      <trkpt lat="45.15582" lon="5.4485">
        <ele>795</ele>
        <time>2020-02-24T13:20:44.000Z</time>
      </trkpt>
      <trkpt lat="45.15584" lon="5.44849">
        <ele>794.79998779297</ele>
        <time>2020-02-24T13:20:46.000Z</time>
      </trkpt>
      <trkpt lat="45.15587" lon="5.44846">
        <ele>794.59997558594</ele>
        <time>2020-02-24T13:20:49.000Z</time>
      </trkpt>
      <trkpt lat="45.1559" lon="5.44843">
        <ele>794.40002441406</ele>
        <time>2020-02-24T13:20:52.000Z</time>
      </trkpt>
      <trkpt lat="45.1559" lon="5.44841">
        <ele>794.40002441406</ele>
        <time>2020-02-24T13:20:53.000Z</time>
      </trkpt>
      <trkpt lat="45.15592" lon="5.44838">
        <ele>794.20001220703</ele>
        <time>2020-02-24T13:20:55.000Z</time>
      </trkpt>
      <trkpt lat="45.15591" lon="5.44835">
        <ele>794.20001220703</ele>
        <time>2020-02-24T13:20:57.000Z</time>
      </trkpt>
      <trkpt lat="45.15596" lon="5.44827">
        <ele>794</ele>
        <time>2020-02-24T13:21:02.000Z</time>
      </trkpt>
      <trkpt lat="45.15598" lon="5.44825">
        <ele>793.79998779297</ele>
        <time>2020-02-24T13:21:04.000Z</time>
      </trkpt>
      <trkpt lat="45.15603" lon="5.4482">
        <ele>793.79998779297</ele>
        <time>2020-02-24T13:21:08.000Z</time>
      </trkpt>
      <trkpt lat="45.15605" lon="5.4481">
        <ele>794</ele>
        <time>2020-02-24T13:21:13.000Z</time>
      </trkpt>
      <trkpt lat="45.15604" lon="5.44806">
        <ele>793.59997558594</ele>
        <time>2020-02-24T13:21:15.000Z</time>
      </trkpt>
      <trkpt lat="45.15604" lon="5.44803">
        <ele>793.40002441406</ele>
        <time>2020-02-24T13:21:16.000Z</time>
      </trkpt>
      <trkpt lat="45.15602" lon="5.44797">
        <ele>792.59997558594</ele>
        <time>2020-02-24T13:21:19.000Z</time>
      </trkpt>
      <trkpt lat="45.15601" lon="5.44795">
        <ele>792.20001220703</ele>
        <time>2020-02-24T13:21:20.000Z</time>
      </trkpt>
      <trkpt lat="45.15597" lon="5.44793">
        <ele>791.40002441406</ele>
        <time>2020-02-24T13:21:22.000Z</time>
      </trkpt>
      <trkpt lat="45.15596" lon="5.44791">
        <ele>791.20001220703</ele>
        <time>2020-02-24T13:21:23.000Z</time>
      </trkpt>
      <trkpt lat="45.15596" lon="5.4479">
        <ele>791</ele>
        <time>2020-02-24T13:21:24.000Z</time>
      </trkpt>
      <trkpt lat="45.15595" lon="5.44781">
        <ele>790.20001220703</ele>
        <time>2020-02-24T13:21:28.000Z</time>
      </trkpt>
      <trkpt lat="45.15594" lon="5.44776">
        <ele>790</ele>
        <time>2020-02-24T13:21:31.000Z</time>
      </trkpt>
      <trkpt lat="45.15593" lon="5.44774">
        <ele>789.79998779297</ele>
        <time>2020-02-24T13:21:33.000Z</time>
      </trkpt>
      <trkpt lat="45.15594" lon="5.44773">
        <ele>789.59997558594</ele>
        <time>2020-02-24T13:21:38.000Z</time>
      </trkpt>
      <trkpt lat="45.15594" lon="5.44772">
        <ele>789.79998779297</ele>
        <time>2020-02-24T13:21:43.000Z</time>
      </trkpt>
      <trkpt lat="45.15592" lon="5.44765">
        <ele>790.40002441406</ele>
        <time>2020-02-24T13:21:50.000Z</time>
      </trkpt>
      <trkpt lat="45.15591" lon="5.44764">
        <ele>791</ele>
        <time>2020-02-24T13:21:52.000Z</time>
      </trkpt>
      <trkpt lat="45.15591" lon="5.44763">
        <ele>791.40002441406</ele>
        <time>2020-02-24T13:21:53.000Z</time>
      </trkpt>
      <trkpt lat="45.15588" lon="5.44764">
        <ele>791.40002441406</ele>
        <time>2020-02-24T13:21:55.000Z</time>
      </trkpt>
      <trkpt lat="45.15587" lon="5.44763">
        <ele>791.40002441406</ele>
        <time>2020-02-24T13:21:57.000Z</time>
      </trkpt>
      <trkpt lat="45.15586" lon="5.44763">
        <ele>791.59997558594</ele>
        <time>2020-02-24T13:21:58.000Z</time>
      </trkpt>
      <trkpt lat="45.15585" lon="5.44761">
        <ele>791.40002441406</ele>
        <time>2020-02-24T13:22:00.000Z</time>
      </trkpt>
      <trkpt lat="45.15582" lon="5.44759">
        <ele>792.40002441406</ele>
        <time>2020-02-24T13:22:04.000Z</time>
      </trkpt>
      <trkpt lat="45.15581" lon="5.44758">
        <ele>792.59997558594</ele>
        <time>2020-02-24T13:22:05.000Z</time>
      </trkpt>
      <trkpt lat="45.15579" lon="5.44757">
        <ele>793.40002441406</ele>
        <time>2020-02-24T13:22:07.000Z</time>
      </trkpt>
      <trkpt lat="45.15579" lon="5.44755">
        <ele>793.79998779297</ele>
        <time>2020-02-24T13:22:09.000Z</time>
      </trkpt>
      <trkpt lat="45.1558" lon="5.44754">
        <ele>793.79998779297</ele>
        <time>2020-02-24T13:22:10.000Z</time>
      </trkpt>
      <trkpt lat="45.1558" lon="5.44753">
        <ele>794</ele>
        <time>2020-02-24T13:22:11.000Z</time>
      </trkpt>
      <trkpt lat="45.1558" lon="5.44753">
        <ele>794</ele>
        <time>2020-02-24T13:22:12.000Z</time>
      </trkpt>
      <trkpt lat="45.1558" lon="5.44751">
        <ele>794</ele>
        <time>2020-02-24T13:22:13.000Z</time>
      </trkpt>
      <trkpt lat="45.1558" lon="5.44747">
        <ele>794.20001220703</ele>
        <time>2020-02-24T13:22:16.000Z</time>
      </trkpt>
      <trkpt lat="45.15579" lon="5.44745">
        <ele>794.20001220703</ele>
        <time>2020-02-24T13:22:18.000Z</time>
      </trkpt>
      <trkpt lat="45.15579" lon="5.44744">
        <ele>794.20001220703</ele>
        <time>2020-02-24T13:22:19.000Z</time>
      </trkpt>
      <trkpt lat="45.15578" lon="5.44742">
        <ele>794.40002441406</ele>
        <time>2020-02-24T13:22:21.000Z</time>
      </trkpt>
      <trkpt lat="45.15578" lon="5.4474">
        <ele>794.79998779297</ele>
        <time>2020-02-24T13:22:23.000Z</time>
      </trkpt>
      <trkpt lat="45.15578" lon="5.44739">
        <ele>795</ele>
        <time>2020-02-24T13:22:24.000Z</time>
      </trkpt>
      <trkpt lat="45.15577" lon="5.44737">
        <ele>795.20001220703</ele>
        <time>2020-02-24T13:22:25.000Z</time>
      </trkpt>
      <trkpt lat="45.15577" lon="5.44736">
        <ele>795.59997558594</ele>
        <time>2020-02-24T13:22:26.000Z</time>
      </trkpt>
      <trkpt lat="45.15576" lon="5.44735">
        <ele>795.79998779297</ele>
        <time>2020-02-24T13:22:27.000Z</time>
      </trkpt>
      <trkpt lat="45.15575" lon="5.44734">
        <ele>796.20001220703</ele>
        <time>2020-02-24T13:22:29.000Z</time>
      </trkpt>
      <trkpt lat="45.15574" lon="5.44733">
        <ele>796.40002441406</ele>
        <time>2020-02-24T13:22:30.000Z</time>
      </trkpt>
      <trkpt lat="45.15573" lon="5.44732">
        <ele>796.79998779297</ele>
        <time>2020-02-24T13:22:32.000Z</time>
      </trkpt>
      <trkpt lat="45.15572" lon="5.44732">
        <ele>797</ele>
        <time>2020-02-24T13:22:33.000Z</time>
      </trkpt>
      <trkpt lat="45.15568" lon="5.44729">
        <ele>797.20001220703</ele>
        <time>2020-02-24T13:22:36.000Z</time>
      </trkpt>
      <trkpt lat="45.15567" lon="5.44726">
        <ele>797.40002441406</ele>
        <time>2020-02-24T13:22:39.000Z</time>
      </trkpt>
      <trkpt lat="45.15563" lon="5.44725">
        <ele>797.59997558594</ele>
        <time>2020-02-24T13:22:41.000Z</time>
      </trkpt>
      <trkpt lat="45.15558" lon="5.44723">
        <ele>798</ele>
        <time>2020-02-24T13:22:44.000Z</time>
      </trkpt>
      <trkpt lat="45.15558" lon="5.44721">
        <ele>798.20001220703</ele>
        <time>2020-02-24T13:22:45.000Z</time>
      </trkpt>
      <trkpt lat="45.15556" lon="5.4472">
        <ele>798.40002441406</ele>
        <time>2020-02-24T13:22:46.000Z</time>
      </trkpt>
      <trkpt lat="45.15555" lon="5.44719">
        <ele>798.59997558594</ele>
        <time>2020-02-24T13:22:47.000Z</time>
      </trkpt>
      <trkpt lat="45.15554" lon="5.44719">
        <ele>798.79998779297</ele>
        <time>2020-02-24T13:22:48.000Z</time>
      </trkpt>
      <trkpt lat="45.15552" lon="5.44718">
        <ele>799.20001220703</ele>
        <time>2020-02-24T13:22:50.000Z</time>
      </trkpt>
      <trkpt lat="45.15551" lon="5.44715">
        <ele>799.40002441406</ele>
        <time>2020-02-24T13:22:52.000Z</time>
      </trkpt>
      <trkpt lat="45.1555" lon="5.44715">
        <ele>799.40002441406</ele>
        <time>2020-02-24T13:22:53.000Z</time>
      </trkpt>
      <trkpt lat="45.15547" lon="5.44713">
        <ele>799.59997558594</ele>
        <time>2020-02-24T13:22:57.000Z</time>
      </trkpt>
      <trkpt lat="45.15543" lon="5.44713">
        <ele>800.20001220703</ele>
        <time>2020-02-24T13:23:00.000Z</time>
      </trkpt>
      <trkpt lat="45.15539" lon="5.44713">
        <ele>801</ele>
        <time>2020-02-24T13:23:05.000Z</time>
      </trkpt>
      <trkpt lat="45.15537" lon="5.4471">
        <ele>801.40002441406</ele>
        <time>2020-02-24T13:23:07.000Z</time>
      </trkpt>
      <trkpt lat="45.15533" lon="5.44709">
        <ele>801.79998779297</ele>
        <time>2020-02-24T13:23:10.000Z</time>
      </trkpt>
      <trkpt lat="45.1553" lon="5.44705">
        <ele>802.40002441406</ele>
        <time>2020-02-24T13:23:14.000Z</time>
      </trkpt>
      <trkpt lat="45.1553" lon="5.44704">
        <ele>802.59997558594</ele>
        <time>2020-02-24T13:23:15.000Z</time>
      </trkpt>
      <trkpt lat="45.15529" lon="5.44703">
        <ele>802.79998779297</ele>
        <time>2020-02-24T13:23:17.000Z</time>
      </trkpt>
      <trkpt lat="45.15527" lon="5.44703">
        <ele>803.59997558594</ele>
        <time>2020-02-24T13:23:21.000Z</time>
      </trkpt>
      <trkpt lat="45.15526" lon="5.44703">
        <ele>803.79998779297</ele>
        <time>2020-02-24T13:23:22.000Z</time>
      </trkpt>
      <trkpt lat="45.15524" lon="5.44703">
        <ele>804</ele>
        <time>2020-02-24T13:23:24.000Z</time>
      </trkpt>
      <trkpt lat="45.15521" lon="5.44702">
        <ele>804.20001220703</ele>
        <time>2020-02-24T13:23:27.000Z</time>
      </trkpt>
      <trkpt lat="45.15519" lon="5.447">
        <ele>804.79998779297</ele>
        <time>2020-02-24T13:23:29.000Z</time>
      </trkpt>
      <trkpt lat="45.15516" lon="5.44696">
        <ele>805.20001220703</ele>
        <time>2020-02-24T13:23:33.000Z</time>
      </trkpt>
      <trkpt lat="45.15515" lon="5.44693">
        <ele>805.59997558594</ele>
        <time>2020-02-24T13:23:35.000Z</time>
      </trkpt>
      <trkpt lat="45.15514" lon="5.44693">
        <ele>805.79998779297</ele>
        <time>2020-02-24T13:23:36.000Z</time>
      </trkpt>
      <trkpt lat="45.15512" lon="5.44692">
        <ele>806</ele>
        <time>2020-02-24T13:23:38.000Z</time>
      </trkpt>
      <trkpt lat="45.15512" lon="5.44692">
        <ele>806</ele>
        <time>2020-02-24T13:23:40.000Z</time>
      </trkpt>
      <trkpt lat="45.15511" lon="5.44692">
        <ele>806.40002441406</ele>
        <time>2020-02-24T13:23:42.000Z</time>
      </trkpt>
      <trkpt lat="45.15509" lon="5.44694">
        <ele>806.79998779297</ele>
        <time>2020-02-24T13:23:44.000Z</time>
      </trkpt>
      <trkpt lat="45.15508" lon="5.44694">
        <ele>807</ele>
        <time>2020-02-24T13:23:46.000Z</time>
      </trkpt>
      <trkpt lat="45.15508" lon="5.44695">
        <ele>807</ele>
        <time>2020-02-24T13:23:47.000Z</time>
      </trkpt>
      <trkpt lat="45.15504" lon="5.44699">
        <ele>807.59997558594</ele>
        <time>2020-02-24T13:23:51.000Z</time>
      </trkpt>
      <trkpt lat="45.15503" lon="5.447">
        <ele>807.79998779297</ele>
        <time>2020-02-24T13:23:52.000Z</time>
      </trkpt>
      <trkpt lat="45.15503" lon="5.44701">
        <ele>808</ele>
        <time>2020-02-24T13:23:53.000Z</time>
      </trkpt>
      <trkpt lat="45.15502" lon="5.44701">
        <ele>808.20001220703</ele>
        <time>2020-02-24T13:23:54.000Z</time>
      </trkpt>
      <trkpt lat="45.15499" lon="5.44702">
        <ele>808.40002441406</ele>
        <time>2020-02-24T13:23:56.000Z</time>
      </trkpt>
      <trkpt lat="45.15495" lon="5.44704">
        <ele>809</ele>
        <time>2020-02-24T13:24:00.000Z</time>
      </trkpt>
      <trkpt lat="45.15494" lon="5.44705">
        <ele>809.20001220703</ele>
        <time>2020-02-24T13:24:01.000Z</time>
      </trkpt>
      <trkpt lat="45.15493" lon="5.44706">
        <ele>809.20001220703</ele>
        <time>2020-02-24T13:24:02.000Z</time>
      </trkpt>
      <trkpt lat="45.15491" lon="5.44708">
        <ele>809.59997558594</ele>
        <time>2020-02-24T13:24:05.000Z</time>
      </trkpt>
      <trkpt lat="45.15487" lon="5.4471">
        <ele>810.20001220703</ele>
        <time>2020-02-24T13:24:08.000Z</time>
      </trkpt>
      <trkpt lat="45.15485" lon="5.44711">
        <ele>810.59997558594</ele>
        <time>2020-02-24T13:24:10.000Z</time>
      </trkpt>
      <trkpt lat="45.15484" lon="5.44711">
        <ele>810.79998779297</ele>
        <time>2020-02-24T13:24:11.000Z</time>
      </trkpt>
      <trkpt lat="45.15481" lon="5.44711">
        <ele>811</ele>
        <time>2020-02-24T13:24:14.000Z</time>
      </trkpt>
      <trkpt lat="45.15477" lon="5.44712">
        <ele>811.40002441406</ele>
        <time>2020-02-24T13:24:17.000Z</time>
      </trkpt>
      <trkpt lat="45.15476" lon="5.4471">
        <ele>811.40002441406</ele>
        <time>2020-02-24T13:24:19.000Z</time>
      </trkpt>
      <trkpt lat="45.15477" lon="5.44708">
        <ele>811.40002441406</ele>
        <time>2020-02-24T13:24:20.000Z</time>
      </trkpt>
      <trkpt lat="45.15477" lon="5.44705">
        <ele>811.59997558594</ele>
        <time>2020-02-24T13:24:21.000Z</time>
      </trkpt>
      <trkpt lat="45.15476" lon="5.44701">
        <ele>811.79998779297</ele>
        <time>2020-02-24T13:24:25.000Z</time>
      </trkpt>
      <trkpt lat="45.15478" lon="5.44699">
        <ele>812.40002441406</ele>
        <time>2020-02-24T13:24:28.000Z</time>
      </trkpt>
      <trkpt lat="45.15481" lon="5.44696">
        <ele>812.59997558594</ele>
        <time>2020-02-24T13:24:30.000Z</time>
      </trkpt>
      <trkpt lat="45.15483" lon="5.44693">
        <ele>812.79998779297</ele>
        <time>2020-02-24T13:24:34.000Z</time>
      </trkpt>
      <trkpt lat="45.15483" lon="5.44693">
        <ele>812.79998779297</ele>
        <time>2020-02-24T13:24:36.000Z</time>
      </trkpt>
      <trkpt lat="45.15486" lon="5.44692">
        <ele>813</ele>
        <time>2020-02-24T13:24:38.000Z</time>
      </trkpt>
      <trkpt lat="45.15486" lon="5.44691">
        <ele>813.40002441406</ele>
        <time>2020-02-24T13:24:39.000Z</time>
      </trkpt>
      <trkpt lat="45.15486" lon="5.4469">
        <ele>813.59997558594</ele>
        <time>2020-02-24T13:24:40.000Z</time>
      </trkpt>
      <trkpt lat="45.15486" lon="5.44689">
        <ele>813.59997558594</ele>
        <time>2020-02-24T13:24:41.000Z</time>
      </trkpt>
      <trkpt lat="45.15485" lon="5.44687">
        <ele>814.40002441406</ele>
        <time>2020-02-24T13:24:46.000Z</time>
      </trkpt>
      <trkpt lat="45.15485" lon="5.44685">
        <ele>814.59997558594</ele>
        <time>2020-02-24T13:24:47.000Z</time>
      </trkpt>
      <trkpt lat="45.15483" lon="5.44683">
        <ele>815</ele>
        <time>2020-02-24T13:24:49.000Z</time>
      </trkpt>
      <trkpt lat="45.15481" lon="5.44677">
        <ele>815.40002441406</ele>
        <time>2020-02-24T13:24:53.000Z</time>
      </trkpt>
      <trkpt lat="45.15482" lon="5.44676">
        <ele>815.40002441406</ele>
        <time>2020-02-24T13:24:54.000Z</time>
      </trkpt>
      <trkpt lat="45.15482" lon="5.44673">
        <ele>815.79998779297</ele>
        <time>2020-02-24T13:24:56.000Z</time>
      </trkpt>
      <trkpt lat="45.15481" lon="5.4467">
        <ele>816.20001220703</ele>
        <time>2020-02-24T13:24:58.000Z</time>
      </trkpt>
      <trkpt lat="45.15481" lon="5.44668">
        <ele>816.59997558594</ele>
        <time>2020-02-24T13:25:00.000Z</time>
      </trkpt>
      <trkpt lat="45.15481" lon="5.44667">
        <ele>816.59997558594</ele>
        <time>2020-02-24T13:25:01.000Z</time>
      </trkpt>
      <trkpt lat="45.15482" lon="5.44666">
        <ele>816.59997558594</ele>
        <time>2020-02-24T13:25:02.000Z</time>
      </trkpt>
      <trkpt lat="45.15482" lon="5.44662">
        <ele>817</ele>
        <time>2020-02-24T13:25:05.000Z</time>
      </trkpt>
      <trkpt lat="45.15481" lon="5.44659">
        <ele>817.20001220703</ele>
        <time>2020-02-24T13:25:07.000Z</time>
      </trkpt>
      <trkpt lat="45.1548" lon="5.44654">
        <ele>817.79998779297</ele>
        <time>2020-02-24T13:25:11.000Z</time>
      </trkpt>
      <trkpt lat="45.15479" lon="5.44652">
        <ele>818.20001220703</ele>
        <time>2020-02-24T13:25:13.000Z</time>
      </trkpt>
      <trkpt lat="45.15478" lon="5.44651">
        <ele>818.20001220703</ele>
        <time>2020-02-24T13:25:14.000Z</time>
      </trkpt>
      <trkpt lat="45.15477" lon="5.4465">
        <ele>818.40002441406</ele>
        <time>2020-02-24T13:25:16.000Z</time>
      </trkpt>
      <trkpt lat="45.15476" lon="5.44645">
        <ele>819</ele>
        <time>2020-02-24T13:25:20.000Z</time>
      </trkpt>
      <trkpt lat="45.15476" lon="5.44642">
        <ele>819.20001220703</ele>
        <time>2020-02-24T13:25:21.000Z</time>
      </trkpt>
      <trkpt lat="45.15472" lon="5.44636">
        <ele>819.59997558594</ele>
        <time>2020-02-24T13:25:26.000Z</time>
      </trkpt>
      <trkpt lat="45.15472" lon="5.44634">
        <ele>819.79998779297</ele>
        <time>2020-02-24T13:25:28.000Z</time>
      </trkpt>
      <trkpt lat="45.1547" lon="5.44631">
        <ele>820.20001220703</ele>
        <time>2020-02-24T13:25:31.000Z</time>
      </trkpt>
      <trkpt lat="45.15469" lon="5.4463">
        <ele>820.40002441406</ele>
        <time>2020-02-24T13:25:32.000Z</time>
      </trkpt>
      <trkpt lat="45.15466" lon="5.44627">
        <ele>820.40002441406</ele>
        <time>2020-02-24T13:25:35.000Z</time>
      </trkpt>
      <trkpt lat="45.15465" lon="5.44626">
        <ele>820.40002441406</ele>
        <time>2020-02-24T13:25:36.000Z</time>
      </trkpt>
      <trkpt lat="45.15465" lon="5.44625">
        <ele>820.59997558594</ele>
        <time>2020-02-24T13:25:37.000Z</time>
      </trkpt>
      <trkpt lat="45.15462" lon="5.44621">
        <ele>820.79998779297</ele>
        <time>2020-02-24T13:25:40.000Z</time>
      </trkpt>
      <trkpt lat="45.15461" lon="5.44617">
        <ele>821</ele>
        <time>2020-02-24T13:25:42.000Z</time>
      </trkpt>
      <trkpt lat="45.15458" lon="5.44614">
        <ele>821.59997558594</ele>
        <time>2020-02-24T13:25:45.000Z</time>
      </trkpt>
      <trkpt lat="45.15456" lon="5.4461">
        <ele>822.59997558594</ele>
        <time>2020-02-24T13:25:49.000Z</time>
      </trkpt>
      <trkpt lat="45.15455" lon="5.44607">
        <ele>822.79998779297</ele>
        <time>2020-02-24T13:25:51.000Z</time>
      </trkpt>
      <trkpt lat="45.15454" lon="5.44606">
        <ele>823</ele>
        <time>2020-02-24T13:25:52.000Z</time>
      </trkpt>
      <trkpt lat="45.15453" lon="5.44604">
        <ele>823.40002441406</ele>
        <time>2020-02-24T13:25:54.000Z</time>
      </trkpt>
      <trkpt lat="45.15452" lon="5.44602">
        <ele>823.59997558594</ele>
        <time>2020-02-24T13:25:55.000Z</time>
      </trkpt>
      <trkpt lat="45.15452" lon="5.446">
        <ele>823.59997558594</ele>
        <time>2020-02-24T13:25:57.000Z</time>
      </trkpt>
      <trkpt lat="45.15452" lon="5.44599">
        <ele>823.79998779297</ele>
        <time>2020-02-24T13:25:58.000Z</time>
      </trkpt>
      <trkpt lat="45.15452" lon="5.44595">
        <ele>823.79998779297</ele>
        <time>2020-02-24T13:26:01.000Z</time>
      </trkpt>
      <trkpt lat="45.15451" lon="5.44592">
        <ele>824.20001220703</ele>
        <time>2020-02-24T13:26:06.000Z</time>
      </trkpt>
      <trkpt lat="45.1545" lon="5.44591">
        <ele>824.79998779297</ele>
        <time>2020-02-24T13:26:08.000Z</time>
      </trkpt>
      <trkpt lat="45.1545" lon="5.4459">
        <ele>824.79998779297</ele>
        <time>2020-02-24T13:26:09.000Z</time>
      </trkpt>
      <trkpt lat="45.15451" lon="5.44589">
        <ele>825</ele>
        <time>2020-02-24T13:26:10.000Z</time>
      </trkpt>
      <trkpt lat="45.15451" lon="5.44587">
        <ele>825.20001220703</ele>
        <time>2020-02-24T13:26:12.000Z</time>
      </trkpt>
      <trkpt lat="45.1545" lon="5.44581">
        <ele>825.20001220703</ele>
        <time>2020-02-24T13:26:16.000Z</time>
      </trkpt>
      <trkpt lat="45.15448" lon="5.4458">
        <ele>825.40002441406</ele>
        <time>2020-02-24T13:26:18.000Z</time>
      </trkpt>
      <trkpt lat="45.15448" lon="5.44576">
        <ele>826</ele>
        <time>2020-02-24T13:26:22.000Z</time>
      </trkpt>
      <trkpt lat="45.15449" lon="5.4457">
        <ele>827</ele>
        <time>2020-02-24T13:26:26.000Z</time>
      </trkpt>
      <trkpt lat="45.1545" lon="5.44568">
        <ele>827.20001220703</ele>
        <time>2020-02-24T13:26:27.000Z</time>
      </trkpt>
      <trkpt lat="45.15452" lon="5.44562">
        <ele>827.79998779297</ele>
        <time>2020-02-24T13:26:31.000Z</time>
      </trkpt>
      <trkpt lat="45.15452" lon="5.4456">
        <ele>828.20001220703</ele>
        <time>2020-02-24T13:26:32.000Z</time>
      </trkpt>
      <trkpt lat="45.1545" lon="5.44554">
        <ele>829</ele>
        <time>2020-02-24T13:26:36.000Z</time>
      </trkpt>
      <trkpt lat="45.1545" lon="5.44552">
        <ele>829.20001220703</ele>
        <time>2020-02-24T13:26:38.000Z</time>
      </trkpt>
      <trkpt lat="45.15451" lon="5.4455">
        <ele>829.20001220703</ele>
        <time>2020-02-24T13:26:39.000Z</time>
      </trkpt>
      <trkpt lat="45.15451" lon="5.44544">
        <ele>829.20001220703</ele>
        <time>2020-02-24T13:26:43.000Z</time>
      </trkpt>
      <trkpt lat="45.1545" lon="5.4454">
        <ele>829.20001220703</ele>
        <time>2020-02-24T13:26:46.000Z</time>
      </trkpt>
      <trkpt lat="45.15449" lon="5.44537">
        <ele>830.20001220703</ele>
        <time>2020-02-24T13:26:49.000Z</time>
      </trkpt>
      <trkpt lat="45.1545" lon="5.44537">
        <ele>830.40002441406</ele>
        <time>2020-02-24T13:26:50.000Z</time>
      </trkpt>
      <trkpt lat="45.15448" lon="5.44534">
        <ele>830.59997558594</ele>
        <time>2020-02-24T13:26:53.000Z</time>
      </trkpt>
      <trkpt lat="45.15447" lon="5.44532">
        <ele>830.79998779297</ele>
        <time>2020-02-24T13:26:55.000Z</time>
      </trkpt>
      <trkpt lat="45.15444" lon="5.4453">
        <ele>831.20001220703</ele>
        <time>2020-02-24T13:26:58.000Z</time>
      </trkpt>
      <trkpt lat="45.15444" lon="5.44529">
        <ele>831.20001220703</ele>
        <time>2020-02-24T13:26:59.000Z</time>
      </trkpt>
      <trkpt lat="45.15443" lon="5.44528">
        <ele>831.40002441406</ele>
        <time>2020-02-24T13:27:01.000Z</time>
      </trkpt>
      <trkpt lat="45.1544" lon="5.44528">
        <ele>831.59997558594</ele>
        <time>2020-02-24T13:27:03.000Z</time>
      </trkpt>
      <trkpt lat="45.15438" lon="5.44525">
        <ele>831.40002441406</ele>
        <time>2020-02-24T13:27:06.000Z</time>
      </trkpt>
      <trkpt lat="45.15438" lon="5.44519">
        <ele>831.59997558594</ele>
        <time>2020-02-24T13:27:09.000Z</time>
      </trkpt>
      <trkpt lat="45.15437" lon="5.44518">
        <ele>831.59997558594</ele>
        <time>2020-02-24T13:27:10.000Z</time>
      </trkpt>
      <trkpt lat="45.15437" lon="5.44516">
        <ele>831.59997558594</ele>
        <time>2020-02-24T13:27:11.000Z</time>
      </trkpt>
      <trkpt lat="45.15437" lon="5.44512">
        <ele>831.79998779297</ele>
        <time>2020-02-24T13:27:13.000Z</time>
      </trkpt>
      <trkpt lat="45.15436" lon="5.44511">
        <ele>831.79998779297</ele>
        <time>2020-02-24T13:27:14.000Z</time>
      </trkpt>
      <trkpt lat="45.15434" lon="5.44507">
        <ele>832.40002441406</ele>
        <time>2020-02-24T13:27:18.000Z</time>
      </trkpt>
      <trkpt lat="45.15433" lon="5.44502">
        <ele>832.79998779297</ele>
        <time>2020-02-24T13:27:21.000Z</time>
      </trkpt>
      <trkpt lat="45.15432" lon="5.44498">
        <ele>833.40002441406</ele>
        <time>2020-02-24T13:27:24.000Z</time>
      </trkpt>
      <trkpt lat="45.15432" lon="5.44497">
        <ele>833.40002441406</ele>
        <time>2020-02-24T13:27:25.000Z</time>
      </trkpt>
      <trkpt lat="45.1543" lon="5.44492">
        <ele>833.59997558594</ele>
        <time>2020-02-24T13:27:28.000Z</time>
      </trkpt>
      <trkpt lat="45.15427" lon="5.44489">
        <ele>834.59997558594</ele>
        <time>2020-02-24T13:27:33.000Z</time>
      </trkpt>
      <trkpt lat="45.15426" lon="5.44489">
        <ele>835</ele>
        <time>2020-02-24T13:27:34.000Z</time>
      </trkpt>
      <trkpt lat="45.15424" lon="5.44485">
        <ele>835.40002441406</ele>
        <time>2020-02-24T13:27:37.000Z</time>
      </trkpt>
      <trkpt lat="45.15422" lon="5.44482">
        <ele>835.40002441406</ele>
        <time>2020-02-24T13:27:39.000Z</time>
      </trkpt>
      <trkpt lat="45.15421" lon="5.44483">
        <ele>835.59997558594</ele>
        <time>2020-02-24T13:27:40.000Z</time>
      </trkpt>
      <trkpt lat="45.1542" lon="5.44482">
        <ele>835.79998779297</ele>
        <time>2020-02-24T13:27:41.000Z</time>
      </trkpt>
      <trkpt lat="45.15419" lon="5.44482">
        <ele>835.79998779297</ele>
        <time>2020-02-24T13:27:42.000Z</time>
      </trkpt>
      <trkpt lat="45.15416" lon="5.44483">
        <ele>836.59997558594</ele>
        <time>2020-02-24T13:27:46.000Z</time>
      </trkpt>
      <trkpt lat="45.15416" lon="5.44482">
        <ele>836.79998779297</ele>
        <time>2020-02-24T13:27:47.000Z</time>
      </trkpt>
      <trkpt lat="45.15415" lon="5.44478">
        <ele>837.40002441406</ele>
        <time>2020-02-24T13:27:51.000Z</time>
      </trkpt>
      <trkpt lat="45.15415" lon="5.44476">
        <ele>837.59997558594</ele>
        <time>2020-02-24T13:27:53.000Z</time>
      </trkpt>
      <trkpt lat="45.15416" lon="5.44474">
        <ele>837.79998779297</ele>
        <time>2020-02-24T13:27:54.000Z</time>
      </trkpt>
      <trkpt lat="45.15415" lon="5.44471">
        <ele>838.40002441406</ele>
        <time>2020-02-24T13:27:59.000Z</time>
      </trkpt>
      <trkpt lat="45.15414" lon="5.4447">
        <ele>838.59997558594</ele>
        <time>2020-02-24T13:28:00.000Z</time>
      </trkpt>
      <trkpt lat="45.1541" lon="5.44471">
        <ele>838.79998779297</ele>
        <time>2020-02-24T13:28:02.000Z</time>
      </trkpt>
      <trkpt lat="45.15409" lon="5.4447">
        <ele>839</ele>
        <time>2020-02-24T13:28:04.000Z</time>
      </trkpt>
      <trkpt lat="45.15409" lon="5.4447">
        <ele>839</ele>
        <time>2020-02-24T13:28:05.000Z</time>
      </trkpt>
      <trkpt lat="45.15409" lon="5.4447">
        <ele>839.20001220703</ele>
        <time>2020-02-24T13:28:07.000Z</time>
      </trkpt>
      <trkpt lat="45.15405" lon="5.4447">
        <ele>839.79998779297</ele>
        <time>2020-02-24T13:28:11.000Z</time>
      </trkpt>
      <trkpt lat="45.15404" lon="5.4447">
        <ele>840</ele>
        <time>2020-02-24T13:28:12.000Z</time>
      </trkpt>
      <trkpt lat="45.15401" lon="5.44471">
        <ele>840.20001220703</ele>
        <time>2020-02-24T13:28:13.000Z</time>
      </trkpt>
      <trkpt lat="45.154" lon="5.44471">
        <ele>840.20001220703</ele>
        <time>2020-02-24T13:28:14.000Z</time>
      </trkpt>
      <trkpt lat="45.15392" lon="5.44476">
        <ele>840.59997558594</ele>
        <time>2020-02-24T13:28:19.000Z</time>
      </trkpt>
      <trkpt lat="45.1539" lon="5.44476">
        <ele>841</ele>
        <time>2020-02-24T13:28:20.000Z</time>
      </trkpt>
      <trkpt lat="45.15389" lon="5.44476">
        <ele>841.20001220703</ele>
        <time>2020-02-24T13:28:21.000Z</time>
      </trkpt>
      <trkpt lat="45.15389" lon="5.44476">
        <ele>841.20001220703</ele>
        <time>2020-02-24T13:28:22.000Z</time>
      </trkpt>
      <trkpt lat="45.15386" lon="5.44476">
        <ele>841.40002441406</ele>
        <time>2020-02-24T13:28:26.000Z</time>
      </trkpt>
      <trkpt lat="45.15385" lon="5.44477">
        <ele>841.59997558594</ele>
        <time>2020-02-24T13:28:27.000Z</time>
      </trkpt>
      <trkpt lat="45.15382" lon="5.44477">
        <ele>841.79998779297</ele>
        <time>2020-02-24T13:28:29.000Z</time>
      </trkpt>
      <trkpt lat="45.15381" lon="5.44476">
        <ele>841.79998779297</ele>
        <time>2020-02-24T13:28:30.000Z</time>
      </trkpt>
      <trkpt lat="45.15378" lon="5.44476">
        <ele>842.20001220703</ele>
        <time>2020-02-24T13:28:33.000Z</time>
      </trkpt>
      <trkpt lat="45.15373" lon="5.44477">
        <ele>842.40002441406</ele>
        <time>2020-02-24T13:28:36.000Z</time>
      </trkpt>
      <trkpt lat="45.15372" lon="5.44476">
        <ele>842.59997558594</ele>
        <time>2020-02-24T13:28:37.000Z</time>
      </trkpt>
      <trkpt lat="45.15371" lon="5.44475">
        <ele>842.79998779297</ele>
        <time>2020-02-24T13:28:39.000Z</time>
      </trkpt>
      <trkpt lat="45.15367" lon="5.44476">
        <ele>843.20001220703</ele>
        <time>2020-02-24T13:28:42.000Z</time>
      </trkpt>
      <trkpt lat="45.15364" lon="5.44475">
        <ele>843.20001220703</ele>
        <time>2020-02-24T13:28:45.000Z</time>
      </trkpt>
      <trkpt lat="45.15362" lon="5.44475">
        <ele>843.40002441406</ele>
        <time>2020-02-24T13:28:47.000Z</time>
      </trkpt>
      <trkpt lat="45.1536" lon="5.44476">
        <ele>843.79998779297</ele>
        <time>2020-02-24T13:28:49.000Z</time>
      </trkpt>
      <trkpt lat="45.15358" lon="5.44477">
        <ele>844.20001220703</ele>
        <time>2020-02-24T13:28:51.000Z</time>
      </trkpt>
      <trkpt lat="45.15358" lon="5.44477">
        <ele>844.20001220703</ele>
        <time>2020-02-24T13:28:52.000Z</time>
      </trkpt>
      <trkpt lat="45.15356" lon="5.44478">
        <ele>844.40002441406</ele>
        <time>2020-02-24T13:28:53.000Z</time>
      </trkpt>
      <trkpt lat="45.15356" lon="5.44477">
        <ele>844.59997558594</ele>
        <time>2020-02-24T13:28:56.000Z</time>
      </trkpt>
      <trkpt lat="45.15356" lon="5.44478">
        <ele>844.79998779297</ele>
        <time>2020-02-24T13:28:57.000Z</time>
      </trkpt>
      <trkpt lat="45.15356" lon="5.44478">
        <ele>844.79998779297</ele>
        <time>2020-02-24T13:28:58.000Z</time>
      </trkpt>
      <trkpt lat="45.15352" lon="5.44479">
        <ele>845</ele>
        <time>2020-02-24T13:29:00.000Z</time>
      </trkpt>
      <trkpt lat="45.1535" lon="5.44479">
        <ele>845.40002441406</ele>
        <time>2020-02-24T13:29:03.000Z</time>
      </trkpt>
      <trkpt lat="45.1535" lon="5.44479">
        <ele>845.59997558594</ele>
        <time>2020-02-24T13:29:04.000Z</time>
      </trkpt>
      <trkpt lat="45.15348" lon="5.44476">
        <ele>846</ele>
        <time>2020-02-24T13:29:07.000Z</time>
      </trkpt>
      <trkpt lat="45.15346" lon="5.44475">
        <ele>846.20001220703</ele>
        <time>2020-02-24T13:29:09.000Z</time>
      </trkpt>
      <trkpt lat="45.15346" lon="5.44475">
        <ele>846.20001220703</ele>
        <time>2020-02-24T13:29:10.000Z</time>
      </trkpt>
      <trkpt lat="45.15345" lon="5.44475">
        <ele>846.59997558594</ele>
        <time>2020-02-24T13:29:12.000Z</time>
      </trkpt>
      <trkpt lat="45.15345" lon="5.44472">
        <ele>847</ele>
        <time>2020-02-24T13:29:15.000Z</time>
      </trkpt>
      <trkpt lat="45.15345" lon="5.44471">
        <ele>847.20001220703</ele>
        <time>2020-02-24T13:29:17.000Z</time>
      </trkpt>
      <trkpt lat="45.15344" lon="5.44471">
        <ele>847.40002441406</ele>
        <time>2020-02-24T13:29:19.000Z</time>
      </trkpt>
      <trkpt lat="45.15344" lon="5.44471">
        <ele>847.59997558594</ele>
        <time>2020-02-24T13:29:20.000Z</time>
      </trkpt>
      <trkpt lat="45.15341" lon="5.44473">
        <ele>848.20001220703</ele>
        <time>2020-02-24T13:29:24.000Z</time>
      </trkpt>
      <trkpt lat="45.15338" lon="5.44473">
        <ele>848.40002441406</ele>
        <time>2020-02-24T13:29:26.000Z</time>
      </trkpt>
      <trkpt lat="45.15336" lon="5.44475">
        <ele>848.79998779297</ele>
        <time>2020-02-24T13:29:28.000Z</time>
      </trkpt>
      <trkpt lat="45.15336" lon="5.44475">
        <ele>848.79998779297</ele>
        <time>2020-02-24T13:29:29.000Z</time>
      </trkpt>
      <trkpt lat="45.15334" lon="5.44476">
        <ele>848.79998779297</ele>
        <time>2020-02-24T13:29:30.000Z</time>
      </trkpt>
      <trkpt lat="45.15331" lon="5.44478">
        <ele>849</ele>
        <time>2020-02-24T13:29:31.000Z</time>
      </trkpt>
      <trkpt lat="45.15327" lon="5.4448">
        <ele>849.59997558594</ele>
        <time>2020-02-24T13:29:35.000Z</time>
      </trkpt>
      <trkpt lat="45.15326" lon="5.4448">
        <ele>849.59997558594</ele>
        <time>2020-02-24T13:29:36.000Z</time>
      </trkpt>
      <trkpt lat="45.15324" lon="5.4448">
        <ele>849.59997558594</ele>
        <time>2020-02-24T13:29:37.000Z</time>
      </trkpt>
      <trkpt lat="45.15324" lon="5.4448">
        <ele>849.59997558594</ele>
        <time>2020-02-24T13:29:38.000Z</time>
      </trkpt>
      <trkpt lat="45.15324" lon="5.44481">
        <ele>849.79998779297</ele>
        <time>2020-02-24T13:29:39.000Z</time>
      </trkpt>
      <trkpt lat="45.15322" lon="5.44481">
        <ele>850</ele>
        <time>2020-02-24T13:29:41.000Z</time>
      </trkpt>
      <trkpt lat="45.1532" lon="5.44481">
        <ele>850.20001220703</ele>
        <time>2020-02-24T13:29:43.000Z</time>
      </trkpt>
      <trkpt lat="45.1532" lon="5.44479">
        <ele>850.59997558594</ele>
        <time>2020-02-24T13:29:46.000Z</time>
      </trkpt>
      <trkpt lat="45.15321" lon="5.44479">
        <ele>850.79998779297</ele>
        <time>2020-02-24T13:29:47.000Z</time>
      </trkpt>
      <trkpt lat="45.15319" lon="5.44477">
        <ele>852</ele>
        <time>2020-02-24T13:29:53.000Z</time>
      </trkpt>
      <trkpt lat="45.15316" lon="5.44479">
        <ele>852.20001220703</ele>
        <time>2020-02-24T13:29:55.000Z</time>
      </trkpt>
      <trkpt lat="45.15315" lon="5.44479">
        <ele>852.59997558594</ele>
        <time>2020-02-24T13:30:00.000Z</time>
      </trkpt>
      <trkpt lat="45.15314" lon="5.44485">
        <ele>853</ele>
        <time>2020-02-24T13:30:04.000Z</time>
      </trkpt>
      <trkpt lat="45.15311" lon="5.44489">
        <ele>853.59997558594</ele>
        <time>2020-02-24T13:30:08.000Z</time>
      </trkpt>
      <trkpt lat="45.15309" lon="5.4449">
        <ele>853.79998779297</ele>
        <time>2020-02-24T13:30:09.000Z</time>
      </trkpt>
      <trkpt lat="45.15307" lon="5.44491">
        <ele>854</ele>
        <time>2020-02-24T13:30:11.000Z</time>
      </trkpt>
      <trkpt lat="45.15305" lon="5.44492">
        <ele>854.20001220703</ele>
        <time>2020-02-24T13:30:12.000Z</time>
      </trkpt>
      <trkpt lat="45.15299" lon="5.44494">
        <ele>854.59997558594</ele>
        <time>2020-02-24T13:30:15.000Z</time>
      </trkpt>
      <trkpt lat="45.15298" lon="5.44495">
        <ele>854.79998779297</ele>
        <time>2020-02-24T13:30:16.000Z</time>
      </trkpt>
      <trkpt lat="45.15295" lon="5.44495">
        <ele>855</ele>
        <time>2020-02-24T13:30:18.000Z</time>
      </trkpt>
      <trkpt lat="45.1529" lon="5.44496">
        <ele>855.40002441406</ele>
        <time>2020-02-24T13:30:21.000Z</time>
      </trkpt>
      <trkpt lat="45.15287" lon="5.44495">
        <ele>855.59997558594</ele>
        <time>2020-02-24T13:30:23.000Z</time>
      </trkpt>
      <trkpt lat="45.15284" lon="5.44497">
        <ele>855.79998779297</ele>
        <time>2020-02-24T13:30:25.000Z</time>
      </trkpt>
      <trkpt lat="45.15283" lon="5.44495">
        <ele>855.79998779297</ele>
        <time>2020-02-24T13:30:26.000Z</time>
      </trkpt>
      <trkpt lat="45.15279" lon="5.44495">
        <ele>856</ele>
        <time>2020-02-24T13:30:29.000Z</time>
      </trkpt>
      <trkpt lat="45.15278" lon="5.44496">
        <ele>856</ele>
        <time>2020-02-24T13:30:30.000Z</time>
      </trkpt>
      <trkpt lat="45.15277" lon="5.44496">
        <ele>856.20001220703</ele>
        <time>2020-02-24T13:30:31.000Z</time>
      </trkpt>
      <trkpt lat="45.15275" lon="5.44496">
        <ele>856.40002441406</ele>
        <time>2020-02-24T13:30:34.000Z</time>
      </trkpt>
      <trkpt lat="45.15275" lon="5.44496">
        <ele>856.40002441406</ele>
        <time>2020-02-24T13:30:35.000Z</time>
      </trkpt>
      <trkpt lat="45.15275" lon="5.44493">
        <ele>856.59997558594</ele>
        <time>2020-02-24T13:30:37.000Z</time>
      </trkpt>
      <trkpt lat="45.15277" lon="5.44491">
        <ele>857.20001220703</ele>
        <time>2020-02-24T13:30:41.000Z</time>
      </trkpt>
      <trkpt lat="45.15279" lon="5.4449">
        <ele>857.40002441406</ele>
        <time>2020-02-24T13:30:43.000Z</time>
      </trkpt>
      <trkpt lat="45.15279" lon="5.4449">
        <ele>857.40002441406</ele>
        <time>2020-02-24T13:30:44.000Z</time>
      </trkpt>
      <trkpt lat="45.15283" lon="5.44488">
        <ele>857.40002441406</ele>
        <time>2020-02-24T13:30:49.000Z</time>
      </trkpt>
      <trkpt lat="45.15285" lon="5.44487">
        <ele>857.59997558594</ele>
        <time>2020-02-24T13:30:51.000Z</time>
      </trkpt>
      <trkpt lat="45.15286" lon="5.44485">
        <ele>858</ele>
        <time>2020-02-24T13:30:53.000Z</time>
      </trkpt>
      <trkpt lat="45.15293" lon="5.4448">
        <ele>858.20001220703</ele>
        <time>2020-02-24T13:30:57.000Z</time>
      </trkpt>
      <trkpt lat="45.15294" lon="5.4448">
        <ele>858.20001220703</ele>
        <time>2020-02-24T13:30:58.000Z</time>
      </trkpt>
      <trkpt lat="45.15295" lon="5.44479">
        <ele>858.20001220703</ele>
        <time>2020-02-24T13:30:59.000Z</time>
      </trkpt>
      <trkpt lat="45.15298" lon="5.44478">
        <ele>858.40002441406</ele>
        <time>2020-02-24T13:31:01.000Z</time>
      </trkpt>
      <trkpt lat="45.15299" lon="5.44475">
        <ele>858.40002441406</ele>
        <time>2020-02-24T13:31:03.000Z</time>
      </trkpt>
      <trkpt lat="45.15302" lon="5.44475">
        <ele>858.40002441406</ele>
        <time>2020-02-24T13:31:06.000Z</time>
      </trkpt>
      <trkpt lat="45.15305" lon="5.44474">
        <ele>858.59997558594</ele>
        <time>2020-02-24T13:31:08.000Z</time>
      </trkpt>
      <trkpt lat="45.15309" lon="5.44471">
        <ele>859.20001220703</ele>
        <time>2020-02-24T13:31:12.000Z</time>
      </trkpt>
      <trkpt lat="45.15311" lon="5.4447">
        <ele>859.40002441406</ele>
        <time>2020-02-24T13:31:13.000Z</time>
      </trkpt>
      <trkpt lat="45.15312" lon="5.44469">
        <ele>859.40002441406</ele>
        <time>2020-02-24T13:31:15.000Z</time>
      </trkpt>
      <trkpt lat="45.15314" lon="5.44469">
        <ele>859.59997558594</ele>
        <time>2020-02-24T13:31:16.000Z</time>
      </trkpt>
      <trkpt lat="45.15314" lon="5.44468">
        <ele>859.59997558594</ele>
        <time>2020-02-24T13:31:17.000Z</time>
      </trkpt>
      <trkpt lat="45.15314" lon="5.44467">
        <ele>859.40002441406</ele>
        <time>2020-02-24T13:31:19.000Z</time>
      </trkpt>
      <trkpt lat="45.15315" lon="5.44466">
        <ele>859.40002441406</ele>
        <time>2020-02-24T13:31:21.000Z</time>
      </trkpt>
      <trkpt lat="45.15316" lon="5.44466">
        <ele>859.40002441406</ele>
        <time>2020-02-24T13:31:22.000Z</time>
      </trkpt>
      <trkpt lat="45.15317" lon="5.44466">
        <ele>859.40002441406</ele>
        <time>2020-02-24T13:31:23.000Z</time>
      </trkpt>
      <trkpt lat="45.1532" lon="5.44463">
        <ele>860.20001220703</ele>
        <time>2020-02-24T13:31:27.000Z</time>
      </trkpt>
      <trkpt lat="45.1532" lon="5.44461">
        <ele>860.40002441406</ele>
        <time>2020-02-24T13:31:29.000Z</time>
      </trkpt>
      <trkpt lat="45.15318" lon="5.44456">
        <ele>861.20001220703</ele>
        <time>2020-02-24T13:31:35.000Z</time>
      </trkpt>
      <trkpt lat="45.15317" lon="5.44455">
        <ele>861.20001220703</ele>
        <time>2020-02-24T13:31:36.000Z</time>
      </trkpt>
      <trkpt lat="45.15316" lon="5.44454">
        <ele>861.20001220703</ele>
        <time>2020-02-24T13:31:38.000Z</time>
      </trkpt>
      <trkpt lat="45.15316" lon="5.44452">
        <ele>861.59997558594</ele>
        <time>2020-02-24T13:31:40.000Z</time>
      </trkpt>
      <trkpt lat="45.15312" lon="5.44451">
        <ele>861.79998779297</ele>
        <time>2020-02-24T13:31:41.000Z</time>
      </trkpt>
      <trkpt lat="45.15311" lon="5.4445">
        <ele>862.20001220703</ele>
        <time>2020-02-24T13:31:42.000Z</time>
      </trkpt>
      <trkpt lat="45.15311" lon="5.4445">
        <ele>862.79998779297</ele>
        <time>2020-02-24T13:31:43.000Z</time>
      </trkpt>
      <trkpt lat="45.15311" lon="5.44449">
        <ele>863.20001220703</ele>
        <time>2020-02-24T13:31:44.000Z</time>
      </trkpt>
      <trkpt lat="45.1531" lon="5.44448">
        <ele>863.59997558594</ele>
        <time>2020-02-24T13:31:46.000Z</time>
      </trkpt>
      <trkpt lat="45.1531" lon="5.44447">
        <ele>863.59997558594</ele>
        <time>2020-02-24T13:31:48.000Z</time>
      </trkpt>
      <trkpt lat="45.1531" lon="5.44447">
        <ele>863.79998779297</ele>
        <time>2020-02-24T13:31:49.000Z</time>
      </trkpt>
      <trkpt lat="45.15309" lon="5.44445">
        <ele>863.79998779297</ele>
        <time>2020-02-24T13:31:50.000Z</time>
      </trkpt>
      <trkpt lat="45.15307" lon="5.44444">
        <ele>863.79998779297</ele>
        <time>2020-02-24T13:31:51.000Z</time>
      </trkpt>
      <trkpt lat="45.15302" lon="5.44441">
        <ele>864.59997558594</ele>
        <time>2020-02-24T13:31:55.000Z</time>
      </trkpt>
      <trkpt lat="45.15302" lon="5.4444">
        <ele>864.59997558594</ele>
        <time>2020-02-24T13:31:56.000Z</time>
      </trkpt>
      <trkpt lat="45.15301" lon="5.44439">
        <ele>864.59997558594</ele>
        <time>2020-02-24T13:31:57.000Z</time>
      </trkpt>
      <trkpt lat="45.153" lon="5.44438">
        <ele>864.79998779297</ele>
        <time>2020-02-24T13:32:00.000Z</time>
      </trkpt>
      <trkpt lat="45.153" lon="5.44438">
        <ele>864.79998779297</ele>
        <time>2020-02-24T13:32:01.000Z</time>
      </trkpt>
      <trkpt lat="45.15302" lon="5.44436">
        <ele>864.79998779297</ele>
        <time>2020-02-24T13:32:04.000Z</time>
      </trkpt>
      <trkpt lat="45.15302" lon="5.44435">
        <ele>865</ele>
        <time>2020-02-24T13:32:05.000Z</time>
      </trkpt>
      <trkpt lat="45.15304" lon="5.44431">
        <ele>865.40002441406</ele>
        <time>2020-02-24T13:32:11.000Z</time>
      </trkpt>
      <trkpt lat="45.15305" lon="5.44427">
        <ele>865.40002441406</ele>
        <time>2020-02-24T13:32:14.000Z</time>
      </trkpt>
      <trkpt lat="45.15306" lon="5.44425">
        <ele>865.40002441406</ele>
        <time>2020-02-24T13:32:15.000Z</time>
      </trkpt>
      <trkpt lat="45.15307" lon="5.44423">
        <ele>865.40002441406</ele>
        <time>2020-02-24T13:32:17.000Z</time>
      </trkpt>
      <trkpt lat="45.15308" lon="5.44419">
        <ele>865.40002441406</ele>
        <time>2020-02-24T13:32:20.000Z</time>
      </trkpt>
      <trkpt lat="45.1531" lon="5.44415">
        <ele>865.59997558594</ele>
        <time>2020-02-24T13:32:24.000Z</time>
      </trkpt>
      <trkpt lat="45.15311" lon="5.44414">
        <ele>865.59997558594</ele>
        <time>2020-02-24T13:32:25.000Z</time>
      </trkpt>
      <trkpt lat="45.15312" lon="5.44413">
        <ele>865.79998779297</ele>
        <time>2020-02-24T13:32:27.000Z</time>
      </trkpt>
      <trkpt lat="45.15313" lon="5.44412">
        <ele>865.79998779297</ele>
        <time>2020-02-24T13:32:28.000Z</time>
      </trkpt>
      <trkpt lat="45.15314" lon="5.44411">
        <ele>866</ele>
        <time>2020-02-24T13:32:29.000Z</time>
      </trkpt>
      <trkpt lat="45.15315" lon="5.44407">
        <ele>866.59997558594</ele>
        <time>2020-02-24T13:32:33.000Z</time>
      </trkpt>
      <trkpt lat="45.15315" lon="5.44406">
        <ele>866.79998779297</ele>
        <time>2020-02-24T13:32:34.000Z</time>
      </trkpt>
      <trkpt lat="45.15315" lon="5.44405">
        <ele>866.79998779297</ele>
        <time>2020-02-24T13:32:36.000Z</time>
      </trkpt>
      <trkpt lat="45.15315" lon="5.44402">
        <ele>867</ele>
        <time>2020-02-24T13:32:38.000Z</time>
      </trkpt>
      <trkpt lat="45.15317" lon="5.44399">
        <ele>867.20001220703</ele>
        <time>2020-02-24T13:32:40.000Z</time>
      </trkpt>
      <trkpt lat="45.15318" lon="5.44397">
        <ele>867.40002441406</ele>
        <time>2020-02-24T13:32:41.000Z</time>
      </trkpt>
      <trkpt lat="45.15317" lon="5.44392">
        <ele>867.59997558594</ele>
        <time>2020-02-24T13:32:45.000Z</time>
      </trkpt>
      <trkpt lat="45.15315" lon="5.4439">
        <ele>867.79998779297</ele>
        <time>2020-02-24T13:32:47.000Z</time>
      </trkpt>
      <trkpt lat="45.15315" lon="5.44389">
        <ele>868</ele>
        <time>2020-02-24T13:32:48.000Z</time>
      </trkpt>
      <trkpt lat="45.15313" lon="5.44387">
        <ele>868</ele>
        <time>2020-02-24T13:32:49.000Z</time>
      </trkpt>
      <trkpt lat="45.15312" lon="5.44386">
        <ele>868.20001220703</ele>
        <time>2020-02-24T13:32:50.000Z</time>
      </trkpt>
      <trkpt lat="45.15311" lon="5.44383">
        <ele>868.59997558594</ele>
        <time>2020-02-24T13:32:52.000Z</time>
      </trkpt>
      <trkpt lat="45.1531" lon="5.44382">
        <ele>868.59997558594</ele>
        <time>2020-02-24T13:32:53.000Z</time>
      </trkpt>
      <trkpt lat="45.15308" lon="5.44381">
        <ele>868.59997558594</ele>
        <time>2020-02-24T13:32:54.000Z</time>
      </trkpt>
      <trkpt lat="45.15305" lon="5.44378">
        <ele>869.20001220703</ele>
        <time>2020-02-24T13:32:57.000Z</time>
      </trkpt>
      <trkpt lat="45.15303" lon="5.44376">
        <ele>869.40002441406</ele>
        <time>2020-02-24T13:33:00.000Z</time>
      </trkpt>
      <trkpt lat="45.15302" lon="5.44376">
        <ele>869.40002441406</ele>
        <time>2020-02-24T13:33:01.000Z</time>
      </trkpt>
      <trkpt lat="45.15302" lon="5.44375">
        <ele>869.59997558594</ele>
        <time>2020-02-24T13:33:02.000Z</time>
      </trkpt>
      <trkpt lat="45.153" lon="5.44373">
        <ele>869.79998779297</ele>
        <time>2020-02-24T13:33:04.000Z</time>
      </trkpt>
      <trkpt lat="45.15299" lon="5.44371">
        <ele>870.20001220703</ele>
        <time>2020-02-24T13:33:06.000Z</time>
      </trkpt>
      <trkpt lat="45.15299" lon="5.44368">
        <ele>870.20001220703</ele>
        <time>2020-02-24T13:33:07.000Z</time>
      </trkpt>
      <trkpt lat="45.15297" lon="5.44367">
        <ele>870.40002441406</ele>
        <time>2020-02-24T13:33:08.000Z</time>
      </trkpt>
      <trkpt lat="45.15295" lon="5.44365">
        <ele>870.59997558594</ele>
        <time>2020-02-24T13:33:10.000Z</time>
      </trkpt>
      <trkpt lat="45.15294" lon="5.44363">
        <ele>871</ele>
        <time>2020-02-24T13:33:12.000Z</time>
      </trkpt>
      <trkpt lat="45.1529" lon="5.44361">
        <ele>871.20001220703</ele>
        <time>2020-02-24T13:33:14.000Z</time>
      </trkpt>
      <trkpt lat="45.15288" lon="5.4436">
        <ele>871.40002441406</ele>
        <time>2020-02-24T13:33:15.000Z</time>
      </trkpt>
      <trkpt lat="45.15284" lon="5.44357">
        <ele>872.20001220703</ele>
        <time>2020-02-24T13:33:19.000Z</time>
      </trkpt>
      <trkpt lat="45.15281" lon="5.44354">
        <ele>872.40002441406</ele>
        <time>2020-02-24T13:33:23.000Z</time>
      </trkpt>
      <trkpt lat="45.1528" lon="5.44348">
        <ele>872.79998779297</ele>
        <time>2020-02-24T13:33:29.000Z</time>
      </trkpt>
      <trkpt lat="45.1528" lon="5.44345">
        <ele>873.40002441406</ele>
        <time>2020-02-24T13:33:31.000Z</time>
      </trkpt>
      <trkpt lat="45.1528" lon="5.44345">
        <ele>873.59997558594</ele>
        <time>2020-02-24T13:33:32.000Z</time>
      </trkpt>
      <trkpt lat="45.1528" lon="5.44343">
        <ele>874</ele>
        <time>2020-02-24T13:33:34.000Z</time>
      </trkpt>
      <trkpt lat="45.15278" lon="5.44338">
        <ele>874.59997558594</ele>
        <time>2020-02-24T13:33:39.000Z</time>
      </trkpt>
      <trkpt lat="45.15275" lon="5.44333">
        <ele>875</ele>
        <time>2020-02-24T13:33:44.000Z</time>
      </trkpt>
      <trkpt lat="45.15275" lon="5.44332">
        <ele>875</ele>
        <time>2020-02-24T13:33:45.000Z</time>
      </trkpt>
      <trkpt lat="45.15273" lon="5.44328">
        <ele>875.20001220703</ele>
        <time>2020-02-24T13:33:48.000Z</time>
      </trkpt>
      <trkpt lat="45.15271" lon="5.44324">
        <ele>875.59997558594</ele>
        <time>2020-02-24T13:33:52.000Z</time>
      </trkpt>
      <trkpt lat="45.15271" lon="5.44323">
        <ele>875.59997558594</ele>
        <time>2020-02-24T13:33:53.000Z</time>
      </trkpt>
      <trkpt lat="45.1527" lon="5.4432">
        <ele>876</ele>
        <time>2020-02-24T13:33:56.000Z</time>
      </trkpt>
      <trkpt lat="45.15269" lon="5.44319">
        <ele>876.20001220703</ele>
        <time>2020-02-24T13:33:57.000Z</time>
      </trkpt>
      <trkpt lat="45.15268" lon="5.44318">
        <ele>876.20001220703</ele>
        <time>2020-02-24T13:33:58.000Z</time>
      </trkpt>
      <trkpt lat="45.15267" lon="5.44318">
        <ele>876.40002441406</ele>
        <time>2020-02-24T13:33:59.000Z</time>
      </trkpt>
      <trkpt lat="45.15267" lon="5.44316">
        <ele>876.79998779297</ele>
        <time>2020-02-24T13:34:01.000Z</time>
      </trkpt>
      <trkpt lat="45.15264" lon="5.44312">
        <ele>877.20001220703</ele>
        <time>2020-02-24T13:34:05.000Z</time>
      </trkpt>
      <trkpt lat="45.15264" lon="5.44311">
        <ele>877.40002441406</ele>
        <time>2020-02-24T13:34:06.000Z</time>
      </trkpt>
      <trkpt lat="45.15263" lon="5.44308">
        <ele>877.79998779297</ele>
        <time>2020-02-24T13:34:10.000Z</time>
      </trkpt>
      <trkpt lat="45.15263" lon="5.44307">
        <ele>878</ele>
        <time>2020-02-24T13:34:11.000Z</time>
      </trkpt>
      <trkpt lat="45.15262" lon="5.44306">
        <ele>878.20001220703</ele>
        <time>2020-02-24T13:34:12.000Z</time>
      </trkpt>
      <trkpt lat="45.15261" lon="5.44306">
        <ele>878.20001220703</ele>
        <time>2020-02-24T13:34:13.000Z</time>
      </trkpt>
      <trkpt lat="45.1526" lon="5.44305">
        <ele>878.40002441406</ele>
        <time>2020-02-24T13:34:15.000Z</time>
      </trkpt>
      <trkpt lat="45.15258" lon="5.44302">
        <ele>878.59997558594</ele>
        <time>2020-02-24T13:34:18.000Z</time>
      </trkpt>
      <trkpt lat="45.15258" lon="5.44301">
        <ele>878.79998779297</ele>
        <time>2020-02-24T13:34:19.000Z</time>
      </trkpt>
      <trkpt lat="45.15258" lon="5.44301">
        <ele>879</ele>
        <time>2020-02-24T13:34:20.000Z</time>
      </trkpt>
      <trkpt lat="45.15256" lon="5.44299">
        <ele>879.59997558594</ele>
        <time>2020-02-24T13:34:24.000Z</time>
      </trkpt>
      <trkpt lat="45.15255" lon="5.44297">
        <ele>880</ele>
        <time>2020-02-24T13:34:27.000Z</time>
      </trkpt>
      <trkpt lat="45.15255" lon="5.44296">
        <ele>880.20001220703</ele>
        <time>2020-02-24T13:34:28.000Z</time>
      </trkpt>
      <trkpt lat="45.15255" lon="5.44294">
        <ele>880.20001220703</ele>
        <time>2020-02-24T13:34:29.000Z</time>
      </trkpt>
      <trkpt lat="45.15255" lon="5.44292">
        <ele>880.59997558594</ele>
        <time>2020-02-24T13:34:32.000Z</time>
      </trkpt>
      <trkpt lat="45.15253" lon="5.44289">
        <ele>880.79998779297</ele>
        <time>2020-02-24T13:34:35.000Z</time>
      </trkpt>
      <trkpt lat="45.15252" lon="5.44288">
        <ele>881</ele>
        <time>2020-02-24T13:34:36.000Z</time>
      </trkpt>
      <trkpt lat="45.15252" lon="5.44286">
        <ele>881</ele>
        <time>2020-02-24T13:34:37.000Z</time>
      </trkpt>
      <trkpt lat="45.15254" lon="5.44284">
        <ele>881.20001220703</ele>
        <time>2020-02-24T13:34:39.000Z</time>
      </trkpt>
      <trkpt lat="45.15249" lon="5.44284">
        <ele>882.20001220703</ele>
        <time>2020-02-24T13:34:46.000Z</time>
      </trkpt>
      <trkpt lat="45.15246" lon="5.44281">
        <ele>882.20001220703</ele>
        <time>2020-02-24T13:34:49.000Z</time>
      </trkpt>
      <trkpt lat="45.15241" lon="5.44277">
        <ele>882.59997558594</ele>
        <time>2020-02-24T13:34:52.000Z</time>
      </trkpt>
      <trkpt lat="45.15238" lon="5.44273">
        <ele>883</ele>
        <time>2020-02-24T13:34:56.000Z</time>
      </trkpt>
      <trkpt lat="45.15237" lon="5.44272">
        <ele>883.20001220703</ele>
        <time>2020-02-24T13:34:57.000Z</time>
      </trkpt>
      <trkpt lat="45.15237" lon="5.44271">
        <ele>883.59997558594</ele>
        <time>2020-02-24T13:34:58.000Z</time>
      </trkpt>
      <trkpt lat="45.15236" lon="5.4427">
        <ele>883.79998779297</ele>
        <time>2020-02-24T13:34:59.000Z</time>
      </trkpt>
      <trkpt lat="45.15235" lon="5.4427">
        <ele>884</ele>
        <time>2020-02-24T13:35:00.000Z</time>
      </trkpt>
      <trkpt lat="45.15232" lon="5.4427">
        <ele>884.20001220703</ele>
        <time>2020-02-24T13:35:03.000Z</time>
      </trkpt>
      <trkpt lat="45.15231" lon="5.4427">
        <ele>884.20001220703</ele>
        <time>2020-02-24T13:35:04.000Z</time>
      </trkpt>
      <trkpt lat="45.15228" lon="5.44264">
        <ele>884.40002441406</ele>
        <time>2020-02-24T13:35:10.000Z</time>
      </trkpt>
      <trkpt lat="45.15228" lon="5.44262">
        <ele>884.59997558594</ele>
        <time>2020-02-24T13:35:11.000Z</time>
      </trkpt>
      <trkpt lat="45.15227" lon="5.44258">
        <ele>885.20001220703</ele>
        <time>2020-02-24T13:35:14.000Z</time>
      </trkpt>
      <trkpt lat="45.15227" lon="5.44257">
        <ele>885.40002441406</ele>
        <time>2020-02-24T13:35:15.000Z</time>
      </trkpt>
      <trkpt lat="45.15225" lon="5.44257">
        <ele>885.59997558594</ele>
        <time>2020-02-24T13:35:16.000Z</time>
      </trkpt>
      <trkpt lat="45.15223" lon="5.44254">
        <ele>886.20001220703</ele>
        <time>2020-02-24T13:35:19.000Z</time>
      </trkpt>
      <trkpt lat="45.15223" lon="5.44253">
        <ele>886.20001220703</ele>
        <time>2020-02-24T13:35:20.000Z</time>
      </trkpt>
      <trkpt lat="45.15223" lon="5.44252">
        <ele>886.40002441406</ele>
        <time>2020-02-24T13:35:21.000Z</time>
      </trkpt>
      <trkpt lat="45.1522" lon="5.44253">
        <ele>886.40002441406</ele>
        <time>2020-02-24T13:35:24.000Z</time>
      </trkpt>
      <trkpt lat="45.15219" lon="5.44253">
        <ele>886.59997558594</ele>
        <time>2020-02-24T13:35:26.000Z</time>
      </trkpt>
      <trkpt lat="45.15219" lon="5.44252">
        <ele>886.79998779297</ele>
        <time>2020-02-24T13:35:27.000Z</time>
      </trkpt>
      <trkpt lat="45.15219" lon="5.4425">
        <ele>887.59997558594</ele>
        <time>2020-02-24T13:35:31.000Z</time>
      </trkpt>
      <trkpt lat="45.15218" lon="5.44249">
        <ele>887.59997558594</ele>
        <time>2020-02-24T13:35:35.000Z</time>
      </trkpt>
      <trkpt lat="45.15217" lon="5.44249">
        <ele>887.59997558594</ele>
        <time>2020-02-24T13:35:36.000Z</time>
      </trkpt>
      <trkpt lat="45.15213" lon="5.44247">
        <ele>888</ele>
        <time>2020-02-24T13:35:39.000Z</time>
      </trkpt>
      <trkpt lat="45.15212" lon="5.44246">
        <ele>888.59997558594</ele>
        <time>2020-02-24T13:35:42.000Z</time>
      </trkpt>
      <trkpt lat="45.1521" lon="5.44244">
        <ele>889.20001220703</ele>
        <time>2020-02-24T13:35:44.000Z</time>
      </trkpt>
      <trkpt lat="45.15209" lon="5.44243">
        <ele>889.40002441406</ele>
        <time>2020-02-24T13:35:46.000Z</time>
      </trkpt>
      <trkpt lat="45.15208" lon="5.4424">
        <ele>889.59997558594</ele>
        <time>2020-02-24T13:35:49.000Z</time>
      </trkpt>
      <trkpt lat="45.15206" lon="5.4424">
        <ele>890.20001220703</ele>
        <time>2020-02-24T13:35:51.000Z</time>
      </trkpt>
      <trkpt lat="45.15206" lon="5.4424">
        <ele>890.59997558594</ele>
        <time>2020-02-24T13:35:52.000Z</time>
      </trkpt>
      <trkpt lat="45.15202" lon="5.44237">
        <ele>891.59997558594</ele>
        <time>2020-02-24T13:35:57.000Z</time>
      </trkpt>
      <trkpt lat="45.15202" lon="5.44234">
        <ele>891.59997558594</ele>
        <time>2020-02-24T13:35:59.000Z</time>
      </trkpt>
      <trkpt lat="45.15203" lon="5.44231">
        <ele>891.59997558594</ele>
        <time>2020-02-24T13:36:00.000Z</time>
      </trkpt>
      <trkpt lat="45.15203" lon="5.44229">
        <ele>891.59997558594</ele>
        <time>2020-02-24T13:36:04.000Z</time>
      </trkpt>
      <trkpt lat="45.15203" lon="5.44225">
        <ele>891.79998779297</ele>
        <time>2020-02-24T13:36:06.000Z</time>
      </trkpt>
      <trkpt lat="45.15204" lon="5.44215">
        <ele>892.20001220703</ele>
        <time>2020-02-24T13:36:10.000Z</time>
      </trkpt>
      <trkpt lat="45.15204" lon="5.44212">
        <ele>892.59997558594</ele>
        <time>2020-02-24T13:36:12.000Z</time>
      </trkpt>
      <trkpt lat="45.15203" lon="5.44211">
        <ele>892.59997558594</ele>
        <time>2020-02-24T13:36:13.000Z</time>
      </trkpt>
      <trkpt lat="45.15199" lon="5.44209">
        <ele>893.40002441406</ele>
        <time>2020-02-24T13:36:18.000Z</time>
      </trkpt>
      <trkpt lat="45.15195" lon="5.44202">
        <ele>893.40002441406</ele>
        <time>2020-02-24T13:36:25.000Z</time>
      </trkpt>
      <trkpt lat="45.15194" lon="5.44201">
        <ele>893.20001220703</ele>
        <time>2020-02-24T13:36:27.000Z</time>
      </trkpt>
      <trkpt lat="45.15192" lon="5.44202">
        <ele>893.59997558594</ele>
        <time>2020-02-24T13:36:33.000Z</time>
      </trkpt>
      <trkpt lat="45.15191" lon="5.44203">
        <ele>893.59997558594</ele>
        <time>2020-02-24T13:36:34.000Z</time>
      </trkpt>
      <trkpt lat="45.15188" lon="5.44204">
        <ele>894.40002441406</ele>
        <time>2020-02-24T13:36:39.000Z</time>
      </trkpt>
      <trkpt lat="45.15184" lon="5.44203">
        <ele>894.79998779297</ele>
        <time>2020-02-24T13:36:42.000Z</time>
      </trkpt>
      <trkpt lat="45.15179" lon="5.44201">
        <ele>895.40002441406</ele>
        <time>2020-02-24T13:36:46.000Z</time>
      </trkpt>
      <trkpt lat="45.15177" lon="5.442">
        <ele>895.79998779297</ele>
        <time>2020-02-24T13:36:49.000Z</time>
      </trkpt>
      <trkpt lat="45.15174" lon="5.44198">
        <ele>896</ele>
        <time>2020-02-24T13:36:53.000Z</time>
      </trkpt>
      <trkpt lat="45.15175" lon="5.44196">
        <ele>896.20001220703</ele>
        <time>2020-02-24T13:36:54.000Z</time>
      </trkpt>
      <trkpt lat="45.15175" lon="5.44194">
        <ele>896.20001220703</ele>
        <time>2020-02-24T13:36:55.000Z</time>
      </trkpt>
      <trkpt lat="45.15175" lon="5.44194">
        <ele>896.40002441406</ele>
        <time>2020-02-24T13:36:56.000Z</time>
      </trkpt>
      <trkpt lat="45.15174" lon="5.44192">
        <ele>897</ele>
        <time>2020-02-24T13:36:59.000Z</time>
      </trkpt>
      <trkpt lat="45.15173" lon="5.44192">
        <ele>897</ele>
        <time>2020-02-24T13:37:01.000Z</time>
      </trkpt>
      <trkpt lat="45.15172" lon="5.44191">
        <ele>897.20001220703</ele>
        <time>2020-02-24T13:37:02.000Z</time>
      </trkpt>
      <trkpt lat="45.15169" lon="5.44191">
        <ele>897.20001220703</ele>
        <time>2020-02-24T13:37:04.000Z</time>
      </trkpt>
      <trkpt lat="45.15164" lon="5.4419">
        <ele>897.59997558594</ele>
        <time>2020-02-24T13:37:09.000Z</time>
      </trkpt>
      <trkpt lat="45.15162" lon="5.44188">
        <ele>898</ele>
        <time>2020-02-24T13:37:12.000Z</time>
      </trkpt>
      <trkpt lat="45.15162" lon="5.44187">
        <ele>898</ele>
        <time>2020-02-24T13:37:13.000Z</time>
      </trkpt>
      <trkpt lat="45.15161" lon="5.44185">
        <ele>898.40002441406</ele>
        <time>2020-02-24T13:37:15.000Z</time>
      </trkpt>
      <trkpt lat="45.1516" lon="5.44184">
        <ele>898.40002441406</ele>
        <time>2020-02-24T13:37:16.000Z</time>
      </trkpt>
      <trkpt lat="45.15161" lon="5.44178">
        <ele>899</ele>
        <time>2020-02-24T13:37:19.000Z</time>
      </trkpt>
      <trkpt lat="45.15159" lon="5.44178">
        <ele>899</ele>
        <time>2020-02-24T13:37:20.000Z</time>
      </trkpt>
      <trkpt lat="45.15159" lon="5.44174">
        <ele>899.40002441406</ele>
        <time>2020-02-24T13:37:23.000Z</time>
      </trkpt>
      <trkpt lat="45.15156" lon="5.44173">
        <ele>899.79998779297</ele>
        <time>2020-02-24T13:37:27.000Z</time>
      </trkpt>
      <trkpt lat="45.15154" lon="5.44173">
        <ele>900</ele>
        <time>2020-02-24T13:37:29.000Z</time>
      </trkpt>
      <trkpt lat="45.1515" lon="5.44173">
        <ele>900.59997558594</ele>
        <time>2020-02-24T13:37:35.000Z</time>
      </trkpt>
      <trkpt lat="45.15146" lon="5.44174">
        <ele>901</ele>
        <time>2020-02-24T13:37:38.000Z</time>
      </trkpt>
      <trkpt lat="45.15146" lon="5.44172">
        <ele>901.59997558594</ele>
        <time>2020-02-24T13:37:42.000Z</time>
      </trkpt>
      <trkpt lat="45.15145" lon="5.44172">
        <ele>902.20001220703</ele>
        <time>2020-02-24T13:37:44.000Z</time>
      </trkpt>
      <trkpt lat="45.15141" lon="5.44172">
        <ele>903.40002441406</ele>
        <time>2020-02-24T13:37:48.000Z</time>
      </trkpt>
      <trkpt lat="45.15133" lon="5.44174">
        <ele>904.59997558594</ele>
        <time>2020-02-24T13:37:55.000Z</time>
      </trkpt>
      <trkpt lat="45.15128" lon="5.44176">
        <ele>905</ele>
        <time>2020-02-24T13:37:59.000Z</time>
      </trkpt>
      <trkpt lat="45.15125" lon="5.44174">
        <ele>905.20001220703</ele>
        <time>2020-02-24T13:38:02.000Z</time>
      </trkpt>
      <trkpt lat="45.15125" lon="5.44173">
        <ele>905.20001220703</ele>
        <time>2020-02-24T13:38:03.000Z</time>
      </trkpt>
      <trkpt lat="45.15121" lon="5.4417">
        <ele>905.20001220703</ele>
        <time>2020-02-24T13:38:09.000Z</time>
      </trkpt>
      <trkpt lat="45.15118" lon="5.44165">
        <ele>905.59997558594</ele>
        <time>2020-02-24T13:38:15.000Z</time>
      </trkpt>
      <trkpt lat="45.15116" lon="5.44163">
        <ele>906.59997558594</ele>
        <time>2020-02-24T13:38:19.000Z</time>
      </trkpt>
      <trkpt lat="45.15116" lon="5.44163">
        <ele>907.20001220703</ele>
        <time>2020-02-24T13:38:21.000Z</time>
      </trkpt>
      <trkpt lat="45.15115" lon="5.4416">
        <ele>907.79998779297</ele>
        <time>2020-02-24T13:38:24.000Z</time>
      </trkpt>
      <trkpt lat="45.15112" lon="5.44159">
        <ele>908.40002441406</ele>
        <time>2020-02-24T13:38:30.000Z</time>
      </trkpt>
      <trkpt lat="45.15107" lon="5.44155">
        <ele>908.59997558594</ele>
        <time>2020-02-24T13:38:36.000Z</time>
      </trkpt>
      <trkpt lat="45.15107" lon="5.44155">
        <ele>908.59997558594</ele>
        <time>2020-02-24T13:38:37.000Z</time>
      </trkpt>
      <trkpt lat="45.15104" lon="5.44154">
        <ele>908.79998779297</ele>
        <time>2020-02-24T13:38:39.000Z</time>
      </trkpt>
      <trkpt lat="45.15103" lon="5.44153">
        <ele>908.79998779297</ele>
        <time>2020-02-24T13:38:40.000Z</time>
      </trkpt>
      <trkpt lat="45.15101" lon="5.44151">
        <ele>909</ele>
        <time>2020-02-24T13:38:43.000Z</time>
      </trkpt>
      <trkpt lat="45.151" lon="5.44149">
        <ele>909.20001220703</ele>
        <time>2020-02-24T13:38:44.000Z</time>
      </trkpt>
      <trkpt lat="45.15097" lon="5.44147">
        <ele>910</ele>
        <time>2020-02-24T13:38:48.000Z</time>
      </trkpt>
      <trkpt lat="45.15096" lon="5.44147">
        <ele>910.20001220703</ele>
        <time>2020-02-24T13:38:49.000Z</time>
      </trkpt>
      <trkpt lat="45.15095" lon="5.44148">
        <ele>910.40002441406</ele>
        <time>2020-02-24T13:38:50.000Z</time>
      </trkpt>
      <trkpt lat="45.15093" lon="5.44146">
        <ele>910.79998779297</ele>
        <time>2020-02-24T13:38:52.000Z</time>
      </trkpt>
      <trkpt lat="45.15092" lon="5.44146">
        <ele>911</ele>
        <time>2020-02-24T13:38:53.000Z</time>
      </trkpt>
      <trkpt lat="45.15091" lon="5.44144">
        <ele>911.20001220703</ele>
        <time>2020-02-24T13:38:55.000Z</time>
      </trkpt>
      <trkpt lat="45.15087" lon="5.44142">
        <ele>911.59997558594</ele>
        <time>2020-02-24T13:39:02.000Z</time>
      </trkpt>
      <trkpt lat="45.15088" lon="5.44139">
        <ele>912.20001220703</ele>
        <time>2020-02-24T13:39:06.000Z</time>
      </trkpt>
      <trkpt lat="45.15088" lon="5.44137">
        <ele>912.40002441406</ele>
        <time>2020-02-24T13:39:08.000Z</time>
      </trkpt>
      <trkpt lat="45.15087" lon="5.44134">
        <ele>913</ele>
        <time>2020-02-24T13:39:15.000Z</time>
      </trkpt>
      <trkpt lat="45.15087" lon="5.4413">
        <ele>913.20001220703</ele>
        <time>2020-02-24T13:39:19.000Z</time>
      </trkpt>
      <trkpt lat="45.15087" lon="5.4413">
        <ele>913.40002441406</ele>
        <time>2020-02-24T13:39:21.000Z</time>
      </trkpt>
      <trkpt lat="45.15084" lon="5.44129">
        <ele>914.20001220703</ele>
        <time>2020-02-24T13:39:24.000Z</time>
      </trkpt>
      <trkpt lat="45.15082" lon="5.44128">
        <ele>914.20001220703</ele>
        <time>2020-02-24T13:39:25.000Z</time>
      </trkpt>
      <trkpt lat="45.1508" lon="5.44128">
        <ele>914.40002441406</ele>
        <time>2020-02-24T13:39:26.000Z</time>
      </trkpt>
      <trkpt lat="45.15079" lon="5.44127">
        <ele>914.40002441406</ele>
        <time>2020-02-24T13:39:27.000Z</time>
      </trkpt>
      <trkpt lat="45.15077" lon="5.44126">
        <ele>914.40002441406</ele>
        <time>2020-02-24T13:39:29.000Z</time>
      </trkpt>
      <trkpt lat="45.15075" lon="5.44124">
        <ele>914.79998779297</ele>
        <time>2020-02-24T13:39:32.000Z</time>
      </trkpt>
      <trkpt lat="45.15075" lon="5.44123">
        <ele>914.79998779297</ele>
        <time>2020-02-24T13:39:33.000Z</time>
      </trkpt>
      <trkpt lat="45.15069" lon="5.44122">
        <ele>915.40002441406</ele>
        <time>2020-02-24T13:39:38.000Z</time>
      </trkpt>
      <trkpt lat="45.15067" lon="5.44122">
        <ele>915.40002441406</ele>
        <time>2020-02-24T13:39:39.000Z</time>
      </trkpt>
      <trkpt lat="45.15067" lon="5.44118">
        <ele>915.79998779297</ele>
        <time>2020-02-24T13:39:41.000Z</time>
      </trkpt>
      <trkpt lat="45.15063" lon="5.44118">
        <ele>916.20001220703</ele>
        <time>2020-02-24T13:39:44.000Z</time>
      </trkpt>
      <trkpt lat="45.15063" lon="5.44117">
        <ele>916.20001220703</ele>
        <time>2020-02-24T13:39:45.000Z</time>
      </trkpt>
      <trkpt lat="45.15062" lon="5.44116">
        <ele>916.40002441406</ele>
        <time>2020-02-24T13:39:46.000Z</time>
      </trkpt>
      <trkpt lat="45.1506" lon="5.44114">
        <ele>917</ele>
        <time>2020-02-24T13:39:51.000Z</time>
      </trkpt>
      <trkpt lat="45.15057" lon="5.44116">
        <ele>917.40002441406</ele>
        <time>2020-02-24T13:39:54.000Z</time>
      </trkpt>
      <trkpt lat="45.15054" lon="5.44117">
        <ele>918.20001220703</ele>
        <time>2020-02-24T13:39:57.000Z</time>
      </trkpt>
      <trkpt lat="45.15049" lon="5.44117">
        <ele>918.40002441406</ele>
        <time>2020-02-24T13:40:00.000Z</time>
      </trkpt>
      <trkpt lat="45.15047" lon="5.44116">
        <ele>918.40002441406</ele>
        <time>2020-02-24T13:40:02.000Z</time>
      </trkpt>
      <trkpt lat="45.15046" lon="5.44116">
        <ele>918.59997558594</ele>
        <time>2020-02-24T13:40:03.000Z</time>
      </trkpt>
      <trkpt lat="45.15045" lon="5.44114">
        <ele>918.59997558594</ele>
        <time>2020-02-24T13:40:05.000Z</time>
      </trkpt>
      <trkpt lat="45.15044" lon="5.44114">
        <ele>918.59997558594</ele>
        <time>2020-02-24T13:40:06.000Z</time>
      </trkpt>
      <trkpt lat="45.15042" lon="5.44113">
        <ele>919</ele>
        <time>2020-02-24T13:40:09.000Z</time>
      </trkpt>
      <trkpt lat="45.15041" lon="5.44113">
        <ele>919.59997558594</ele>
        <time>2020-02-24T13:40:11.000Z</time>
      </trkpt>
      <trkpt lat="45.1504" lon="5.44113">
        <ele>919.59997558594</ele>
        <time>2020-02-24T13:40:12.000Z</time>
      </trkpt>
      <trkpt lat="45.1504" lon="5.44112">
        <ele>919.79998779297</ele>
        <time>2020-02-24T13:40:13.000Z</time>
      </trkpt>
      <trkpt lat="45.15035" lon="5.44112">
        <ele>920.59997558594</ele>
        <time>2020-02-24T13:40:17.000Z</time>
      </trkpt>
      <trkpt lat="45.15035" lon="5.44111">
        <ele>920.79998779297</ele>
        <time>2020-02-24T13:40:19.000Z</time>
      </trkpt>
      <trkpt lat="45.15033" lon="5.44112">
        <ele>920.79998779297</ele>
        <time>2020-02-24T13:40:20.000Z</time>
      </trkpt>
      <trkpt lat="45.15031" lon="5.4411">
        <ele>921.20001220703</ele>
        <time>2020-02-24T13:40:23.000Z</time>
      </trkpt>
      <trkpt lat="45.1503" lon="5.4411">
        <ele>921.40002441406</ele>
        <time>2020-02-24T13:40:24.000Z</time>
      </trkpt>
      <trkpt lat="45.1503" lon="5.4411">
        <ele>921.59997558594</ele>
        <time>2020-02-24T13:40:25.000Z</time>
      </trkpt>
      <trkpt lat="45.15026" lon="5.44109">
        <ele>922</ele>
        <time>2020-02-24T13:40:29.000Z</time>
      </trkpt>
      <trkpt lat="45.15023" lon="5.44109">
        <ele>922.40002441406</ele>
        <time>2020-02-24T13:40:32.000Z</time>
      </trkpt>
      <trkpt lat="45.15022" lon="5.44107">
        <ele>922.40002441406</ele>
        <time>2020-02-24T13:40:34.000Z</time>
      </trkpt>
      <trkpt lat="45.15021" lon="5.44105">
        <ele>922.79998779297</ele>
        <time>2020-02-24T13:40:36.000Z</time>
      </trkpt>
      <trkpt lat="45.1502" lon="5.44105">
        <ele>922.79998779297</ele>
        <time>2020-02-24T13:40:37.000Z</time>
      </trkpt>
      <trkpt lat="45.15017" lon="5.44102">
        <ele>923.40002441406</ele>
        <time>2020-02-24T13:40:41.000Z</time>
      </trkpt>
      <trkpt lat="45.15017" lon="5.441">
        <ele>923.79998779297</ele>
        <time>2020-02-24T13:40:44.000Z</time>
      </trkpt>
      <trkpt lat="45.15012" lon="5.44099">
        <ele>924.40002441406</ele>
        <time>2020-02-24T13:40:48.000Z</time>
      </trkpt>
      <trkpt lat="45.1501" lon="5.44099">
        <ele>924.40002441406</ele>
        <time>2020-02-24T13:40:50.000Z</time>
      </trkpt>
      <trkpt lat="45.15007" lon="5.44099">
        <ele>924.79998779297</ele>
        <time>2020-02-24T13:40:53.000Z</time>
      </trkpt>
      <trkpt lat="45.15007" lon="5.44098">
        <ele>925</ele>
        <time>2020-02-24T13:40:54.000Z</time>
      </trkpt>
      <trkpt lat="45.15006" lon="5.44098">
        <ele>925.20001220703</ele>
        <time>2020-02-24T13:40:55.000Z</time>
      </trkpt>
      <trkpt lat="45.15003" lon="5.44096">
        <ele>925.59997558594</ele>
        <time>2020-02-24T13:40:58.000Z</time>
      </trkpt>
      <trkpt lat="45.15001" lon="5.44093">
        <ele>925.79998779297</ele>
        <time>2020-02-24T13:41:01.000Z</time>
      </trkpt>
      <trkpt lat="45.15" lon="5.44092">
        <ele>926</ele>
        <time>2020-02-24T13:41:03.000Z</time>
      </trkpt>
      <trkpt lat="45.14999" lon="5.44091">
        <ele>926</ele>
        <time>2020-02-24T13:41:04.000Z</time>
      </trkpt>
      <trkpt lat="45.14997" lon="5.44087">
        <ele>926.20001220703</ele>
        <time>2020-02-24T13:41:09.000Z</time>
      </trkpt>
      <trkpt lat="45.14997" lon="5.44086">
        <ele>927</ele>
        <time>2020-02-24T13:41:12.000Z</time>
      </trkpt>
      <trkpt lat="45.14996" lon="5.44086">
        <ele>927.20001220703</ele>
        <time>2020-02-24T13:41:13.000Z</time>
      </trkpt>
      <trkpt lat="45.14996" lon="5.44085">
        <ele>927.40002441406</ele>
        <time>2020-02-24T13:41:16.000Z</time>
      </trkpt>
      <trkpt lat="45.14996" lon="5.44083">
        <ele>927.59997558594</ele>
        <time>2020-02-24T13:41:17.000Z</time>
      </trkpt>
      <trkpt lat="45.14994" lon="5.44082">
        <ele>927.59997558594</ele>
        <time>2020-02-24T13:41:19.000Z</time>
      </trkpt>
      <trkpt lat="45.14992" lon="5.44081">
        <ele>927.79998779297</ele>
        <time>2020-02-24T13:41:21.000Z</time>
      </trkpt>
      <trkpt lat="45.1499" lon="5.44079">
        <ele>928.79998779297</ele>
        <time>2020-02-24T13:41:26.000Z</time>
      </trkpt>
      <trkpt lat="45.14986" lon="5.44078">
        <ele>929.79998779297</ele>
        <time>2020-02-24T13:41:30.000Z</time>
      </trkpt>
      <trkpt lat="45.14983" lon="5.44072">
        <ele>930.40002441406</ele>
        <time>2020-02-24T13:41:35.000Z</time>
      </trkpt>
      <trkpt lat="45.14977" lon="5.44069">
        <ele>930.59997558594</ele>
        <time>2020-02-24T13:41:41.000Z</time>
      </trkpt>
      <trkpt lat="45.14972" lon="5.44069">
        <ele>930.59997558594</ele>
        <time>2020-02-24T13:41:43.000Z</time>
      </trkpt>
      <trkpt lat="45.14972" lon="5.44067">
        <ele>931</ele>
        <time>2020-02-24T13:41:45.000Z</time>
      </trkpt>
      <trkpt lat="45.14971" lon="5.44066">
        <ele>931</ele>
        <time>2020-02-24T13:41:46.000Z</time>
      </trkpt>
      <trkpt lat="45.14969" lon="5.44061">
        <ele>932</ele>
        <time>2020-02-24T13:41:50.000Z</time>
      </trkpt>
      <trkpt lat="45.14968" lon="5.44057">
        <ele>932.20001220703</ele>
        <time>2020-02-24T13:41:52.000Z</time>
      </trkpt>
      <trkpt lat="45.14968" lon="5.44054">
        <ele>932.40002441406</ele>
        <time>2020-02-24T13:41:54.000Z</time>
      </trkpt>
      <trkpt lat="45.14966" lon="5.44053">
        <ele>932.79998779297</ele>
        <time>2020-02-24T13:41:56.000Z</time>
      </trkpt>
      <trkpt lat="45.14965" lon="5.44052">
        <ele>932.79998779297</ele>
        <time>2020-02-24T13:41:57.000Z</time>
      </trkpt>
      <trkpt lat="45.14965" lon="5.44052">
        <ele>933</ele>
        <time>2020-02-24T13:41:58.000Z</time>
      </trkpt>
      <trkpt lat="45.14964" lon="5.44051">
        <ele>933</ele>
        <time>2020-02-24T13:41:59.000Z</time>
      </trkpt>
      <trkpt lat="45.14963" lon="5.44051">
        <ele>933.20001220703</ele>
        <time>2020-02-24T13:42:00.000Z</time>
      </trkpt>
      <trkpt lat="45.14961" lon="5.4405">
        <ele>934</ele>
        <time>2020-02-24T13:42:04.000Z</time>
      </trkpt>
      <trkpt lat="45.14961" lon="5.44051">
        <ele>934.20001220703</ele>
        <time>2020-02-24T13:42:05.000Z</time>
      </trkpt>
      <trkpt lat="45.14958" lon="5.44052">
        <ele>934.59997558594</ele>
        <time>2020-02-24T13:42:08.000Z</time>
      </trkpt>
      <trkpt lat="45.14954" lon="5.44053">
        <ele>934.79998779297</ele>
        <time>2020-02-24T13:42:10.000Z</time>
      </trkpt>
      <trkpt lat="45.14954" lon="5.4405">
        <ele>935.20001220703</ele>
        <time>2020-02-24T13:42:13.000Z</time>
      </trkpt>
      <trkpt lat="45.14953" lon="5.44049">
        <ele>935.40002441406</ele>
        <time>2020-02-24T13:42:14.000Z</time>
      </trkpt>
      <trkpt lat="45.14949" lon="5.44049">
        <ele>935.79998779297</ele>
        <time>2020-02-24T13:42:16.000Z</time>
      </trkpt>
      <trkpt lat="45.14949" lon="5.44049">
        <ele>935.79998779297</ele>
        <time>2020-02-24T13:42:17.000Z</time>
      </trkpt>
      <trkpt lat="45.14946" lon="5.44048">
        <ele>936</ele>
        <time>2020-02-24T13:42:24.000Z</time>
      </trkpt>
      <trkpt lat="45.14943" lon="5.44046">
        <ele>936.40002441406</ele>
        <time>2020-02-24T13:42:26.000Z</time>
      </trkpt>
      <trkpt lat="45.14941" lon="5.44044">
        <ele>936.40002441406</ele>
        <time>2020-02-24T13:42:27.000Z</time>
      </trkpt>
      <trkpt lat="45.14936" lon="5.44044">
        <ele>937.40002441406</ele>
        <time>2020-02-24T13:42:30.000Z</time>
      </trkpt>
      <trkpt lat="45.14929" lon="5.44042">
        <ele>938</ele>
        <time>2020-02-24T13:42:36.000Z</time>
      </trkpt>
      <trkpt lat="45.14928" lon="5.44041">
        <ele>937.59997558594</ele>
        <time>2020-02-24T13:42:38.000Z</time>
      </trkpt>
      <trkpt lat="45.14925" lon="5.44038">
        <ele>937.20001220703</ele>
        <time>2020-02-24T13:42:41.000Z</time>
      </trkpt>
      <trkpt lat="45.14922" lon="5.44034">
        <ele>937.40002441406</ele>
        <time>2020-02-24T13:42:44.000Z</time>
      </trkpt>
      <trkpt lat="45.14921" lon="5.44034">
        <ele>937.79998779297</ele>
        <time>2020-02-24T13:42:45.000Z</time>
      </trkpt>
      <trkpt lat="45.14918" lon="5.44033">
        <ele>938.40002441406</ele>
        <time>2020-02-24T13:42:48.000Z</time>
      </trkpt>
      <trkpt lat="45.14917" lon="5.4403">
        <ele>938.40002441406</ele>
        <time>2020-02-24T13:42:51.000Z</time>
      </trkpt>
      <trkpt lat="45.14917" lon="5.44024">
        <ele>938.40002441406</ele>
        <time>2020-02-24T13:42:55.000Z</time>
      </trkpt>
      <trkpt lat="45.14916" lon="5.44023">
        <ele>938.59997558594</ele>
        <time>2020-02-24T13:42:57.000Z</time>
      </trkpt>
      <trkpt lat="45.14916" lon="5.44022">
        <ele>938.79998779297</ele>
        <time>2020-02-24T13:42:58.000Z</time>
      </trkpt>
      <trkpt lat="45.14916" lon="5.44021">
        <ele>938.79998779297</ele>
        <time>2020-02-24T13:43:01.000Z</time>
      </trkpt>
      <trkpt lat="45.14915" lon="5.44017">
        <ele>938.79998779297</ele>
        <time>2020-02-24T13:43:03.000Z</time>
      </trkpt>
      <trkpt lat="45.14916" lon="5.44013">
        <ele>938.79998779297</ele>
        <time>2020-02-24T13:43:06.000Z</time>
      </trkpt>
      <trkpt lat="45.14916" lon="5.44011">
        <ele>938.79998779297</ele>
        <time>2020-02-24T13:43:08.000Z</time>
      </trkpt>
      <trkpt lat="45.14916" lon="5.44009">
        <ele>939</ele>
        <time>2020-02-24T13:43:10.000Z</time>
      </trkpt>
      <trkpt lat="45.14916" lon="5.44008">
        <ele>939.20001220703</ele>
        <time>2020-02-24T13:43:11.000Z</time>
      </trkpt>
      <trkpt lat="45.14916" lon="5.44005">
        <ele>939.40002441406</ele>
        <time>2020-02-24T13:43:13.000Z</time>
      </trkpt>
      <trkpt lat="45.14916" lon="5.44003">
        <ele>939.59997558594</ele>
        <time>2020-02-24T13:43:14.000Z</time>
      </trkpt>
      <trkpt lat="45.14917" lon="5.44001">
        <ele>939.59997558594</ele>
        <time>2020-02-24T13:43:15.000Z</time>
      </trkpt>
      <trkpt lat="45.14917" lon="5.44">
        <ele>939.79998779297</ele>
        <time>2020-02-24T13:43:18.000Z</time>
      </trkpt>
      <trkpt lat="45.14918" lon="5.43999">
        <ele>939.79998779297</ele>
        <time>2020-02-24T13:43:20.000Z</time>
      </trkpt>
      <trkpt lat="45.14919" lon="5.43998">
        <ele>939.79998779297</ele>
        <time>2020-02-24T13:43:21.000Z</time>
      </trkpt>
      <trkpt lat="45.1492" lon="5.43995">
        <ele>940.59997558594</ele>
        <time>2020-02-24T13:43:25.000Z</time>
      </trkpt>
      <trkpt lat="45.14919" lon="5.43995">
        <ele>940.79998779297</ele>
        <time>2020-02-24T13:43:26.000Z</time>
      </trkpt>
      <trkpt lat="45.14919" lon="5.43994">
        <ele>941.20001220703</ele>
        <time>2020-02-24T13:43:28.000Z</time>
      </trkpt>
      <trkpt lat="45.14917" lon="5.43989">
        <ele>941.79998779297</ele>
        <time>2020-02-24T13:43:35.000Z</time>
      </trkpt>
      <trkpt lat="45.14917" lon="5.43988">
        <ele>942</ele>
        <time>2020-02-24T13:43:36.000Z</time>
      </trkpt>
      <trkpt lat="45.14916" lon="5.43987">
        <ele>942.40002441406</ele>
        <time>2020-02-24T13:43:40.000Z</time>
      </trkpt>
      <trkpt lat="45.14913" lon="5.43985">
        <ele>942.79998779297</ele>
        <time>2020-02-24T13:43:43.000Z</time>
      </trkpt>
      <trkpt lat="45.14912" lon="5.43985">
        <ele>943</ele>
        <time>2020-02-24T13:43:44.000Z</time>
      </trkpt>
      <trkpt lat="45.14911" lon="5.43985">
        <ele>943.20001220703</ele>
        <time>2020-02-24T13:43:46.000Z</time>
      </trkpt>
      <trkpt lat="45.14908" lon="5.43982">
        <ele>944</ele>
        <time>2020-02-24T13:43:50.000Z</time>
      </trkpt>
      <trkpt lat="45.14905" lon="5.4398">
        <ele>944.40002441406</ele>
        <time>2020-02-24T13:43:52.000Z</time>
      </trkpt>
      <trkpt lat="45.14902" lon="5.43978">
        <ele>945</ele>
        <time>2020-02-24T13:43:56.000Z</time>
      </trkpt>
      <trkpt lat="45.14901" lon="5.43978">
        <ele>945.20001220703</ele>
        <time>2020-02-24T13:43:57.000Z</time>
      </trkpt>
      <trkpt lat="45.149" lon="5.43977">
        <ele>945.40002441406</ele>
        <time>2020-02-24T13:43:59.000Z</time>
      </trkpt>
      <trkpt lat="45.149" lon="5.43975">
        <ele>945.59997558594</ele>
        <time>2020-02-24T13:44:01.000Z</time>
      </trkpt>
      <trkpt lat="45.149" lon="5.4397">
        <ele>946</ele>
        <time>2020-02-24T13:44:05.000Z</time>
      </trkpt>
      <trkpt lat="45.14899" lon="5.4397">
        <ele>946.20001220703</ele>
        <time>2020-02-24T13:44:06.000Z</time>
      </trkpt>
      <trkpt lat="45.14895" lon="5.43968">
        <ele>947.20001220703</ele>
        <time>2020-02-24T13:44:12.000Z</time>
      </trkpt>
      <trkpt lat="45.14894" lon="5.43967">
        <ele>947.40002441406</ele>
        <time>2020-02-24T13:44:13.000Z</time>
      </trkpt>
      <trkpt lat="45.14894" lon="5.43963">
        <ele>948.40002441406</ele>
        <time>2020-02-24T13:44:19.000Z</time>
      </trkpt>
      <trkpt lat="45.1489" lon="5.43963">
        <ele>948.79998779297</ele>
        <time>2020-02-24T13:44:21.000Z</time>
      </trkpt>
      <trkpt lat="45.14887" lon="5.4396">
        <ele>949</ele>
        <time>2020-02-24T13:44:25.000Z</time>
      </trkpt>
      <trkpt lat="45.14886" lon="5.43959">
        <ele>949.20001220703</ele>
        <time>2020-02-24T13:44:26.000Z</time>
      </trkpt>
      <trkpt lat="45.14884" lon="5.43958">
        <ele>949.59997558594</ele>
        <time>2020-02-24T13:44:28.000Z</time>
      </trkpt>
      <trkpt lat="45.14883" lon="5.43955">
        <ele>950.20001220703</ele>
        <time>2020-02-24T13:44:30.000Z</time>
      </trkpt>
      <trkpt lat="45.14881" lon="5.43953">
        <ele>950.40002441406</ele>
        <time>2020-02-24T13:44:32.000Z</time>
      </trkpt>
      <trkpt lat="45.14881" lon="5.43952">
        <ele>950.79998779297</ele>
        <time>2020-02-24T13:44:33.000Z</time>
      </trkpt>
      <trkpt lat="45.1488" lon="5.43952">
        <ele>951.20001220703</ele>
        <time>2020-02-24T13:44:35.000Z</time>
      </trkpt>
      <trkpt lat="45.14879" lon="5.43951">
        <ele>951.20001220703</ele>
        <time>2020-02-24T13:44:36.000Z</time>
      </trkpt>
      <trkpt lat="45.14876" lon="5.43951">
        <ele>951</ele>
        <time>2020-02-24T13:44:41.000Z</time>
      </trkpt>
      <trkpt lat="45.14873" lon="5.43951">
        <ele>951</ele>
        <time>2020-02-24T13:44:44.000Z</time>
      </trkpt>
      <trkpt lat="45.1487" lon="5.4395">
        <ele>951.40002441406</ele>
        <time>2020-02-24T13:44:47.000Z</time>
      </trkpt>
      <trkpt lat="45.14864" lon="5.43951">
        <ele>952</ele>
        <time>2020-02-24T13:44:50.000Z</time>
      </trkpt>
      <trkpt lat="45.14861" lon="5.43952">
        <ele>952</ele>
        <time>2020-02-24T13:44:52.000Z</time>
      </trkpt>
      <trkpt lat="45.14858" lon="5.43952">
        <ele>952.20001220703</ele>
        <time>2020-02-24T13:44:54.000Z</time>
      </trkpt>
      <trkpt lat="45.14858" lon="5.43952">
        <ele>952.40002441406</ele>
        <time>2020-02-24T13:44:55.000Z</time>
      </trkpt>
    </trkseg>
  </trk>
</gpx>